Time,TemperatureF,DewpointF,PressureIn,WindDirection,WindDirectionDegrees,WindSpeedMPH,WindSpeedGustMPH,Humidity,HourlyPrecipIn,Conditions,Clouds,dailyrainin,SoftwareType,DateUTC
2013-05-13 00:00:00,59.0,53.5,30.24,North,357,0.0,0.0,82,0.00,,---,0.00,VWS V14.01,2013-05-13 05:00:00,
2013-05-13 00:01:00,59.0,53.5,30.24,North,357,0.0,0.0,82,0.00,,---,0.00,VWS V14.01,2013-05-13 05:01:00,
2013-05-13 00:02:00,59.0,53.5,30.24,North,357,0.0,0.0,82,0.00,,---,0.00,VWS V14.01,2013-05-13 05:02:00,
2013-05-13 00:03:00,58.8,53.7,30.24,North,357,0.0,0.0,83,0.00,,---,0.00,VWS V14.01,2013-05-13 05:03:00,
2013-05-13 00:04:00,58.8,53.7,30.24,North,357,0.0,0.0,83,0.00,,---,0.00,VWS V14.01,2013-05-13 05:04:00,
2013-05-13 00:05:00,58.8,53.7,30.24,North,357,0.0,0.0,83,0.00,,---,0.00,VWS V14.01,2013-05-13 05:05:00,
2013-05-13 00:06:00,58.5,53.3,30.24,North,357,0.0,0.0,83,0.00,,---,0.00,VWS V14.01,2013-05-13 05:06:00,
2013-05-13 00:07:00,58.5,53.3,30.24,North,357,0.0,0.0,83,0.00,,---,0.00,VWS V14.01,2013-05-13 05:07:00,
2013-05-13 00:08:00,58.5,53.3,30.24,North,357,0.0,0.0,83,0.00,,---,0.00,VWS V14.01,2013-05-13 05:08:00,
2013-05-13 00:09:00,58.3,53.2,30.24,North,357,0.0,0.0,83,0.00,,---,0.00,VWS V14.01,2013-05-13 05:09:00,
2013-05-13 00:10:00,58.3,53.2,30.24,North,357,0.0,0.0,83,0.00,,---,0.00,VWS V14.01,2013-05-13 05:10:00,
2013-05-13 00:11:00,58.1,53.0,30.24,North,357,0.0,0.0,83,0.00,,---,0.00,VWS V14.01,2013-05-13 05:11:00,
2013-05-13 00:12:00,58.1,53.0,30.24,North,357,0.0,0.0,83,0.00,,---,0.00,VWS V14.01,2013-05-13 05:12:00,
2013-05-13 00:13:00,58.1,53.0,30.24,North,357,0.0,0.0,83,0.00,,---,0.00,VWS V14.01,2013-05-13 05:13:00,
2013-05-13 00:14:00,58.1,53.0,30.24,North,357,0.0,0.0,83,0.00,,---,0.00,VWS V14.01,2013-05-13 05:14:00,
2013-05-13 00:15:00,58.1,53.0,30.24,North,357,0.0,0.0,83,0.00,,---,0.00,VWS V14.01,2013-05-13 05:15:00,
2013-05-13 00:16:00,58.3,53.5,30.27,North,357,0.0,0.0,84,0.00,,---,0.00,VWS V14.01,2013-05-13 05:16:00,
2013-05-13 00:17:00,58.3,53.5,30.27,North,357,0.0,0.0,84,0.00,,---,0.00,VWS V14.01,2013-05-13 05:17:00,
2013-05-13 00:18:00,58.1,53.3,30.27,North,357,0.0,0.0,84,0.00,,---,0.00,VWS V14.01,2013-05-13 05:18:00,
2013-05-13 00:19:00,57.9,53.1,30.27,North,357,0.0,0.0,84,0.00,,---,0.00,VWS V14.01,2013-05-13 05:19:00,
2013-05-13 00:20:00,57.9,53.1,30.27,North,357,0.0,0.0,84,0.00,,---,0.00,VWS V14.01,2013-05-13 05:20:00,
2013-05-13 00:21:00,57.7,53.0,30.27,North,357,0.0,0.0,84,0.00,,---,0.00,VWS V14.01,2013-05-13 05:21:00,
2013-05-13 00:22:00,57.7,52.9,30.27,North,357,0.0,0.0,84,0.00,,---,0.00,VWS V14.01,2013-05-13 05:22:00,
2013-05-13 00:23:00,57.7,52.9,30.27,North,357,0.0,0.0,84,0.00,,---,0.00,VWS V14.01,2013-05-13 05:23:00,
2013-05-13 00:24:00,57.7,52.9,30.27,North,357,0.0,0.0,84,0.00,,---,0.00,VWS V14.01,2013-05-13 05:24:00,
2013-05-13 00:25:00,57.6,52.8,30.27,North,357,0.0,0.0,84,0.00,,---,0.00,VWS V14.01,2013-05-13 05:25:00,
2013-05-13 00:26:00,57.6,53.1,30.27,North,357,0.0,0.0,85,0.00,,---,0.00,VWS V14.01,2013-05-13 05:26:00,
2013-05-13 00:27:00,57.6,53.1,30.27,North,357,0.0,0.0,85,0.00,,---,0.00,VWS V14.01,2013-05-13 05:27:00,
2013-05-13 00:28:00,57.6,53.1,30.27,North,357,0.0,0.0,85,0.00,,---,0.00,VWS V14.01,2013-05-13 05:28:00,
2013-05-13 00:29:00,57.6,53.1,30.27,North,357,0.0,0.0,85,0.00,,---,0.00,VWS V14.01,2013-05-13 05:29:00,
2013-05-13 00:30:00,57.6,53.1,30.27,North,357,0.0,0.0,85,0.00,,---,0.00,VWS V14.01,2013-05-13 05:30:00,
2013-05-13 00:31:00,57.4,52.9,30.24,North,357,0.0,0.0,85,0.00,,---,0.00,VWS V14.01,2013-05-13 05:31:00,
2013-05-13 00:32:00,57.4,52.9,30.24,North,357,0.0,0.0,85,0.00,,---,0.00,VWS V14.01,2013-05-13 05:32:00,
2013-05-13 00:33:00,57.4,53.2,30.24,North,357,0.0,0.0,86,0.00,,---,0.00,VWS V14.01,2013-05-13 05:33:00,
2013-05-13 00:34:00,57.4,53.2,30.24,North,357,0.0,0.0,86,0.00,,---,0.00,VWS V14.01,2013-05-13 05:34:00,
2013-05-13 00:35:00,57.4,53.2,30.24,North,357,0.0,0.0,86,0.00,,---,0.00,VWS V14.01,2013-05-13 05:35:00,
2013-05-13 00:36:00,57.2,53.1,30.24,North,357,0.0,0.0,86,0.00,,---,0.00,VWS V14.01,2013-05-13 05:36:00,
2013-05-13 00:37:00,57.2,53.1,30.24,North,357,0.0,0.0,86,0.00,,---,0.00,VWS V14.01,2013-05-13 05:37:00,
2013-05-13 00:38:00,57.2,53.1,30.24,North,357,0.0,0.0,86,0.00,,---,0.00,VWS V14.01,2013-05-13 05:38:00,
2013-05-13 00:39:00,57.2,53.1,30.24,North,357,0.0,0.0,86,0.00,,---,0.00,VWS V14.01,2013-05-13 05:39:00,
2013-05-13 00:40:00,57.2,53.1,30.24,North,357,0.0,0.0,86,0.00,,---,0.00,VWS V14.01,2013-05-13 05:40:00,
2013-05-13 00:41:00,57.2,53.1,30.24,North,357,0.0,0.0,86,0.00,,---,0.00,VWS V14.01,2013-05-13 05:41:00,
2013-05-13 00:42:00,57.2,53.4,30.24,North,357,0.0,0.0,87,0.00,,---,0.00,VWS V14.01,2013-05-13 05:42:00,
2013-05-13 00:43:00,57.0,53.2,30.24,North,357,0.0,0.0,87,0.00,,---,0.00,VWS V14.01,2013-05-13 05:43:00,
2013-05-13 00:44:00,57.0,53.2,30.24,North,357,0.0,0.0,87,0.00,,---,0.00,VWS V14.01,2013-05-13 05:44:00,
2013-05-13 00:45:00,57.0,53.2,30.24,North,357,0.0,0.0,87,0.00,,---,0.00,VWS V14.01,2013-05-13 05:45:00,
2013-05-13 00:46:00,57.0,53.2,30.24,North,357,0.0,0.0,87,0.00,,---,0.00,VWS V14.01,2013-05-13 05:46:00,
2013-05-13 00:47:00,57.0,53.2,30.24,North,357,0.0,0.0,87,0.00,,---,0.00,VWS V14.01,2013-05-13 05:47:00,
2013-05-13 00:48:00,57.0,53.2,30.24,North,357,0.0,0.0,87,0.00,,---,0.00,VWS V14.01,2013-05-13 05:48:00,
2013-05-13 00:49:00,57.0,53.2,30.24,North,357,0.0,0.0,87,0.00,,---,0.00,VWS V14.01,2013-05-13 05:49:00,
2013-05-13 00:50:00,57.0,53.5,30.24,North,357,0.0,0.0,88,0.00,,---,0.00,VWS V14.01,2013-05-13 05:50:00,
2013-05-13 00:51:00,56.8,53.3,30.24,North,357,0.0,0.0,88,0.00,,---,0.00,VWS V14.01,2013-05-13 05:51:00,
2013-05-13 00:52:00,56.8,53.3,30.24,North,357,0.0,0.0,88,0.00,,---,0.00,VWS V14.01,2013-05-13 05:52:00,
2013-05-13 00:53:00,56.8,53.3,30.24,North,357,0.0,0.0,88,0.00,,---,0.00,VWS V14.01,2013-05-13 05:53:00,
2013-05-13 00:54:00,56.8,53.3,30.24,North,357,0.0,0.0,88,0.00,,---,0.00,VWS V14.01,2013-05-13 05:54:00,
2013-05-13 00:55:00,56.8,53.3,30.24,North,357,0.0,0.0,88,0.00,,---,0.00,VWS V14.01,2013-05-13 05:55:00,
2013-05-13 00:56:00,56.8,53.3,30.24,North,357,0.0,0.0,88,0.00,,---,0.00,VWS V14.01,2013-05-13 05:56:00,
2013-05-13 00:57:00,56.8,53.3,30.24,North,357,0.0,0.0,88,0.00,,---,0.00,VWS V14.01,2013-05-13 05:57:00,
2013-05-13 00:58:00,56.8,53.3,30.24,North,357,0.0,0.0,88,0.00,,---,0.00,VWS V14.01,2013-05-13 05:58:00,
2013-05-13 00:59:00,56.7,53.2,30.24,North,357,0.0,0.0,88,0.00,,---,0.00,VWS V14.01,2013-05-13 05:59:00,
2013-05-13 01:00:00,56.7,53.5,30.24,North,357,0.0,0.0,89,0.00,,---,0.00,VWS V14.01,2013-05-13 06:00:00,
2013-05-13 01:01:00,56.7,53.5,30.24,North,357,0.0,0.0,89,0.00,,---,0.00,VWS V14.01,2013-05-13 06:01:00,
2013-05-13 01:02:00,56.7,53.5,30.24,North,357,0.0,0.0,89,0.00,,---,0.00,VWS V14.01,2013-05-13 06:02:00,
2013-05-13 01:03:00,56.7,53.5,30.24,North,357,0.0,0.0,89,0.00,,---,0.00,VWS V14.01,2013-05-13 06:03:00,
2013-05-13 01:04:00,56.7,53.5,30.24,North,357,0.0,0.0,89,0.00,,---,0.00,VWS V14.01,2013-05-13 06:04:00,
2013-05-13 01:05:00,56.7,53.5,30.24,North,357,0.0,0.0,89,0.00,,---,0.00,VWS V14.01,2013-05-13 06:05:00,
2013-05-13 01:06:00,56.7,53.5,30.24,North,357,0.0,0.0,89,0.00,,---,0.00,VWS V14.01,2013-05-13 06:06:00,
2013-05-13 01:07:00,56.7,53.5,30.24,North,357,0.0,0.0,89,0.00,,---,0.00,VWS V14.01,2013-05-13 06:07:00,
2013-05-13 01:08:00,56.7,53.5,30.24,North,357,0.0,0.0,89,0.00,,---,0.00,VWS V14.01,2013-05-13 06:08:00,
2013-05-13 01:09:00,56.7,53.5,30.24,North,357,0.0,0.0,89,0.00,,---,0.00,VWS V14.01,2013-05-13 06:09:00,
2013-05-13 01:10:00,56.5,53.3,30.24,North,357,0.0,0.0,89,0.00,,---,0.00,VWS V14.01,2013-05-13 06:10:00,
2013-05-13 01:11:00,56.5,53.3,30.24,North,357,0.0,0.0,89,0.00,,---,0.00,VWS V14.01,2013-05-13 06:11:00,
2013-05-13 01:12:00,56.5,53.3,30.24,North,357,0.0,0.0,89,0.00,,---,0.00,VWS V14.01,2013-05-13 06:12:00,
2013-05-13 01:13:00,56.5,53.3,30.24,North,357,0.0,0.0,89,0.00,,---,0.00,VWS V14.01,2013-05-13 06:13:00,
2013-05-13 01:14:00,56.5,53.3,30.24,North,357,0.0,0.0,89,0.00,,---,0.00,VWS V14.01,2013-05-13 06:14:00,
2013-05-13 01:15:00,56.5,53.3,30.24,North,357,0.0,0.0,89,0.00,,---,0.00,VWS V14.01,2013-05-13 06:15:00,
2013-05-13 01:16:00,56.3,53.1,30.24,North,357,0.0,0.0,89,0.00,,---,0.00,VWS V14.01,2013-05-13 06:16:00,
2013-05-13 01:17:00,56.3,53.1,30.24,North,357,0.0,0.0,89,0.00,,---,0.00,VWS V14.01,2013-05-13 06:17:00,
2013-05-13 01:18:00,56.3,53.1,30.24,North,357,0.0,0.0,89,0.00,,---,0.00,VWS V14.01,2013-05-13 06:18:00,
2013-05-13 01:19:00,56.3,53.1,30.24,North,357,0.0,0.0,89,0.00,,---,0.00,VWS V14.01,2013-05-13 06:19:00,
2013-05-13 01:20:00,56.3,53.1,30.24,North,357,0.0,0.0,89,0.00,,---,0.00,VWS V14.01,2013-05-13 06:20:00,
2013-05-13 01:21:00,56.3,53.4,30.24,North,357,0.0,0.0,90,0.00,,---,0.00,VWS V14.01,2013-05-13 06:21:00,
2013-05-13 01:22:00,56.3,53.4,30.24,North,357,0.0,0.0,90,0.00,,---,0.00,VWS V14.01,2013-05-13 06:22:00,
2013-05-13 01:23:00,56.3,53.4,30.24,North,357,0.0,0.0,90,0.00,,---,0.00,VWS V14.01,2013-05-13 06:23:00,
2013-05-13 01:24:00,56.1,53.2,30.24,North,357,0.0,0.0,90,0.00,,---,0.00,VWS V14.01,2013-05-13 06:24:00,
2013-05-13 01:25:00,56.1,53.2,30.24,North,357,0.0,0.0,90,0.00,,---,0.00,VWS V14.01,2013-05-13 06:25:00,
2013-05-13 01:26:00,56.1,53.2,30.24,North,357,0.0,0.0,90,0.00,,---,0.00,VWS V14.01,2013-05-13 06:26:00,
2013-05-13 01:27:00,56.1,53.2,30.24,North,357,0.0,0.0,90,0.00,,---,0.00,VWS V14.01,2013-05-13 06:27:00,
2013-05-13 01:28:00,55.9,53.0,30.24,North,357,0.0,0.0,90,0.00,,---,0.00,VWS V14.01,2013-05-13 06:28:00,
2013-05-13 01:29:00,55.9,53.0,30.24,North,357,0.0,0.0,90,0.00,,---,0.00,VWS V14.01,2013-05-13 06:29:00,
2013-05-13 01:30:00,55.9,53.0,30.24,North,357,0.0,0.0,90,0.00,,---,0.00,VWS V14.01,2013-05-13 06:30:00,
2013-05-13 01:31:00,55.9,53.0,30.24,North,357,0.0,0.0,90,0.00,,---,0.00,VWS V14.01,2013-05-13 06:31:00,
2013-05-13 01:32:00,55.9,53.0,30.24,North,357,0.0,0.0,90,0.00,,---,0.00,VWS V14.01,2013-05-13 06:32:00,
2013-05-13 01:33:00,55.9,53.0,30.24,North,357,0.0,0.0,90,0.00,,---,0.00,VWS V14.01,2013-05-13 06:33:00,
2013-05-13 01:34:00,55.9,53.0,30.24,North,357,0.0,0.0,90,0.00,,---,0.00,VWS V14.01,2013-05-13 06:34:00,
2013-05-13 01:35:00,55.9,53.0,30.24,North,357,0.0,0.0,90,0.00,,---,0.00,VWS V14.01,2013-05-13 06:35:00,
2013-05-13 01:36:00,55.9,53.0,30.24,North,357,0.0,0.0,90,0.00,,---,0.00,VWS V14.01,2013-05-13 06:36:00,
2013-05-13 01:37:00,55.9,53.0,30.24,North,357,0.0,0.0,90,0.00,,---,0.00,VWS V14.01,2013-05-13 06:37:00,
2013-05-13 01:38:00,55.8,52.9,30.24,North,357,0.0,0.0,90,0.00,,---,0.00,VWS V14.01,2013-05-13 06:38:00,
2013-05-13 01:39:00,55.8,52.9,30.24,North,357,0.0,0.0,90,0.00,,---,0.00,VWS V14.01,2013-05-13 06:39:00,
2013-05-13 01:40:00,55.8,52.9,30.24,North,357,0.0,0.0,90,0.00,,---,0.00,VWS V14.01,2013-05-13 06:40:00,
2013-05-13 01:41:00,55.6,52.7,30.24,North,357,0.0,0.0,90,0.00,,---,0.00,VWS V14.01,2013-05-13 06:41:00,
2013-05-13 01:42:00,55.6,52.7,30.24,North,357,0.0,0.0,90,0.00,,---,0.00,VWS V14.01,2013-05-13 06:42:00,
2013-05-13 01:43:00,55.6,52.7,30.24,North,357,0.0,0.0,90,0.00,,---,0.00,VWS V14.01,2013-05-13 06:43:00,
2013-05-13 01:44:00,55.6,53.0,30.24,North,357,0.0,0.0,91,0.00,,---,0.00,VWS V14.01,2013-05-13 06:44:00,
2013-05-13 01:45:00,55.4,52.8,30.24,North,357,0.0,0.0,91,0.00,,---,0.00,VWS V14.01,2013-05-13 06:45:00,
2013-05-13 01:46:00,55.4,52.8,30.24,North,357,0.0,0.0,91,0.00,,---,0.00,VWS V14.01,2013-05-13 06:46:00,
2013-05-13 01:47:00,55.4,52.8,30.24,North,357,0.0,0.0,91,0.00,,---,0.00,VWS V14.01,2013-05-13 06:47:00,
2013-05-13 01:48:00,55.4,52.8,30.24,North,357,0.0,0.0,91,0.00,,---,0.00,VWS V14.01,2013-05-13 06:48:00,
2013-05-13 01:49:00,55.4,52.8,30.24,North,357,0.0,0.0,91,0.00,,---,0.00,VWS V14.01,2013-05-13 06:49:00,
2013-05-13 01:50:00,55.4,52.8,30.24,North,357,0.0,0.0,91,0.00,,---,0.00,VWS V14.01,2013-05-13 06:50:00,
2013-05-13 01:51:00,55.4,52.8,30.24,North,357,0.0,0.0,91,0.00,,---,0.00,VWS V14.01,2013-05-13 06:51:00,
2013-05-13 01:52:00,55.4,52.8,30.24,North,357,0.0,0.0,91,0.00,,---,0.00,VWS V14.01,2013-05-13 06:52:00,
2013-05-13 01:53:00,55.4,52.8,30.24,North,357,0.0,0.0,91,0.00,,---,0.00,VWS V14.01,2013-05-13 06:53:00,
2013-05-13 01:54:00,55.4,52.8,30.24,North,357,0.0,0.0,91,0.00,,---,0.00,VWS V14.01,2013-05-13 06:54:00,
2013-05-13 01:55:00,55.4,52.8,30.24,North,357,0.0,0.0,91,0.00,,---,0.00,VWS V14.01,2013-05-13 06:55:00,
2013-05-13 01:56:00,55.2,52.9,30.24,North,357,0.0,0.0,92,0.00,,---,0.00,VWS V14.01,2013-05-13 06:56:00,
2013-05-13 01:57:00,55.2,52.9,30.24,North,357,0.0,0.0,92,0.00,,---,0.00,VWS V14.01,2013-05-13 06:57:00,
2013-05-13 01:58:00,55.2,52.9,30.24,North,357,0.0,0.0,92,0.00,,---,0.00,VWS V14.01,2013-05-13 06:58:00,
2013-05-13 01:59:00,55.2,52.9,30.24,North,357,0.0,0.0,92,0.00,,---,0.00,VWS V14.01,2013-05-13 06:59:00,
2013-05-13 02:00:00,55.2,52.9,30.24,North,357,0.0,0.0,92,0.00,,---,0.00,VWS V14.01,2013-05-13 07:00:00,
2013-05-13 02:01:00,55.2,52.9,30.24,North,357,0.0,0.0,92,0.00,,---,0.00,VWS V14.01,2013-05-13 07:01:00,
2013-05-13 02:02:00,55.2,52.9,30.24,North,357,0.0,0.0,92,0.00,,---,0.00,VWS V14.01,2013-05-13 07:02:00,
2013-05-13 02:03:00,55.4,53.1,30.24,North,357,0.0,0.0,92,0.00,,---,0.00,VWS V14.01,2013-05-13 07:03:00,
2013-05-13 02:04:00,55.4,53.1,30.24,North,357,0.0,0.0,92,0.00,,---,0.00,VWS V14.01,2013-05-13 07:04:00,
2013-05-13 02:05:00,55.4,53.1,30.24,North,357,0.0,0.0,92,0.00,,---,0.00,VWS V14.01,2013-05-13 07:05:00,
2013-05-13 02:06:00,55.6,53.3,30.24,North,357,0.0,0.0,92,0.00,,---,0.00,VWS V14.01,2013-05-13 07:06:00,
2013-05-13 02:07:00,55.4,53.1,30.24,North,357,0.0,0.0,92,0.00,,---,0.00,VWS V14.01,2013-05-13 07:07:00,
2013-05-13 02:08:00,55.4,53.1,30.24,North,357,0.0,0.0,92,0.00,,---,0.00,VWS V14.01,2013-05-13 07:08:00,
2013-05-13 02:09:00,55.2,52.9,30.24,North,357,0.0,0.0,92,0.00,,---,0.00,VWS V14.01,2013-05-13 07:09:00,
2013-05-13 02:10:00,55.0,52.8,30.24,North,357,0.0,0.0,92,0.00,,---,0.00,VWS V14.01,2013-05-13 07:10:00,
2013-05-13 02:11:00,54.9,52.6,30.24,North,357,0.0,0.0,92,0.00,,---,0.00,VWS V14.01,2013-05-13 07:11:00,
2013-05-13 02:12:00,54.9,52.6,30.24,North,357,0.0,0.0,92,0.00,,---,0.00,VWS V14.01,2013-05-13 07:12:00,
2013-05-13 02:13:00,54.9,52.6,30.24,North,357,0.0,0.0,92,0.00,,---,0.00,VWS V14.01,2013-05-13 07:13:00,
2013-05-13 02:14:00,54.7,52.4,30.24,North,357,0.0,0.0,92,0.00,,---,0.00,VWS V14.01,2013-05-13 07:14:00,
2013-05-13 02:15:00,54.7,52.4,30.24,North,357,0.0,0.0,92,0.00,,---,0.00,VWS V14.01,2013-05-13 07:15:00,
2013-05-13 02:16:00,54.5,52.2,30.24,North,357,0.0,0.0,92,0.00,,---,0.00,VWS V14.01,2013-05-13 07:16:00,
2013-05-13 02:17:00,54.5,52.2,30.24,North,357,0.0,0.0,92,0.00,,---,0.00,VWS V14.01,2013-05-13 07:17:00,
2013-05-13 02:18:00,54.5,52.5,30.24,North,357,0.0,0.0,93,0.00,,---,0.00,VWS V14.01,2013-05-13 07:18:00,
2013-05-13 02:19:00,54.7,52.7,30.24,North,357,0.0,0.0,93,0.00,,---,0.00,VWS V14.01,2013-05-13 07:19:00,
2013-05-13 02:20:00,54.7,52.7,30.24,North,357,0.0,0.0,93,0.00,,---,0.00,VWS V14.01,2013-05-13 07:20:00,
2013-05-13 02:21:00,54.7,52.7,30.24,North,357,0.0,0.0,93,0.00,,---,0.00,VWS V14.01,2013-05-13 07:21:00,
2013-05-13 02:22:00,54.9,52.9,30.24,North,357,0.0,0.0,93,0.00,,---,0.00,VWS V14.01,2013-05-13 07:22:00,
2013-05-13 02:23:00,54.7,52.7,30.24,North,357,0.0,0.0,93,0.00,,---,0.00,VWS V14.01,2013-05-13 07:23:00,
2013-05-13 02:24:00,54.7,52.7,30.24,North,357,0.0,0.0,93,0.00,,---,0.00,VWS V14.01,2013-05-13 07:24:00,
2013-05-13 02:25:00,54.5,52.5,30.24,North,357,0.0,0.0,93,0.00,,---,0.00,VWS V14.01,2013-05-13 07:25:00,
2013-05-13 02:26:00,54.5,52.5,30.24,North,357,0.0,0.0,93,0.00,,---,0.00,VWS V14.01,2013-05-13 07:26:00,
2013-05-13 02:27:00,54.5,52.5,30.24,North,357,0.0,0.0,93,0.00,,---,0.00,VWS V14.01,2013-05-13 07:27:00,
2013-05-13 02:28:00,54.3,52.3,30.24,North,357,0.0,0.0,93,0.00,,---,0.00,VWS V14.01,2013-05-13 07:28:00,
2013-05-13 02:29:00,54.3,52.3,30.24,North,357,0.0,0.0,93,0.00,,---,0.00,VWS V14.01,2013-05-13 07:29:00,
2013-05-13 02:30:00,54.1,52.2,30.24,North,357,0.0,0.0,93,0.00,,---,0.00,VWS V14.01,2013-05-13 07:30:00,
2013-05-13 02:31:00,54.0,52.0,30.24,North,357,0.0,0.0,93,0.00,,---,0.00,VWS V14.01,2013-05-13 07:31:00,
2013-05-13 02:32:00,54.0,52.0,30.24,North,357,0.0,0.0,93,0.00,,---,0.00,VWS V14.01,2013-05-13 07:32:00,
2013-05-13 02:33:00,54.0,52.0,30.24,North,357,0.0,0.0,93,0.00,,---,0.00,VWS V14.01,2013-05-13 07:33:00,
2013-05-13 02:34:00,53.8,51.8,30.24,North,357,0.0,0.0,93,0.00,,---,0.00,VWS V14.01,2013-05-13 07:34:00,
2013-05-13 02:35:00,53.8,51.8,30.24,North,357,0.0,0.0,93,0.00,,---,0.00,VWS V14.01,2013-05-13 07:35:00,
2013-05-13 02:36:00,53.8,51.8,30.24,North,357,0.0,0.0,93,0.00,,---,0.00,VWS V14.01,2013-05-13 07:36:00,
2013-05-13 02:37:00,53.8,51.8,30.24,North,357,0.0,0.0,93,0.00,,---,0.00,VWS V14.01,2013-05-13 07:37:00,
2013-05-13 02:38:00,53.8,51.8,30.24,North,357,0.0,0.0,93,0.00,,---,0.00,VWS V14.01,2013-05-13 07:38:00,
2013-05-13 02:39:00,53.6,51.6,30.24,North,357,0.0,0.0,93,0.00,,---,0.00,VWS V14.01,2013-05-13 07:39:00,
2013-05-13 02:40:00,53.6,51.6,30.24,North,357,0.0,0.0,93,0.00,,---,0.00,VWS V14.01,2013-05-13 07:40:00,
2013-05-13 02:41:00,53.6,51.6,30.24,North,357,0.0,0.0,93,0.00,,---,0.00,VWS V14.01,2013-05-13 07:41:00,
2013-05-13 02:42:00,53.6,51.6,30.24,North,357,0.0,0.0,93,0.00,,---,0.00,VWS V14.01,2013-05-13 07:42:00,
2013-05-13 02:43:00,53.6,51.9,30.24,North,357,0.0,0.0,94,0.00,,---,0.00,VWS V14.01,2013-05-13 07:43:00,
2013-05-13 02:44:00,53.6,51.9,30.24,North,357,0.0,0.0,94,0.00,,---,0.00,VWS V14.01,2013-05-13 07:44:00,
2013-05-13 02:45:00,53.6,51.9,30.24,North,357,0.0,0.0,94,0.00,,---,0.00,VWS V14.01,2013-05-13 07:45:00,
2013-05-13 02:46:00,53.4,51.7,30.24,North,357,0.0,0.0,94,0.00,,---,0.00,VWS V14.01,2013-05-13 07:46:00,
2013-05-13 02:47:00,53.4,51.7,30.24,North,357,0.0,0.0,94,0.00,,---,0.00,VWS V14.01,2013-05-13 07:47:00,
2013-05-13 02:48:00,53.4,51.7,30.24,North,357,0.0,0.0,94,0.00,,---,0.00,VWS V14.01,2013-05-13 07:48:00,
2013-05-13 02:49:00,53.4,51.7,30.24,North,357,0.0,0.0,94,0.00,,---,0.00,VWS V14.01,2013-05-13 07:49:00,
2013-05-13 02:50:00,53.2,51.6,30.24,North,357,0.0,0.0,94,0.00,,---,0.00,VWS V14.01,2013-05-13 07:50:00,
2013-05-13 02:51:00,53.2,51.6,30.24,North,357,0.0,0.0,94,0.00,,---,0.00,VWS V14.01,2013-05-13 07:51:00,
2013-05-13 02:52:00,53.2,51.6,30.24,North,357,0.0,0.0,94,0.00,,---,0.00,VWS V14.01,2013-05-13 07:52:00,
2013-05-13 02:53:00,53.2,51.6,30.24,North,357,0.0,0.0,94,0.00,,---,0.00,VWS V14.01,2013-05-13 07:53:00,
2013-05-13 02:54:00,53.2,51.6,30.24,North,357,0.0,0.0,94,0.00,,---,0.00,VWS V14.01,2013-05-13 07:54:00,
2013-05-13 02:55:00,53.1,51.4,30.24,North,357,0.0,0.0,94,0.00,,---,0.00,VWS V14.01,2013-05-13 07:55:00,
2013-05-13 02:56:00,53.1,51.4,30.24,North,357,0.0,0.0,94,0.00,,---,0.00,VWS V14.01,2013-05-13 07:56:00,
2013-05-13 02:57:00,53.2,51.6,30.24,North,357,0.0,0.0,94,0.00,,---,0.00,VWS V14.01,2013-05-13 07:57:00,
2013-05-13 02:58:00,53.2,51.6,30.24,North,357,0.0,0.0,94,0.00,,---,0.00,VWS V14.01,2013-05-13 07:58:00,
2013-05-13 02:59:00,53.4,52.0,30.24,North,357,0.0,0.0,95,0.00,,---,0.00,VWS V14.01,2013-05-13 07:59:00,
2013-05-13 03:00:00,53.6,51.9,30.24,North,357,0.0,0.0,94,0.00,,---,0.00,VWS V14.01,2013-05-13 08:00:00,
2013-05-13 03:01:00,53.4,52.0,30.24,North,357,0.0,0.0,95,0.00,,---,0.00,VWS V14.01,2013-05-13 08:01:00,
2013-05-13 03:02:00,53.4,52.0,30.24,North,357,0.0,0.0,95,0.00,,---,0.00,VWS V14.01,2013-05-13 08:02:00,
2013-05-13 03:03:00,53.4,52.0,30.24,North,357,0.0,0.0,95,0.00,,---,0.00,VWS V14.01,2013-05-13 08:03:00,
2013-05-13 03:04:00,53.4,52.0,30.24,North,357,0.0,0.0,95,0.00,,---,0.00,VWS V14.01,2013-05-13 08:04:00,
2013-05-13 03:05:00,53.4,52.0,30.24,North,357,0.0,0.0,95,0.00,,---,0.00,VWS V14.01,2013-05-13 08:05:00,
2013-05-13 03:06:00,53.4,52.0,30.24,North,357,0.0,0.0,95,0.00,,---,0.00,VWS V14.01,2013-05-13 08:06:00,
2013-05-13 03:07:00,53.4,52.0,30.24,North,357,0.0,0.0,95,0.00,,---,0.00,VWS V14.01,2013-05-13 08:07:00,
2013-05-13 03:08:00,53.4,52.0,30.24,North,357,0.0,0.0,95,0.00,,---,0.00,VWS V14.01,2013-05-13 08:08:00,
2013-05-13 03:09:00,53.2,51.8,30.24,North,357,0.0,0.0,95,0.00,,---,0.00,VWS V14.01,2013-05-13 08:09:00,
2013-05-13 03:10:00,53.1,51.7,30.24,North,357,0.0,0.0,95,0.00,,---,0.00,VWS V14.01,2013-05-13 08:10:00,
2013-05-13 03:11:00,53.1,51.7,30.24,North,357,0.0,0.0,95,0.00,,---,0.00,VWS V14.01,2013-05-13 08:11:00,
2013-05-13 03:12:00,53.1,51.7,30.24,North,357,0.0,0.0,95,0.00,,---,0.00,VWS V14.01,2013-05-13 08:12:00,
2013-05-13 03:13:00,52.9,51.5,30.24,North,357,0.0,0.0,95,0.00,,---,0.00,VWS V14.01,2013-05-13 08:13:00,
2013-05-13 03:14:00,52.9,51.5,30.24,North,357,0.0,0.0,95,0.00,,---,0.00,VWS V14.01,2013-05-13 08:14:00,
2013-05-13 03:15:00,52.9,51.5,30.24,North,357,0.0,0.0,95,0.00,,---,0.00,VWS V14.01,2013-05-13 08:15:00,
2013-05-13 03:16:00,52.7,51.3,30.24,North,357,0.0,0.0,95,0.00,,---,0.00,VWS V14.01,2013-05-13 08:16:00,
2013-05-13 03:17:00,52.7,51.3,30.24,North,357,0.0,0.0,95,0.00,,---,0.00,VWS V14.01,2013-05-13 08:17:00,
2013-05-13 03:18:00,52.7,51.3,30.24,North,357,0.0,0.0,95,0.00,,---,0.00,VWS V14.01,2013-05-13 08:18:00,
2013-05-13 03:19:00,52.7,51.3,30.24,North,357,0.0,0.0,95,0.00,,---,0.00,VWS V14.01,2013-05-13 08:19:00,
2013-05-13 03:20:00,52.5,51.1,30.24,North,357,0.0,0.0,95,0.00,,---,0.00,VWS V14.01,2013-05-13 08:20:00,
2013-05-13 03:21:00,52.5,51.1,30.24,North,357,0.0,0.0,95,0.00,,---,0.00,VWS V14.01,2013-05-13 08:21:00,
2013-05-13 03:22:00,52.5,51.1,30.24,North,357,0.0,0.0,95,0.00,,---,0.00,VWS V14.01,2013-05-13 08:22:00,
2013-05-13 03:23:00,52.7,51.3,30.24,North,357,0.0,0.0,95,0.00,,---,0.00,VWS V14.01,2013-05-13 08:23:00,
2013-05-13 03:24:00,52.9,51.5,30.24,North,357,0.0,0.0,95,0.00,,---,0.00,VWS V14.01,2013-05-13 08:24:00,
2013-05-13 03:25:00,52.7,51.3,30.24,North,357,0.0,0.0,95,0.00,,---,0.00,VWS V14.01,2013-05-13 08:25:00,
2013-05-13 03:26:00,52.9,51.5,30.24,North,357,0.0,0.0,95,0.00,,---,0.00,VWS V14.01,2013-05-13 08:26:00,
2013-05-13 03:27:00,52.7,51.3,30.24,North,357,0.0,0.0,95,0.00,,---,0.00,VWS V14.01,2013-05-13 08:27:00,
2013-05-13 03:28:00,52.7,51.3,30.24,North,357,0.0,0.0,95,0.00,,---,0.00,VWS V14.01,2013-05-13 08:28:00,
2013-05-13 03:29:00,52.7,51.3,30.24,North,357,0.0,0.0,95,0.00,,---,0.00,VWS V14.01,2013-05-13 08:29:00,
2013-05-13 03:30:00,52.7,51.3,30.24,North,357,0.0,0.0,95,0.00,,---,0.00,VWS V14.01,2013-05-13 08:30:00,
2013-05-13 03:31:00,52.5,51.1,30.24,North,357,0.0,0.0,95,0.00,,---,0.00,VWS V14.01,2013-05-13 08:31:00,
2013-05-13 03:32:00,52.5,51.1,30.24,North,357,0.0,0.0,95,0.00,,---,0.00,VWS V14.01,2013-05-13 08:32:00,
2013-05-13 03:33:00,52.5,51.1,30.24,North,357,0.0,0.0,95,0.00,,---,0.00,VWS V14.01,2013-05-13 08:33:00,
2013-05-13 03:34:00,52.3,51.0,30.24,North,357,0.0,0.0,95,0.00,,---,0.00,VWS V14.01,2013-05-13 08:34:00,
2013-05-13 03:35:00,52.3,51.0,30.24,North,357,0.0,0.0,95,0.00,,---,0.00,VWS V14.01,2013-05-13 08:35:00,
2013-05-13 03:36:00,52.3,51.0,30.24,North,357,0.0,0.0,95,0.00,,---,0.00,VWS V14.01,2013-05-13 08:36:00,
2013-05-13 03:37:00,52.3,51.0,30.24,North,357,0.0,0.0,95,0.00,,---,0.00,VWS V14.01,2013-05-13 08:37:00,
2013-05-13 03:38:00,52.2,51.1,30.24,North,357,0.0,0.0,96,0.00,,---,0.00,VWS V14.01,2013-05-13 08:38:00,
2013-05-13 03:39:00,52.2,51.1,30.24,North,357,0.0,0.0,96,0.00,,---,0.00,VWS V14.01,2013-05-13 08:39:00,
2013-05-13 03:40:00,52.2,51.1,30.24,North,357,0.0,0.0,96,0.00,,---,0.00,VWS V14.01,2013-05-13 08:40:00,
2013-05-13 03:41:00,52.2,51.1,30.24,North,357,0.0,0.0,96,0.00,,---,0.00,VWS V14.01,2013-05-13 08:41:00,
2013-05-13 03:42:00,52.2,51.1,30.24,North,357,0.0,0.0,96,0.00,,---,0.00,VWS V14.01,2013-05-13 08:42:00,
2013-05-13 03:43:00,52.2,51.1,30.24,North,357,0.0,0.0,96,0.00,,---,0.00,VWS V14.01,2013-05-13 08:43:00,
2013-05-13 03:44:00,52.2,51.1,30.24,North,357,0.0,0.0,96,0.00,,---,0.00,VWS V14.01,2013-05-13 08:44:00,
2013-05-13 03:45:00,52.2,51.1,30.24,North,357,0.0,0.0,96,0.00,,---,0.00,VWS V14.01,2013-05-13 08:45:00,
2013-05-13 03:46:00,52.0,50.9,30.27,North,357,0.0,0.0,96,0.00,,---,0.00,VWS V14.01,2013-05-13 08:46:00,
2013-05-13 03:47:00,52.0,50.9,30.27,North,357,0.0,0.0,96,0.00,,---,0.00,VWS V14.01,2013-05-13 08:47:00,
2013-05-13 03:48:00,52.0,50.9,30.27,North,357,0.0,0.0,96,0.00,,---,0.00,VWS V14.01,2013-05-13 08:48:00,
2013-05-13 03:49:00,52.3,51.2,30.27,North,357,0.0,0.0,96,0.00,,---,0.00,VWS V14.01,2013-05-13 08:49:00,
2013-05-13 03:50:00,52.3,51.2,30.27,North,357,0.0,0.0,96,0.00,,---,0.00,VWS V14.01,2013-05-13 08:50:00,
2013-05-13 03:51:00,52.3,51.2,30.27,North,357,0.0,0.0,96,0.00,,---,0.00,VWS V14.01,2013-05-13 08:51:00,
2013-05-13 03:52:00,52.3,51.2,30.27,North,357,0.0,0.0,96,0.00,,---,0.00,VWS V14.01,2013-05-13 08:52:00,
2013-05-13 03:53:00,52.3,51.2,30.27,North,357,0.0,0.0,96,0.00,,---,0.00,VWS V14.01,2013-05-13 08:53:00,
2013-05-13 03:54:00,52.3,51.2,30.27,North,357,0.0,0.0,96,0.00,,---,0.00,VWS V14.01,2013-05-13 08:54:00,
2013-05-13 03:55:00,52.2,51.1,30.27,North,357,0.0,0.0,96,0.00,,---,0.00,VWS V14.01,2013-05-13 08:55:00,
2013-05-13 03:56:00,52.2,51.1,30.27,North,357,0.0,0.0,96,0.00,,---,0.00,VWS V14.01,2013-05-13 08:56:00,
2013-05-13 03:57:00,52.0,50.9,30.27,North,357,0.0,0.0,96,0.00,,---,0.00,VWS V14.01,2013-05-13 08:57:00,
2013-05-13 03:58:00,52.0,50.9,30.27,North,357,0.0,0.0,96,0.00,,---,0.00,VWS V14.01,2013-05-13 08:58:00,
2013-05-13 03:59:00,52.0,50.9,30.27,North,357,0.0,0.0,96,0.00,,---,0.00,VWS V14.01,2013-05-13 08:59:00,
2013-05-13 04:00:00,52.0,50.9,30.27,North,357,0.0,0.0,96,0.00,,---,0.00,VWS V14.01,2013-05-13 09:00:00,
2013-05-13 04:01:00,52.0,50.9,30.27,North,357,0.0,0.0,96,0.00,,---,0.00,VWS V14.01,2013-05-13 09:01:00,
2013-05-13 04:02:00,52.0,50.9,30.27,North,357,0.0,0.0,96,0.00,,---,0.00,VWS V14.01,2013-05-13 09:02:00,
2013-05-13 04:03:00,52.2,51.1,30.27,North,357,0.0,0.0,96,0.00,,---,0.00,VWS V14.01,2013-05-13 09:03:00,
2013-05-13 04:04:00,52.0,50.9,30.27,North,357,0.0,0.0,96,0.00,,---,0.00,VWS V14.01,2013-05-13 09:04:00,
2013-05-13 04:05:00,52.0,50.9,30.27,North,357,0.0,0.0,96,0.00,,---,0.00,VWS V14.01,2013-05-13 09:05:00,
2013-05-13 04:06:00,52.2,51.1,30.27,North,357,0.0,0.0,96,0.00,,---,0.00,VWS V14.01,2013-05-13 09:06:00,
2013-05-13 04:07:00,52.2,51.1,30.27,North,357,0.0,0.0,96,0.00,,---,0.00,VWS V14.01,2013-05-13 09:07:00,
2013-05-13 04:08:00,52.0,50.9,30.27,North,357,0.0,0.0,96,0.00,,---,0.00,VWS V14.01,2013-05-13 09:08:00,
2013-05-13 04:09:00,52.0,50.9,30.27,North,357,0.0,0.0,96,0.00,,---,0.00,VWS V14.01,2013-05-13 09:09:00,
2013-05-13 04:10:00,52.0,50.9,30.27,North,357,0.0,0.0,96,0.00,,---,0.00,VWS V14.01,2013-05-13 09:10:00,
2013-05-13 04:11:00,52.2,51.1,30.27,North,357,0.0,0.0,96,0.00,,---,0.00,VWS V14.01,2013-05-13 09:11:00,
2013-05-13 04:12:00,52.3,51.2,30.27,North,357,0.0,0.0,96,0.00,,---,0.00,VWS V14.01,2013-05-13 09:12:00,
2013-05-13 04:13:00,52.3,51.2,30.27,North,357,0.0,0.0,96,0.00,,---,0.00,VWS V14.01,2013-05-13 09:13:00,
2013-05-13 04:14:00,52.3,51.2,30.27,North,357,0.0,0.0,96,0.00,,---,0.00,VWS V14.01,2013-05-13 09:14:00,
2013-05-13 04:15:00,52.2,51.1,30.27,North,357,0.0,0.0,96,0.00,,---,0.00,VWS V14.01,2013-05-13 09:15:00,
2013-05-13 04:16:00,52.2,51.3,30.27,North,357,0.0,0.0,97,0.00,,---,0.00,VWS V14.01,2013-05-13 09:16:00,
2013-05-13 04:17:00,52.2,51.1,30.27,North,357,0.0,0.0,96,0.00,,---,0.00,VWS V14.01,2013-05-13 09:17:00,
2013-05-13 04:18:00,52.2,51.1,30.27,North,357,0.0,0.0,96,0.00,,---,0.00,VWS V14.01,2013-05-13 09:18:00,
2013-05-13 04:19:00,52.2,51.3,30.27,North,357,0.0,0.0,97,0.00,,---,0.00,VWS V14.01,2013-05-13 09:19:00,
2013-05-13 04:20:00,52.2,51.3,30.27,North,357,0.0,0.0,97,0.00,,---,0.00,VWS V14.01,2013-05-13 09:20:00,
2013-05-13 04:21:00,52.2,51.3,30.27,North,357,0.0,0.0,97,0.00,,---,0.00,VWS V14.01,2013-05-13 09:21:00,
2013-05-13 04:22:00,52.2,51.3,30.27,North,357,0.0,0.0,97,0.00,,---,0.00,VWS V14.01,2013-05-13 09:22:00,
2013-05-13 04:23:00,52.2,51.3,30.27,North,357,0.0,0.0,97,0.00,,---,0.00,VWS V14.01,2013-05-13 09:23:00,
2013-05-13 04:24:00,52.3,51.5,30.27,North,357,0.0,0.0,97,0.00,,---,0.00,VWS V14.01,2013-05-13 09:24:00,
2013-05-13 04:25:00,52.3,51.5,30.27,North,357,0.0,0.0,97,0.00,,---,0.00,VWS V14.01,2013-05-13 09:25:00,
2013-05-13 04:26:00,52.3,51.5,30.27,North,357,0.0,0.0,97,0.00,,---,0.00,VWS V14.01,2013-05-13 09:26:00,
2013-05-13 04:27:00,52.3,51.5,30.27,North,357,0.0,0.0,97,0.00,,---,0.00,VWS V14.01,2013-05-13 09:27:00,
2013-05-13 04:28:00,52.2,51.3,30.27,North,357,0.0,0.0,97,0.00,,---,0.00,VWS V14.01,2013-05-13 09:28:00,
2013-05-13 04:29:00,52.2,51.3,30.27,North,357,0.0,0.0,97,0.00,,---,0.00,VWS V14.01,2013-05-13 09:29:00,
2013-05-13 04:30:00,52.2,51.3,30.27,North,357,0.0,0.0,97,0.00,,---,0.00,VWS V14.01,2013-05-13 09:30:00,
2013-05-13 04:31:00,52.3,51.5,30.27,North,357,0.0,0.0,97,0.00,,---,0.00,VWS V14.01,2013-05-13 09:31:00,
2013-05-13 04:32:00,52.3,51.5,30.27,North,357,0.0,0.0,97,0.00,,---,0.00,VWS V14.01,2013-05-13 09:32:00,
2013-05-13 04:33:00,52.3,51.5,30.27,North,357,0.0,0.0,97,0.00,,---,0.00,VWS V14.01,2013-05-13 09:33:00,
2013-05-13 04:34:00,52.3,51.5,30.27,North,357,0.0,0.0,97,0.00,,---,0.00,VWS V14.01,2013-05-13 09:34:00,
2013-05-13 04:35:00,52.3,51.5,30.27,North,357,0.0,0.0,97,0.00,,---,0.00,VWS V14.01,2013-05-13 09:35:00,
2013-05-13 04:36:00,52.5,51.7,30.27,North,357,0.0,0.0,97,0.00,,---,0.00,VWS V14.01,2013-05-13 09:36:00,
2013-05-13 04:37:00,52.5,51.7,30.27,North,357,0.0,0.0,97,0.00,,---,0.00,VWS V14.01,2013-05-13 09:37:00,
2013-05-13 04:38:00,52.5,51.7,30.27,North,357,0.0,0.0,97,0.00,,---,0.00,VWS V14.01,2013-05-13 09:38:00,
2013-05-13 04:39:00,52.7,51.9,30.27,North,357,0.0,0.0,97,0.00,,---,0.00,VWS V14.01,2013-05-13 09:39:00,
2013-05-13 04:40:00,52.5,51.7,30.27,North,357,0.0,0.0,97,0.00,,---,0.00,VWS V14.01,2013-05-13 09:40:00,
2013-05-13 04:41:00,52.3,51.5,30.27,North,357,0.0,0.0,97,0.00,,---,0.00,VWS V14.01,2013-05-13 09:41:00,
2013-05-13 04:42:00,52.3,51.5,30.27,North,357,0.0,0.0,97,0.00,,---,0.00,VWS V14.01,2013-05-13 09:42:00,
2013-05-13 04:43:00,52.2,51.3,30.27,North,357,0.0,0.0,97,0.00,,---,0.00,VWS V14.01,2013-05-13 09:43:00,
2013-05-13 04:44:00,52.2,51.3,30.27,North,357,0.0,0.0,97,0.00,,---,0.00,VWS V14.01,2013-05-13 09:44:00,
2013-05-13 04:45:00,52.2,51.3,30.27,North,357,0.0,0.0,97,0.00,,---,0.00,VWS V14.01,2013-05-13 09:45:00,
2013-05-13 04:46:00,52.0,51.2,30.27,North,357,0.0,0.0,97,0.00,,---,0.00,VWS V14.01,2013-05-13 09:46:00,
2013-05-13 04:47:00,52.0,51.2,30.27,North,357,0.0,0.0,97,0.00,,---,0.00,VWS V14.01,2013-05-13 09:47:00,
2013-05-13 04:48:00,52.0,51.2,30.27,North,357,0.0,0.0,97,0.00,,---,0.00,VWS V14.01,2013-05-13 09:48:00,
2013-05-13 04:49:00,52.2,51.3,30.27,North,357,0.0,0.0,97,0.00,,---,0.00,VWS V14.01,2013-05-13 09:49:00,
2013-05-13 04:50:00,52.2,51.3,30.27,North,357,0.0,0.0,97,0.00,,---,0.00,VWS V14.01,2013-05-13 09:50:00,
2013-05-13 04:51:00,52.0,51.2,30.27,North,357,0.0,0.0,97,0.00,,---,0.00,VWS V14.01,2013-05-13 09:51:00,
2013-05-13 04:52:00,52.0,51.2,30.27,North,357,0.0,0.0,97,0.00,,---,0.00,VWS V14.01,2013-05-13 09:52:00,
2013-05-13 04:53:00,52.0,51.2,30.27,North,357,0.0,0.0,97,0.00,,---,0.00,VWS V14.01,2013-05-13 09:53:00,
2013-05-13 04:54:00,52.0,51.2,30.27,North,357,0.0,0.0,97,0.00,,---,0.00,VWS V14.01,2013-05-13 09:54:00,
2013-05-13 04:55:00,52.0,51.2,30.27,North,357,0.0,0.0,97,0.00,,---,0.00,VWS V14.01,2013-05-13 09:55:00,
2013-05-13 04:56:00,51.8,51.0,30.27,North,357,0.0,0.0,97,0.00,,---,0.00,VWS V14.01,2013-05-13 09:56:00,
2013-05-13 04:57:00,51.8,51.0,30.27,North,357,0.0,0.0,97,0.00,,---,0.00,VWS V14.01,2013-05-13 09:57:00,
2013-05-13 04:58:00,51.8,51.0,30.27,North,357,0.0,0.0,97,0.00,,---,0.00,VWS V14.01,2013-05-13 09:58:00,
2013-05-13 04:59:00,51.8,51.0,30.27,North,357,0.0,0.0,97,0.00,,---,0.00,VWS V14.01,2013-05-13 09:59:00,
2013-05-13 05:00:00,51.8,51.0,30.27,North,357,0.0,0.0,97,0.00,,---,0.00,VWS V14.01,2013-05-13 10:00:00,
2013-05-13 05:01:00,51.6,50.8,30.27,North,357,0.0,0.0,97,0.00,,---,0.00,VWS V14.01,2013-05-13 10:01:00,
2013-05-13 05:02:00,51.6,50.8,30.27,North,357,0.0,0.0,97,0.00,,---,0.00,VWS V14.01,2013-05-13 10:02:00,
2013-05-13 05:03:00,51.8,51.0,30.27,North,357,0.0,0.0,97,0.00,,---,0.00,VWS V14.01,2013-05-13 10:03:00,
2013-05-13 05:04:00,51.8,51.0,30.27,North,357,0.0,0.0,97,0.00,,---,0.00,VWS V14.01,2013-05-13 10:04:00,
2013-05-13 05:05:00,51.8,51.0,30.27,North,357,0.0,0.0,97,0.00,,---,0.00,VWS V14.01,2013-05-13 10:05:00,
2013-05-13 05:06:00,51.8,51.0,30.27,North,357,0.0,0.0,97,0.00,,---,0.00,VWS V14.01,2013-05-13 10:06:00,
2013-05-13 05:07:00,51.6,51.1,30.27,North,357,0.0,0.0,98,0.00,,---,0.00,VWS V14.01,2013-05-13 10:07:00,
2013-05-13 05:08:00,51.6,51.1,30.27,North,357,0.0,0.0,98,0.00,,---,0.00,VWS V14.01,2013-05-13 10:08:00,
2013-05-13 05:09:00,51.6,50.8,30.27,North,357,0.0,0.0,97,0.00,,---,0.00,VWS V14.01,2013-05-13 10:09:00,
2013-05-13 05:10:00,51.6,50.8,30.27,North,357,0.0,0.0,97,0.00,,---,0.00,VWS V14.01,2013-05-13 10:10:00,
2013-05-13 05:11:00,51.6,51.1,30.27,North,357,0.0,0.0,98,0.00,,---,0.00,VWS V14.01,2013-05-13 10:11:00,
2013-05-13 05:12:00,51.6,51.1,30.27,North,357,0.0,0.0,98,0.00,,---,0.00,VWS V14.01,2013-05-13 10:12:00,
2013-05-13 05:13:00,51.6,51.1,30.27,North,357,0.0,0.0,98,0.00,,---,0.00,VWS V14.01,2013-05-13 10:13:00,
2013-05-13 05:14:00,51.6,51.1,30.27,North,357,0.0,0.0,98,0.00,,---,0.00,VWS V14.01,2013-05-13 10:14:00,
2013-05-13 05:15:00,51.4,50.9,30.27,North,357,0.0,0.0,98,0.00,,---,0.00,VWS V14.01,2013-05-13 10:15:00,
2013-05-13 05:16:00,51.4,50.9,30.27,North,357,0.0,0.0,98,0.00,,---,0.00,VWS V14.01,2013-05-13 10:16:00,
2013-05-13 05:17:00,51.4,50.9,30.27,North,357,0.0,0.0,98,0.00,,---,0.00,VWS V14.01,2013-05-13 10:17:00,
2013-05-13 05:18:00,51.6,51.1,30.27,North,357,0.0,0.0,98,0.00,,---,0.00,VWS V14.01,2013-05-13 10:18:00,
2013-05-13 05:19:00,51.4,50.9,30.27,North,357,0.0,0.0,98,0.00,,---,0.00,VWS V14.01,2013-05-13 10:19:00,
2013-05-13 05:20:00,51.6,51.1,30.27,North,357,0.0,0.0,98,0.00,,---,0.00,VWS V14.01,2013-05-13 10:20:00,
2013-05-13 05:21:00,51.6,51.1,30.27,North,357,0.0,0.0,98,0.00,,---,0.00,VWS V14.01,2013-05-13 10:21:00,
2013-05-13 05:22:00,51.6,51.1,30.27,North,357,0.0,0.0,98,0.00,,---,0.00,VWS V14.01,2013-05-13 10:22:00,
2013-05-13 05:23:00,51.6,51.1,30.27,North,357,0.0,0.0,98,0.00,,---,0.00,VWS V14.01,2013-05-13 10:23:00,
2013-05-13 05:24:00,51.8,51.0,30.27,North,357,0.0,0.0,97,0.00,,---,0.00,VWS V14.01,2013-05-13 10:24:00,
2013-05-13 05:25:00,51.8,51.0,30.27,North,357,0.0,0.0,97,0.00,,---,0.00,VWS V14.01,2013-05-13 10:25:00,
2013-05-13 05:26:00,51.6,51.1,30.27,North,357,0.0,0.0,98,0.00,,---,0.00,VWS V14.01,2013-05-13 10:26:00,
2013-05-13 05:27:00,51.6,51.1,30.27,North,357,0.0,0.0,98,0.00,,---,0.00,VWS V14.01,2013-05-13 10:27:00,
2013-05-13 05:28:00,51.6,51.1,30.27,North,357,0.0,0.0,98,0.00,,---,0.00,VWS V14.01,2013-05-13 10:28:00,
2013-05-13 05:29:00,51.6,51.1,30.27,North,357,0.0,0.0,98,0.00,,---,0.00,VWS V14.01,2013-05-13 10:29:00,
2013-05-13 05:30:00,51.6,51.1,30.27,North,357,0.0,0.0,98,0.00,,---,0.00,VWS V14.01,2013-05-13 10:30:00,
2013-05-13 05:31:00,51.6,51.1,30.27,North,357,0.0,0.0,98,0.00,,---,0.00,VWS V14.01,2013-05-13 10:31:00,
2013-05-13 05:32:00,51.6,51.1,30.27,North,357,0.0,0.0,98,0.00,,---,0.00,VWS V14.01,2013-05-13 10:32:00,
2013-05-13 05:33:00,51.6,51.1,30.27,North,357,0.0,0.0,98,0.00,,---,0.00,VWS V14.01,2013-05-13 10:33:00,
2013-05-13 05:34:00,51.4,50.9,30.27,North,357,0.0,0.0,98,0.00,,---,0.00,VWS V14.01,2013-05-13 10:34:00,
2013-05-13 05:35:00,51.3,50.7,30.27,North,357,0.0,0.0,98,0.00,,---,0.00,VWS V14.01,2013-05-13 10:35:00,
2013-05-13 05:36:00,51.3,50.7,30.27,North,357,0.0,0.0,98,0.00,,---,0.00,VWS V14.01,2013-05-13 10:36:00,
2013-05-13 05:37:00,51.3,50.7,30.27,North,357,0.0,0.0,98,0.00,,---,0.00,VWS V14.01,2013-05-13 10:37:00,
2013-05-13 05:38:00,51.3,50.7,30.27,North,357,0.0,0.0,98,0.00,,---,0.00,VWS V14.01,2013-05-13 10:38:00,
2013-05-13 05:39:00,51.4,50.9,30.27,North,357,0.0,0.0,98,0.00,,---,0.00,VWS V14.01,2013-05-13 10:39:00,
2013-05-13 05:40:00,51.4,50.9,30.27,North,357,0.0,0.0,98,0.00,,---,0.00,VWS V14.01,2013-05-13 10:40:00,
2013-05-13 05:41:00,51.4,50.9,30.27,North,357,0.0,0.0,98,0.00,,---,0.00,VWS V14.01,2013-05-13 10:41:00,
2013-05-13 05:42:00,51.4,50.9,30.27,North,357,0.0,0.0,98,0.00,,---,0.00,VWS V14.01,2013-05-13 10:42:00,
2013-05-13 05:43:00,51.4,50.9,30.27,North,357,0.0,0.0,98,0.00,,---,0.00,VWS V14.01,2013-05-13 10:43:00,
2013-05-13 05:44:00,51.4,50.9,30.27,North,357,0.0,0.0,98,0.00,,---,0.00,VWS V14.01,2013-05-13 10:44:00,
2013-05-13 05:45:00,51.3,50.7,30.27,North,357,0.0,0.0,98,0.00,,---,0.00,VWS V14.01,2013-05-13 10:45:00,
2013-05-13 05:46:00,51.1,50.5,30.27,North,357,0.0,0.0,98,0.00,,---,0.00,VWS V14.01,2013-05-13 10:46:00,
2013-05-13 05:47:00,51.1,50.5,30.27,North,357,0.0,0.0,98,0.00,,---,0.00,VWS V14.01,2013-05-13 10:47:00,
2013-05-13 05:48:00,51.1,50.5,30.27,North,357,0.0,0.0,98,0.00,,---,0.00,VWS V14.01,2013-05-13 10:48:00,
2013-05-13 05:49:00,51.1,50.5,30.27,North,357,0.0,0.0,98,0.00,,---,0.00,VWS V14.01,2013-05-13 10:49:00,
2013-05-13 05:50:00,50.9,50.4,30.27,North,357,0.0,0.0,98,0.00,,---,0.00,VWS V14.01,2013-05-13 10:50:00,
2013-05-13 05:51:00,50.9,50.4,30.27,North,357,0.0,0.0,98,0.00,,---,0.00,VWS V14.01,2013-05-13 10:51:00,
2013-05-13 05:52:00,50.9,50.4,30.27,North,357,0.0,0.0,98,0.00,,---,0.00,VWS V14.01,2013-05-13 10:52:00,
2013-05-13 05:53:00,50.9,50.4,30.27,North,357,0.0,0.0,98,0.00,,---,0.00,VWS V14.01,2013-05-13 10:53:00,
2013-05-13 05:54:00,50.7,50.2,30.27,North,357,0.0,0.0,98,0.00,,---,0.00,VWS V14.01,2013-05-13 10:54:00,
2013-05-13 05:55:00,50.7,50.2,30.27,North,357,0.0,0.0,98,0.00,,---,0.00,VWS V14.01,2013-05-13 10:55:00,
2013-05-13 05:56:00,50.7,50.2,30.27,North,357,0.0,0.0,98,0.00,,---,0.00,VWS V14.01,2013-05-13 10:56:00,
2013-05-13 05:57:00,50.7,50.2,30.27,North,357,0.0,0.0,98,0.00,,---,0.00,VWS V14.01,2013-05-13 10:57:00,
2013-05-13 05:58:00,50.5,50.0,30.27,North,357,0.0,0.0,98,0.00,,---,0.00,VWS V14.01,2013-05-13 10:58:00,
2013-05-13 05:59:00,50.5,50.0,30.27,North,357,0.0,0.0,98,0.00,,---,0.00,VWS V14.01,2013-05-13 10:59:00,
2013-05-13 06:00:00,50.5,50.0,30.27,North,357,0.0,0.0,98,0.00,,---,0.00,VWS V14.01,2013-05-13 11:00:00,
2013-05-13 06:01:00,50.5,50.0,30.27,North,357,0.0,0.0,98,0.00,,---,0.00,VWS V14.01,2013-05-13 11:01:00,
2013-05-13 06:02:00,50.5,50.0,30.27,North,357,0.0,0.0,98,0.00,,---,0.00,VWS V14.01,2013-05-13 11:02:00,
2013-05-13 06:03:00,50.5,50.0,30.27,North,357,0.0,0.0,98,0.00,,---,0.00,VWS V14.01,2013-05-13 11:03:00,
2013-05-13 06:04:00,50.5,50.0,30.27,North,357,0.0,0.0,98,0.00,,---,0.00,VWS V14.01,2013-05-13 11:04:00,
2013-05-13 06:05:00,50.5,50.0,30.27,North,357,0.0,0.0,98,0.00,,---,0.00,VWS V14.01,2013-05-13 11:05:00,
2013-05-13 06:06:00,50.4,49.8,30.27,North,357,0.0,0.0,98,0.00,,---,0.00,VWS V14.01,2013-05-13 11:06:00,
2013-05-13 06:07:00,50.4,49.8,30.27,North,357,0.0,0.0,98,0.00,,---,0.00,VWS V14.01,2013-05-13 11:07:00,
2013-05-13 06:08:00,50.4,49.8,30.27,North,357,0.0,0.0,98,0.00,,---,0.00,VWS V14.01,2013-05-13 11:08:00,
2013-05-13 06:09:00,50.4,49.8,30.27,North,357,0.0,0.0,98,0.00,,---,0.00,VWS V14.01,2013-05-13 11:09:00,
2013-05-13 06:10:00,50.4,49.8,30.27,North,357,0.0,0.0,98,0.00,,---,0.00,VWS V14.01,2013-05-13 11:10:00,
2013-05-13 06:11:00,50.4,49.8,30.27,North,357,0.0,0.0,98,0.00,,---,0.00,VWS V14.01,2013-05-13 11:11:00,
2013-05-13 06:12:00,50.4,49.8,30.27,North,357,0.0,0.0,98,0.00,,---,0.00,VWS V14.01,2013-05-13 11:12:00,
2013-05-13 06:13:00,50.4,49.8,30.27,North,357,0.0,0.0,98,0.00,,---,0.00,VWS V14.01,2013-05-13 11:13:00,
2013-05-13 06:14:00,50.4,49.8,30.27,North,357,0.0,0.0,98,0.00,,---,0.00,VWS V14.01,2013-05-13 11:14:00,
2013-05-13 06:15:00,50.4,49.8,30.27,North,357,0.0,0.0,98,0.00,,---,0.00,VWS V14.01,2013-05-13 11:15:00,
2013-05-13 06:16:00,50.4,49.8,30.27,North,357,0.0,0.0,98,0.00,,---,0.00,VWS V14.01,2013-05-13 11:16:00,
2013-05-13 06:17:00,50.4,49.8,30.27,North,357,0.0,0.0,98,0.00,,---,0.00,VWS V14.01,2013-05-13 11:17:00,
2013-05-13 06:18:00,50.4,49.8,30.27,North,357,0.0,0.0,98,0.00,,---,0.00,VWS V14.01,2013-05-13 11:18:00,
2013-05-13 06:19:00,50.5,50.0,30.27,North,357,0.0,0.0,98,0.00,,---,0.00,VWS V14.01,2013-05-13 11:19:00,
2013-05-13 06:20:00,50.4,49.8,30.27,North,357,0.0,0.0,98,0.00,,---,0.00,VWS V14.01,2013-05-13 11:20:00,
2013-05-13 06:21:00,50.4,49.8,30.27,North,357,0.0,0.0,98,0.00,,---,0.00,VWS V14.01,2013-05-13 11:21:00,
2013-05-13 06:22:00,50.4,49.8,30.27,North,357,0.0,0.0,98,0.00,,---,0.00,VWS V14.01,2013-05-13 11:22:00,
2013-05-13 06:23:00,50.4,49.8,30.27,North,357,0.0,0.0,98,0.00,,---,0.00,VWS V14.01,2013-05-13 11:23:00,
2013-05-13 06:24:00,50.2,49.6,30.27,North,357,0.0,0.0,98,0.00,,---,0.00,VWS V14.01,2013-05-13 11:24:00,
2013-05-13 06:25:00,50.4,49.8,30.27,North,357,0.0,0.0,98,0.00,,---,0.00,VWS V14.01,2013-05-13 11:25:00,
2013-05-13 06:26:00,50.4,49.8,30.27,North,357,0.0,0.0,98,0.00,,---,0.00,VWS V14.01,2013-05-13 11:26:00,
2013-05-13 06:27:00,50.4,49.8,30.27,North,357,0.0,0.0,98,0.00,,---,0.00,VWS V14.01,2013-05-13 11:27:00,
2013-05-13 06:28:00,50.4,49.8,30.27,North,357,0.0,0.0,98,0.00,,---,0.00,VWS V14.01,2013-05-13 11:28:00,
2013-05-13 06:29:00,50.2,49.6,30.27,North,357,0.0,0.0,98,0.00,,---,0.00,VWS V14.01,2013-05-13 11:29:00,
2013-05-13 06:30:00,50.2,49.6,30.27,North,357,0.0,0.0,98,0.00,,---,0.00,VWS V14.01,2013-05-13 11:30:00,
2013-05-13 06:31:00,50.2,49.6,30.27,North,357,0.0,0.0,98,0.00,,---,0.00,VWS V14.01,2013-05-13 11:31:00,
2013-05-13 06:32:00,50.2,49.6,30.27,North,357,0.0,0.0,98,0.00,,---,0.00,VWS V14.01,2013-05-13 11:32:00,
2013-05-13 06:33:00,50.2,49.6,30.27,North,357,0.0,0.0,98,0.00,,---,0.00,VWS V14.01,2013-05-13 11:33:00,
2013-05-13 06:34:00,50.2,49.6,30.27,North,357,0.0,0.0,98,0.00,,---,0.00,VWS V14.01,2013-05-13 11:34:00,
2013-05-13 06:35:00,50.2,49.6,30.27,North,357,0.0,0.0,98,0.00,,---,0.00,VWS V14.01,2013-05-13 11:35:00,
2013-05-13 06:36:00,50.4,49.8,30.27,North,357,0.0,0.0,98,0.00,,---,0.00,VWS V14.01,2013-05-13 11:36:00,
2013-05-13 06:37:00,50.4,49.8,30.27,North,357,0.0,0.0,98,0.00,,---,0.00,VWS V14.01,2013-05-13 11:37:00,
2013-05-13 06:38:00,50.4,49.8,30.27,North,357,0.0,0.0,98,0.00,,---,0.00,VWS V14.01,2013-05-13 11:38:00,
2013-05-13 06:39:00,50.5,50.0,30.27,North,357,0.0,0.0,98,0.00,,---,0.00,VWS V14.01,2013-05-13 11:39:00,
2013-05-13 06:40:00,50.4,49.8,30.27,North,357,0.0,0.0,98,0.00,,---,0.00,VWS V14.01,2013-05-13 11:40:00,
2013-05-13 06:41:00,50.4,49.8,30.27,North,357,0.0,0.0,98,0.00,,---,0.00,VWS V14.01,2013-05-13 11:41:00,
2013-05-13 06:42:00,50.4,49.8,30.27,North,357,0.0,0.0,98,0.00,,---,0.00,VWS V14.01,2013-05-13 11:42:00,
2013-05-13 06:43:00,50.4,49.8,30.27,North,357,0.0,0.0,98,0.00,,---,0.00,VWS V14.01,2013-05-13 11:43:00,
2013-05-13 06:44:00,50.4,49.8,30.27,North,357,0.0,0.0,98,0.00,,---,0.00,VWS V14.01,2013-05-13 11:44:00,
2013-05-13 06:45:00,50.4,49.8,30.27,North,357,0.0,0.0,98,0.00,,---,0.00,VWS V14.01,2013-05-13 11:45:00,
2013-05-13 06:46:00,50.4,49.8,30.30,North,357,0.0,0.0,98,0.00,,---,0.00,VWS V14.01,2013-05-13 11:46:00,
2013-05-13 06:47:00,50.4,49.8,30.30,North,357,0.0,0.0,98,0.00,,---,0.00,VWS V14.01,2013-05-13 11:47:00,
2013-05-13 06:48:00,50.5,50.0,30.30,North,357,0.0,0.0,98,0.00,,---,0.00,VWS V14.01,2013-05-13 11:48:00,
2013-05-13 06:49:00,50.5,50.0,30.30,North,357,0.0,0.0,98,0.00,,---,0.00,VWS V14.01,2013-05-13 11:49:00,
2013-05-13 06:50:00,50.7,50.2,30.30,North,357,0.0,0.0,98,0.00,,---,0.00,VWS V14.01,2013-05-13 11:50:00,
2013-05-13 06:51:00,50.7,50.2,30.30,North,357,0.0,0.0,98,0.00,,---,0.00,VWS V14.01,2013-05-13 11:51:00,
2013-05-13 06:52:00,50.7,50.2,30.30,North,357,0.0,0.0,98,0.00,,---,0.00,VWS V14.01,2013-05-13 11:52:00,
2013-05-13 06:53:00,50.7,50.2,30.30,North,357,0.0,0.0,98,0.00,,---,0.00,VWS V14.01,2013-05-13 11:53:00,
2013-05-13 06:54:00,50.7,50.2,30.30,North,357,0.0,0.0,98,0.00,,---,0.00,VWS V14.01,2013-05-13 11:54:00,
2013-05-13 06:55:00,50.9,50.4,30.30,North,357,0.0,0.0,98,0.00,,---,0.00,VWS V14.01,2013-05-13 11:55:00,
2013-05-13 06:56:00,50.9,50.4,30.30,North,357,0.0,0.0,98,0.00,,---,0.00,VWS V14.01,2013-05-13 11:56:00,
2013-05-13 06:57:00,50.9,50.4,30.30,North,357,0.0,0.0,98,0.00,,---,0.00,VWS V14.01,2013-05-13 11:57:00,
2013-05-13 06:58:00,50.9,50.4,30.30,North,357,0.0,0.0,98,0.00,,---,0.00,VWS V14.01,2013-05-13 11:58:00,
2013-05-13 06:59:00,50.7,50.2,30.30,North,357,0.0,0.0,98,0.00,,---,0.00,VWS V14.01,2013-05-13 11:59:00,
2013-05-13 07:00:00,50.7,50.2,30.30,North,357,0.0,0.0,98,0.00,,---,0.00,VWS V14.01,2013-05-13 12:00:00,
2013-05-13 07:01:00,50.9,50.4,30.30,North,357,0.0,0.0,98,0.00,,---,0.00,VWS V14.01,2013-05-13 12:01:00,
2013-05-13 07:02:00,50.9,50.4,30.30,North,357,0.0,0.0,98,0.00,,---,0.00,VWS V14.01,2013-05-13 12:02:00,
2013-05-13 07:03:00,50.9,50.4,30.30,North,357,0.0,0.0,98,0.00,,---,0.00,VWS V14.01,2013-05-13 12:03:00,
2013-05-13 07:04:00,50.9,50.4,30.30,North,357,0.0,0.0,98,0.00,,---,0.00,VWS V14.01,2013-05-13 12:04:00,
2013-05-13 07:05:00,50.9,50.4,30.30,North,357,0.0,0.0,98,0.00,,---,0.00,VWS V14.01,2013-05-13 12:05:00,
2013-05-13 07:06:00,51.1,50.5,30.30,North,357,0.0,0.0,98,0.00,,---,0.00,VWS V14.01,2013-05-13 12:06:00,
2013-05-13 07:07:00,51.1,50.5,30.30,North,357,0.0,0.0,98,0.00,,---,0.00,VWS V14.01,2013-05-13 12:07:00,
2013-05-13 07:08:00,51.3,50.7,30.30,North,357,0.0,0.0,98,0.00,,---,0.00,VWS V14.01,2013-05-13 12:08:00,
2013-05-13 07:09:00,51.3,50.7,30.30,North,357,0.0,0.0,98,0.00,,---,0.00,VWS V14.01,2013-05-13 12:09:00,
2013-05-13 07:10:00,51.4,50.9,30.30,North,357,0.0,0.0,98,0.00,,---,0.00,VWS V14.01,2013-05-13 12:10:00,
2013-05-13 07:11:00,51.4,50.9,30.30,North,357,0.0,0.0,98,0.00,,---,0.00,VWS V14.01,2013-05-13 12:11:00,
2013-05-13 07:12:00,51.4,50.9,30.30,North,357,0.0,0.0,98,0.00,,---,0.00,VWS V14.01,2013-05-13 12:12:00,
2013-05-13 07:13:00,51.6,51.1,30.30,North,357,0.0,0.0,98,0.00,,---,0.00,VWS V14.01,2013-05-13 12:13:00,
2013-05-13 07:14:00,51.6,51.1,30.30,North,357,0.0,0.0,98,0.00,,---,0.00,VWS V14.01,2013-05-13 12:14:00,
2013-05-13 07:15:00,51.6,51.1,30.30,North,357,0.0,0.0,98,0.00,,---,0.00,VWS V14.01,2013-05-13 12:15:00,
2013-05-13 07:16:00,51.8,51.3,30.30,North,357,0.0,0.0,98,0.00,,---,0.00,VWS V14.01,2013-05-13 12:16:00,
2013-05-13 07:17:00,51.8,51.3,30.30,North,357,0.0,0.0,98,0.00,,---,0.00,VWS V14.01,2013-05-13 12:17:00,
2013-05-13 07:18:00,51.8,51.3,30.30,North,357,0.0,0.0,98,0.00,,---,0.00,VWS V14.01,2013-05-13 12:18:00,
2013-05-13 07:19:00,51.8,51.3,30.30,North,357,0.0,0.0,98,0.00,,---,0.00,VWS V14.01,2013-05-13 12:19:00,
2013-05-13 07:20:00,52.0,51.4,30.30,North,357,0.0,0.0,98,0.00,,---,0.00,VWS V14.01,2013-05-13 12:20:00,
2013-05-13 07:21:00,52.0,51.4,30.30,North,357,0.0,0.0,98,0.00,,---,0.00,VWS V14.01,2013-05-13 12:21:00,
2013-05-13 07:22:00,52.0,51.4,30.30,North,357,0.0,0.0,98,0.00,,---,0.00,VWS V14.01,2013-05-13 12:22:00,
2013-05-13 07:23:00,52.2,51.6,30.30,North,357,0.0,0.0,98,0.00,,---,0.00,VWS V14.01,2013-05-13 12:23:00,
2013-05-13 07:24:00,52.3,51.8,30.30,North,357,0.0,0.0,98,0.00,,---,0.00,VWS V14.01,2013-05-13 12:24:00,
2013-05-13 07:25:00,52.3,51.8,30.30,North,357,0.0,0.0,98,0.00,,---,0.00,VWS V14.01,2013-05-13 12:25:00,
2013-05-13 07:26:00,52.5,52.0,30.30,North,357,0.0,0.0,98,0.00,,---,0.00,VWS V14.01,2013-05-13 12:26:00,
2013-05-13 07:27:00,52.5,52.0,30.30,North,357,0.0,0.0,98,0.00,,---,0.00,VWS V14.01,2013-05-13 12:27:00,
2013-05-13 07:28:00,52.5,52.0,30.30,North,357,0.0,0.0,98,0.00,,---,0.00,VWS V14.01,2013-05-13 12:28:00,
2013-05-13 07:29:00,52.7,52.2,30.30,North,357,0.0,0.0,98,0.00,,---,0.00,VWS V14.01,2013-05-13 12:29:00,
2013-05-13 07:30:00,52.9,52.3,30.30,North,357,0.0,0.0,98,0.00,,---,0.00,VWS V14.01,2013-05-13 12:30:00,
2013-05-13 07:31:00,52.9,52.3,30.30,North,357,0.0,0.0,98,0.00,,---,0.00,VWS V14.01,2013-05-13 12:31:00,
2013-05-13 07:32:00,53.1,52.5,30.30,North,357,0.0,0.0,98,0.00,,---,0.00,VWS V14.01,2013-05-13 12:32:00,
2013-05-13 07:33:00,53.1,52.5,30.30,North,357,0.0,0.0,98,0.00,,---,0.00,VWS V14.01,2013-05-13 12:33:00,
2013-05-13 07:34:00,53.1,52.5,30.30,North,357,0.0,0.0,98,0.00,,---,0.00,VWS V14.01,2013-05-13 12:34:00,
2013-05-13 07:35:00,53.2,52.7,30.30,North,357,0.0,0.0,98,0.00,,---,0.00,VWS V14.01,2013-05-13 12:35:00,
2013-05-13 07:36:00,53.2,52.7,30.30,North,357,0.0,0.0,98,0.00,,---,0.00,VWS V14.01,2013-05-13 12:36:00,
2013-05-13 07:37:00,53.2,52.7,30.30,North,357,0.0,0.0,98,0.00,,---,0.00,VWS V14.01,2013-05-13 12:37:00,
2013-05-13 07:38:00,53.4,52.9,30.30,North,357,0.0,0.0,98,0.00,,---,0.00,VWS V14.01,2013-05-13 12:38:00,
2013-05-13 07:39:00,53.4,52.9,30.30,North,357,0.0,0.0,98,0.00,,---,0.00,VWS V14.01,2013-05-13 12:39:00,
2013-05-13 07:40:00,53.6,53.0,30.30,North,357,0.0,0.0,98,0.00,,---,0.00,VWS V14.01,2013-05-13 12:40:00,
2013-05-13 07:41:00,53.8,53.2,30.30,North,357,0.0,0.0,98,0.00,,---,0.00,VWS V14.01,2013-05-13 12:41:00,
2013-05-13 07:42:00,53.8,53.2,30.30,North,357,0.0,0.0,98,0.00,,---,0.00,VWS V14.01,2013-05-13 12:42:00,
2013-05-13 07:43:00,54.0,53.4,30.30,North,357,0.0,0.0,98,0.00,,---,0.00,VWS V14.01,2013-05-13 12:43:00,
2013-05-13 07:44:00,54.1,53.6,30.30,North,357,0.0,0.0,98,0.00,,---,0.00,VWS V14.01,2013-05-13 12:44:00,
2013-05-13 07:45:00,54.1,53.6,30.30,North,357,0.0,0.0,98,0.00,,---,0.00,VWS V14.01,2013-05-13 12:45:00,
2013-05-13 07:46:00,54.3,53.8,30.33,North,357,0.0,0.0,98,0.00,,---,0.00,VWS V14.01,2013-05-13 12:46:00,
2013-05-13 07:47:00,54.5,54.0,30.33,North,357,0.0,0.0,98,0.00,,---,0.00,VWS V14.01,2013-05-13 12:47:00,
2013-05-13 07:48:00,54.5,54.0,30.33,North,357,0.0,0.0,98,0.00,,---,0.00,VWS V14.01,2013-05-13 12:48:00,
2013-05-13 07:49:00,54.7,54.1,30.33,North,357,0.0,0.0,98,0.00,,---,0.00,VWS V14.01,2013-05-13 12:49:00,
2013-05-13 07:50:00,54.7,54.1,30.33,North,357,0.0,0.0,98,0.00,,---,0.00,VWS V14.01,2013-05-13 12:50:00,
2013-05-13 07:51:00,55.0,54.5,30.33,North,357,0.0,0.0,98,0.00,,---,0.00,VWS V14.01,2013-05-13 12:51:00,
2013-05-13 07:52:00,55.0,54.5,30.33,North,357,0.0,0.0,98,0.00,,---,0.00,VWS V14.01,2013-05-13 12:52:00,
2013-05-13 07:53:00,55.2,54.7,30.33,North,357,0.0,0.0,98,0.00,,---,0.00,VWS V14.01,2013-05-13 12:53:00,
2013-05-13 07:54:00,55.2,54.7,30.33,North,357,0.0,0.0,98,0.00,,---,0.00,VWS V14.01,2013-05-13 12:54:00,
2013-05-13 07:55:00,55.4,54.8,30.33,North,357,0.0,0.0,98,0.00,,---,0.00,VWS V14.01,2013-05-13 12:55:00,
2013-05-13 07:56:00,55.6,55.0,30.33,North,357,0.0,0.0,98,0.00,,---,0.00,VWS V14.01,2013-05-13 12:56:00,
2013-05-13 07:57:00,55.6,55.0,30.33,North,357,0.0,0.0,98,0.00,,---,0.00,VWS V14.01,2013-05-13 12:57:00,
2013-05-13 07:58:00,55.8,55.2,30.33,North,357,0.0,0.0,98,0.00,,---,0.00,VWS V14.01,2013-05-13 12:58:00,
2013-05-13 07:59:00,55.8,55.2,30.33,North,357,0.0,0.0,98,0.00,,---,0.00,VWS V14.01,2013-05-13 12:59:00,
2013-05-13 08:00:00,55.9,55.4,30.33,North,357,0.0,0.0,98,0.00,,---,0.00,VWS V14.01,2013-05-13 13:00:00,
2013-05-13 08:01:00,55.9,55.4,30.33,North,357,0.0,0.0,98,0.00,,---,0.00,VWS V14.01,2013-05-13 13:01:00,
2013-05-13 08:02:00,56.1,55.6,30.33,North,357,0.0,0.0,98,0.00,,---,0.00,VWS V14.01,2013-05-13 13:02:00,
2013-05-13 08:03:00,56.1,55.6,30.33,North,357,0.0,0.0,98,0.00,,---,0.00,VWS V14.01,2013-05-13 13:03:00,
2013-05-13 08:04:00,56.1,55.6,30.33,North,357,0.0,0.0,98,0.00,,---,0.00,VWS V14.01,2013-05-13 13:04:00,
2013-05-13 08:05:00,56.3,55.7,30.33,South,181,0.0,0.0,98,0.00,,---,0.00,VWS V14.01,2013-05-13 13:05:00,
2013-05-13 08:06:00,56.5,55.9,30.33,South,181,0.0,0.0,98,0.00,,---,0.00,VWS V14.01,2013-05-13 13:06:00,
2013-05-13 08:07:00,56.5,55.9,30.33,South,181,0.0,0.0,98,0.00,,---,0.00,VWS V14.01,2013-05-13 13:07:00,
2013-05-13 08:08:00,56.7,56.1,30.33,South,181,0.0,0.0,98,0.00,,---,0.00,VWS V14.01,2013-05-13 13:08:00,
2013-05-13 08:09:00,56.7,56.1,30.33,South,181,0.0,0.0,98,0.00,,---,0.00,VWS V14.01,2013-05-13 13:09:00,
2013-05-13 08:10:00,56.7,56.1,30.33,South,181,0.0,0.0,98,0.00,,---,0.00,VWS V14.01,2013-05-13 13:10:00,
2013-05-13 08:11:00,56.8,56.3,30.33,South,181,0.0,0.0,98,0.00,,---,0.00,VWS V14.01,2013-05-13 13:11:00,
2013-05-13 08:12:00,56.8,56.3,30.33,South,181,0.0,0.0,98,0.00,,---,0.00,VWS V14.01,2013-05-13 13:12:00,
2013-05-13 08:13:00,57.0,56.5,30.33,South,181,0.0,0.0,98,0.00,,---,0.00,VWS V14.01,2013-05-13 13:13:00,
2013-05-13 08:14:00,57.0,56.5,30.33,South,181,0.0,0.0,98,0.00,,---,0.00,VWS V14.01,2013-05-13 13:14:00,
2013-05-13 08:15:00,57.2,56.4,30.33,South,181,0.0,0.0,97,0.00,,---,0.00,VWS V14.01,2013-05-13 13:15:00,
2013-05-13 08:16:00,57.2,56.4,30.33,South,181,0.0,0.0,97,0.00,,---,0.00,VWS V14.01,2013-05-13 13:16:00,
2013-05-13 08:17:00,57.4,56.5,30.33,South,181,0.0,0.0,97,0.00,,---,0.00,VWS V14.01,2013-05-13 13:17:00,
2013-05-13 08:18:00,57.4,56.5,30.33,South,181,0.0,0.0,97,0.00,,---,0.00,VWS V14.01,2013-05-13 13:18:00,
2013-05-13 08:19:00,57.6,56.7,30.33,South,181,0.0,0.0,97,0.00,,---,0.00,VWS V14.01,2013-05-13 13:19:00,
2013-05-13 08:20:00,57.6,56.7,30.33,South,181,0.0,0.0,97,0.00,,---,0.00,VWS V14.01,2013-05-13 13:20:00,
2013-05-13 08:21:00,57.7,56.9,30.33,South,181,0.0,0.0,97,0.00,,---,0.00,VWS V14.01,2013-05-13 13:21:00,
2013-05-13 08:22:00,57.7,56.9,30.33,South,181,0.0,0.0,97,0.00,,---,0.00,VWS V14.01,2013-05-13 13:22:00,
2013-05-13 08:23:00,57.7,56.9,30.33,South,185,0.0,0.0,97,0.00,,---,0.00,VWS V14.01,2013-05-13 13:23:00,
2013-05-13 08:24:00,57.9,57.1,30.33,South,185,0.0,0.0,97,0.00,,---,0.00,VWS V14.01,2013-05-13 13:24:00,
2013-05-13 08:25:00,57.9,57.1,30.33,South,182,2.7,3.1,97,0.00,,---,0.00,VWS V14.01,2013-05-13 13:25:00,
2013-05-13 08:26:00,58.1,57.0,30.33,South,182,0.0,0.0,96,0.00,,---,0.00,VWS V14.01,2013-05-13 13:26:00,
2013-05-13 08:27:00,58.1,57.0,30.33,South,182,0.0,0.0,96,0.00,,---,0.00,VWS V14.01,2013-05-13 13:27:00,
2013-05-13 08:28:00,58.3,57.2,30.33,South,182,0.0,0.0,96,0.00,,---,0.00,VWS V14.01,2013-05-13 13:28:00,
2013-05-13 08:29:00,58.3,57.2,30.33,South,182,0.0,0.0,96,0.00,,---,0.00,VWS V14.01,2013-05-13 13:29:00,
2013-05-13 08:30:00,58.3,57.2,30.33,South,182,0.0,0.0,96,0.00,,---,0.00,VWS V14.01,2013-05-13 13:30:00,
2013-05-13 08:31:00,58.5,57.3,30.33,South,182,0.0,0.0,96,0.00,,---,0.00,VWS V14.01,2013-05-13 13:31:00,
2013-05-13 08:32:00,58.5,57.3,30.33,South,182,0.0,0.0,96,0.00,,---,0.00,VWS V14.01,2013-05-13 13:32:00,
2013-05-13 08:33:00,58.5,57.3,30.33,South,182,0.0,0.0,96,0.00,,---,0.00,VWS V14.01,2013-05-13 13:33:00,
2013-05-13 08:34:00,58.5,57.0,30.33,South,182,0.0,0.0,95,0.00,,---,0.00,VWS V14.01,2013-05-13 13:34:00,
2013-05-13 08:35:00,58.6,57.2,30.33,South,182,0.0,0.0,95,0.00,,---,0.00,VWS V14.01,2013-05-13 13:35:00,
2013-05-13 08:36:00,58.8,57.4,30.33,South,182,0.0,0.0,95,0.00,,---,0.00,VWS V14.01,2013-05-13 13:36:00,
2013-05-13 08:37:00,58.8,57.4,30.33,South,182,0.0,0.0,95,0.00,,---,0.00,VWS V14.01,2013-05-13 13:37:00,
2013-05-13 08:38:00,59.0,57.6,30.33,South,182,0.0,0.0,95,0.00,,---,0.00,VWS V14.01,2013-05-13 13:38:00,
2013-05-13 08:39:00,59.2,57.8,30.33,South,182,0.0,0.0,95,0.00,,---,0.00,VWS V14.01,2013-05-13 13:39:00,
2013-05-13 08:40:00,59.2,57.8,30.33,South,182,0.0,0.0,95,0.00,,---,0.00,VWS V14.01,2013-05-13 13:40:00,
2013-05-13 08:41:00,59.5,57.8,30.33,South,182,0.0,0.0,94,0.00,,---,0.00,VWS V14.01,2013-05-13 13:41:00,
2013-05-13 08:42:00,59.5,57.8,30.33,South,182,0.0,0.0,94,0.00,,---,0.00,VWS V14.01,2013-05-13 13:42:00,
2013-05-13 08:43:00,59.7,58.0,30.33,South,182,0.0,0.0,94,0.00,,---,0.00,VWS V14.01,2013-05-13 13:43:00,
2013-05-13 08:44:00,59.7,58.0,30.33,South,182,0.0,0.0,94,0.00,,---,0.00,VWS V14.01,2013-05-13 13:44:00,
2013-05-13 08:45:00,59.9,58.2,30.33,South,182,0.0,0.0,94,0.00,,---,0.00,VWS V14.01,2013-05-13 13:45:00,
2013-05-13 08:46:00,59.9,57.9,30.36,South,186,0.0,3.6,93,0.00,,---,0.00,VWS V14.01,2013-05-13 13:46:00,
2013-05-13 08:47:00,59.9,57.9,30.36,SSW,199,0.0,3.6,93,0.00,,---,0.00,VWS V14.01,2013-05-13 13:47:00,
2013-05-13 08:48:00,60.1,57.8,30.36,SSW,199,0.0,0.0,92,0.00,,---,0.00,VWS V14.01,2013-05-13 13:48:00,
2013-05-13 08:49:00,60.1,57.8,30.36,WSW,249,0.0,0.0,92,0.00,,---,0.00,VWS V14.01,2013-05-13 13:49:00,
2013-05-13 08:50:00,60.3,57.6,30.36,WSW,249,0.0,0.0,91,0.00,,---,0.00,VWS V14.01,2013-05-13 13:50:00,
2013-05-13 08:51:00,60.4,57.5,30.36,WSW,249,0.0,0.0,90,0.00,,---,0.00,VWS V14.01,2013-05-13 13:51:00,
2013-05-13 08:52:00,60.4,57.5,30.36,WSW,249,0.0,0.0,90,0.00,,---,0.00,VWS V14.01,2013-05-13 13:52:00,
2013-05-13 08:53:00,60.4,57.2,30.36,SSW,203,2.2,2.2,89,0.00,,---,0.00,VWS V14.01,2013-05-13 13:53:00,
2013-05-13 08:54:00,60.6,57.0,30.36,SSW,205,0.0,2.2,88,0.00,,---,0.00,VWS V14.01,2013-05-13 13:54:00,
2013-05-13 08:55:00,60.6,57.0,30.36,SSW,205,0.0,0.0,88,0.00,,---,0.00,VWS V14.01,2013-05-13 13:55:00,
2013-05-13 08:56:00,60.8,56.6,30.36,SSW,205,0.0,0.0,86,0.00,,---,0.00,VWS V14.01,2013-05-13 13:56:00,
2013-05-13 08:57:00,60.8,56.6,30.36,SSW,205,0.0,0.0,86,0.00,,---,0.00,VWS V14.01,2013-05-13 13:57:00,
2013-05-13 08:58:00,60.8,56.3,30.36,SSW,194,4.0,4.0,85,0.00,,---,0.00,VWS V14.01,2013-05-13 13:58:00,
2013-05-13 08:59:00,61.0,55.8,30.36,SE,144,3.1,5.4,83,0.00,,---,0.00,VWS V14.01,2013-05-13 13:59:00,
2013-05-13 09:00:00,61.3,55.5,30.36,SE,145,0.0,3.1,81,0.00,,---,0.00,VWS V14.01,2013-05-13 14:00:00,
2013-05-13 09:01:00,61.7,55.8,30.36,SE,145,0.0,0.0,81,0.00,,---,0.00,VWS V14.01,2013-05-13 14:01:00,
2013-05-13 09:02:00,61.7,55.8,30.36,SE,145,0.0,0.0,81,0.00,,---,0.00,VWS V14.01,2013-05-13 14:02:00,
2013-05-13 09:03:00,61.7,55.5,30.36,SE,144,0.0,0.0,80,0.00,,---,0.00,VWS V14.01,2013-05-13 14:03:00,
2013-05-13 09:04:00,61.7,55.1,30.36,SE,145,0.0,0.0,79,0.00,,---,0.00,VWS V14.01,2013-05-13 14:04:00,
2013-05-13 09:05:00,61.9,55.0,30.36,SSE,147,0.0,0.0,78,0.00,,---,0.00,VWS V14.01,2013-05-13 14:05:00,
2013-05-13 09:06:00,61.9,54.2,30.36,SSW,213,4.9,5.8,76,0.00,,---,0.00,VWS V14.01,2013-05-13 14:06:00,
2013-05-13 09:07:00,61.9,54.2,30.36,SSW,213,2.2,5.8,76,0.00,,---,0.00,VWS V14.01,2013-05-13 14:07:00,
2013-05-13 09:08:00,62.2,53.5,30.36,SSW,200,0.0,3.1,73,0.00,,---,0.00,VWS V14.01,2013-05-13 14:08:00,
2013-05-13 09:09:00,62.4,53.3,30.36,SSW,200,0.0,0.0,72,0.00,,---,0.00,VWS V14.01,2013-05-13 14:09:00,
2013-05-13 09:10:00,62.4,53.3,30.36,South,179,2.2,3.1,72,0.00,,---,0.00,VWS V14.01,2013-05-13 14:10:00,
2013-05-13 09:11:00,62.8,52.9,30.36,South,179,0.0,0.0,70,0.00,,---,0.00,VWS V14.01,2013-05-13 14:11:00,
2013-05-13 09:12:00,62.8,52.9,30.36,South,179,0.0,0.0,70,0.00,,---,0.00,VWS V14.01,2013-05-13 14:12:00,
2013-05-13 09:13:00,63.0,53.0,30.36,South,179,0.0,0.0,70,0.00,,---,0.00,VWS V14.01,2013-05-13 14:13:00,
2013-05-13 09:14:00,63.0,52.6,30.36,SSE,168,2.7,2.7,69,0.00,,---,0.00,VWS V14.01,2013-05-13 14:14:00,
2013-05-13 09:15:00,63.1,52.0,30.36,South,183,4.9,4.9,67,0.00,,---,0.00,VWS V14.01,2013-05-13 14:15:00,
2013-05-13 09:16:00,63.5,51.1,30.36,SSW,194,0.0,0.0,64,0.00,,---,0.00,VWS V14.01,2013-05-13 14:16:00,
2013-05-13 09:17:00,63.5,51.1,30.36,WSW,242,2.7,2.7,64,0.00,,---,0.00,VWS V14.01,2013-05-13 14:17:00,
2013-05-13 09:18:00,63.5,50.7,30.36,SSE,156,2.2,4.0,63,0.00,,---,0.00,VWS V14.01,2013-05-13 14:18:00,
2013-05-13 09:19:00,63.5,49.8,30.36,WSW,237,0.0,5.4,61,0.00,,---,0.00,VWS V14.01,2013-05-13 14:19:00,
2013-05-13 09:20:00,63.9,50.6,30.36,WSW,244,0.0,0.0,62,0.00,,---,0.00,VWS V14.01,2013-05-13 14:20:00,
2013-05-13 09:21:00,64.0,50.3,30.36,South,186,2.7,2.7,61,0.00,,---,0.00,VWS V14.01,2013-05-13 14:21:00,
2013-05-13 09:22:00,64.2,50.1,30.36,SSW,209,2.7,4.0,60,0.00,,---,0.00,VWS V14.01,2013-05-13 14:22:00,
2013-05-13 09:23:00,64.4,49.8,30.36,SSW,209,0.0,2.7,59,0.00,,---,0.00,VWS V14.01,2013-05-13 14:23:00,
2013-05-13 09:24:00,65.1,50.9,30.36,SSW,209,0.0,0.0,60,0.00,,---,0.00,VWS V14.01,2013-05-13 14:24:00,
2013-05-13 09:25:00,65.3,51.5,30.36,SSW,209,0.0,0.0,61,0.00,,---,0.00,VWS V14.01,2013-05-13 14:25:00,
2013-05-13 09:26:00,66.0,51.8,30.36,SSW,209,0.0,0.0,60,0.00,,---,0.00,VWS V14.01,2013-05-13 14:26:00,
2013-05-13 09:27:00,66.0,51.8,30.36,SSW,209,0.0,0.0,60,0.00,,---,0.00,VWS V14.01,2013-05-13 14:27:00,
2013-05-13 09:28:00,66.2,51.5,30.36,SSW,209,0.0,0.0,59,0.00,,---,0.00,VWS V14.01,2013-05-13 14:28:00,
2013-05-13 09:29:00,66.6,50.9,30.36,SSW,209,0.0,0.0,57,0.00,,---,0.00,VWS V14.01,2013-05-13 14:29:00,
2013-05-13 09:30:00,66.7,51.0,30.36,SSW,209,0.0,0.0,57,0.00,,---,0.00,VWS V14.01,2013-05-13 14:30:00,
2013-05-13 09:31:00,67.3,51.5,30.36,SSW,209,0.0,0.0,57,0.00,,---,0.00,VWS V14.01,2013-05-13 14:31:00,
2013-05-13 09:32:00,67.3,51.5,30.36,SSW,209,0.0,0.0,57,0.00,,---,0.00,VWS V14.01,2013-05-13 14:32:00,
2013-05-13 09:33:00,67.6,51.4,30.36,SSW,209,0.0,0.0,56,0.00,,---,0.00,VWS V14.01,2013-05-13 14:33:00,
2013-05-13 09:34:00,67.6,51.4,30.36,SSW,209,0.0,0.0,56,0.00,,---,0.00,VWS V14.01,2013-05-13 14:34:00,
2013-05-13 09:35:00,67.6,50.4,30.36,SSW,209,0.0,0.0,54,0.00,,---,0.00,VWS V14.01,2013-05-13 14:35:00,
2013-05-13 09:36:00,67.6,49.9,30.36,SSW,202,3.1,3.1,53,0.00,,---,0.00,VWS V14.01,2013-05-13 14:36:00,
2013-05-13 09:37:00,67.5,48.7,30.36,SSW,192,2.7,3.1,51,0.00,,---,0.00,VWS V14.01,2013-05-13 14:37:00,
2013-05-13 09:38:00,67.5,48.2,30.36,SSW,192,0.0,3.1,50,0.00,,---,0.00,VWS V14.01,2013-05-13 14:38:00,
2013-05-13 09:39:00,67.6,48.4,30.36,SSW,192,0.0,0.0,50,0.00,,---,0.00,VWS V14.01,2013-05-13 14:39:00,
2013-05-13 09:40:00,67.6,47.8,30.36,SSW,192,0.0,0.0,49,0.00,,---,0.00,VWS V14.01,2013-05-13 14:40:00,
2013-05-13 09:41:00,67.5,46.5,30.36,SSW,213,2.7,4.0,47,0.00,,---,0.00,VWS V14.01,2013-05-13 14:41:00,
2013-05-13 09:42:00,67.6,46.7,30.36,SSW,212,4.0,4.0,47,0.00,,---,0.00,VWS V14.01,2013-05-13 14:42:00,
2013-05-13 09:43:00,67.6,46.7,30.36,SSE,157,3.1,4.0,47,0.00,,---,0.00,VWS V14.01,2013-05-13 14:43:00,
2013-05-13 09:44:00,68.0,45.3,30.36,SE,125,4.9,4.9,44,0.00,,---,0.00,VWS V14.01,2013-05-13 14:44:00,
2013-05-13 09:45:00,68.2,45.5,30.36,SSW,197,5.4,5.4,44,0.00,,---,0.00,VWS V14.01,2013-05-13 14:45:00,
2013-05-13 09:46:00,68.9,45.5,30.36,WSW,257,5.4,5.4,43,0.00,,---,0.00,VWS V14.01,2013-05-13 14:46:00,
2013-05-13 09:47:00,68.9,45.5,30.36,SSW,197,3.1,5.4,43,0.00,,---,0.00,VWS V14.01,2013-05-13 14:47:00,
2013-05-13 09:48:00,69.1,44.4,30.36,SSW,206,6.3,6.3,41,0.00,,---,0.00,VWS V14.01,2013-05-13 14:48:00,
2013-05-13 09:49:00,69.3,45.2,30.36,SW,221,0.0,6.3,42,0.00,,---,0.00,VWS V14.01,2013-05-13 14:49:00,
2013-05-13 09:50:00,69.6,45.5,30.36,South,181,3.6,4.9,42,0.00,,---,0.00,VWS V14.01,2013-05-13 14:50:00,
2013-05-13 09:51:00,70.3,45.5,30.36,SSW,192,3.1,3.6,41,0.00,,---,0.00,VWS V14.01,2013-05-13 14:51:00,
2013-05-13 09:52:00,70.3,45.5,30.36,SSE,168,2.7,3.6,41,0.00,,---,0.00,VWS V14.01,2013-05-13 14:52:00,
2013-05-13 09:53:00,70.5,44.4,30.36,SSE,165,2.7,5.4,39,0.00,,---,0.00,VWS V14.01,2013-05-13 14:53:00,
2013-05-13 09:54:00,70.5,44.4,30.36,NNE,24,0.0,4.0,39,0.00,,---,0.00,VWS V14.01,2013-05-13 14:54:00,
2013-05-13 09:55:00,71.6,46.0,30.36,South,182,0.0,0.0,40,0.00,,---,0.00,VWS V14.01,2013-05-13 14:55:00,
2013-05-13 09:56:00,72.5,46.8,30.36,SSW,204,0.0,0.0,40,0.00,,---,0.00,VWS V14.01,2013-05-13 14:56:00,
2013-05-13 09:57:00,72.7,46.3,30.36,South,178,3.6,3.6,39,0.00,,---,0.00,VWS V14.01,2013-05-13 14:57:00,
2013-05-13 09:58:00,72.7,45.6,30.36,SSW,209,3.6,4.9,38,0.00,,---,0.00,VWS V14.01,2013-05-13 14:58:00,
2013-05-13 09:59:00,73.2,46.1,30.36,SSW,209,0.0,3.6,38,0.00,,---,0.00,VWS V14.01,2013-05-13 14:59:00,
2013-05-13 10:00:00,73.6,45.7,30.36,SSW,209,0.0,0.0,37,0.00,,---,0.00,VWS V14.01,2013-05-13 15:00:00,
2013-05-13 10:01:00,73.9,44.6,30.36,South,178,3.6,4.0,35,0.00,,---,0.00,VWS V14.01,2013-05-13 15:01:00,
2013-05-13 10:02:00,73.9,44.6,30.36,South,177,2.7,4.0,35,0.00,,---,0.00,VWS V14.01,2013-05-13 15:02:00,
2013-05-13 10:03:00,74.1,44.0,30.36,SW,236,4.9,4.9,34,0.00,,---,0.00,VWS V14.01,2013-05-13 15:03:00,
2013-05-13 10:04:00,74.3,44.2,30.36,SSE,154,5.4,5.8,34,0.00,,---,0.00,VWS V14.01,2013-05-13 15:04:00,
2013-05-13 10:05:00,74.5,43.5,30.36,SSW,197,5.4,5.8,33,0.00,,---,0.00,VWS V14.01,2013-05-13 15:05:00,
2013-05-13 10:06:00,74.8,43.8,30.36,SW,230,2.7,5.4,33,0.00,,---,0.00,VWS V14.01,2013-05-13 15:06:00,
2013-05-13 10:07:00,74.8,43.8,30.36,South,191,5.4,5.4,33,0.00,,---,0.00,VWS V14.01,2013-05-13 15:07:00,
2013-05-13 10:08:00,75.2,44.2,30.36,South,184,0.0,5.4,33,0.00,,---,0.00,VWS V14.01,2013-05-13 15:08:00,
2013-05-13 10:09:00,75.2,43.3,30.36,South,191,2.2,5.8,32,0.00,,---,0.00,VWS V14.01,2013-05-13 15:09:00,
2013-05-13 10:10:00,75.6,43.7,30.36,SSW,212,3.6,4.0,32,0.00,,---,0.00,VWS V14.01,2013-05-13 15:10:00,
2013-05-13 10:11:00,75.7,43.8,30.36,South,191,2.7,6.3,32,0.00,,---,0.00,VWS V14.01,2013-05-13 15:11:00,
2013-05-13 10:12:00,75.7,43.8,30.36,SSE,163,3.6,6.3,32,0.00,,---,0.00,VWS V14.01,2013-05-13 15:12:00,
2013-05-13 10:13:00,75.7,43.8,30.36,SSW,192,4.0,5.8,32,0.00,,---,0.00,VWS V14.01,2013-05-13 15:13:00,
2013-05-13 10:14:00,75.9,44.0,30.36,SSW,211,5.4,5.8,32,0.00,,---,0.00,VWS V14.01,2013-05-13 15:14:00,
2013-05-13 10:15:00,75.9,44.0,30.36,South,184,2.2,5.4,32,0.00,,---,0.00,VWS V14.01,2013-05-13 15:15:00,
2013-05-13 10:16:00,76.5,44.4,30.36,SW,230,5.8,5.8,32,0.00,,---,0.00,VWS V14.01,2013-05-13 15:16:00,
2013-05-13 10:17:00,76.5,44.4,30.36,SSE,162,3.1,5.8,32,0.00,,---,0.00,VWS V14.01,2013-05-13 15:17:00,
2013-05-13 10:18:00,76.8,43.9,30.36,West,261,3.6,4.9,31,0.00,,---,0.00,VWS V14.01,2013-05-13 15:18:00,
2013-05-13 10:19:00,77.0,44.1,30.36,South,183,2.7,4.9,31,0.00,,---,0.00,VWS V14.01,2013-05-13 15:19:00,
2013-05-13 10:20:00,77.0,44.1,30.36,South,180,0.0,3.6,31,0.00,,---,0.00,VWS V14.01,2013-05-13 15:20:00,
2013-05-13 10:21:00,77.5,44.5,30.36,WSW,239,3.1,3.1,31,0.00,,---,0.00,VWS V14.01,2013-05-13 15:21:00,
2013-05-13 10:22:00,77.5,44.5,30.36,South,184,2.7,3.1,31,0.00,,---,0.00,VWS V14.01,2013-05-13 15:22:00,
2013-05-13 10:23:00,77.9,44.9,30.36,South,178,0.0,3.1,31,0.00,,---,0.00,VWS V14.01,2013-05-13 15:23:00,
2013-05-13 10:24:00,78.1,45.0,30.36,South,183,3.6,3.6,31,0.00,,---,0.00,VWS V14.01,2013-05-13 15:24:00,
2013-05-13 10:25:00,78.1,45.0,30.36,SSW,197,2.2,4.0,31,0.00,,---,0.00,VWS V14.01,2013-05-13 15:25:00,
2013-05-13 10:26:00,78.4,45.3,30.36,SSW,207,0.0,3.6,31,0.00,,---,0.00,VWS V14.01,2013-05-13 15:26:00,
2013-05-13 10:27:00,78.6,45.5,30.36,SSW,206,0.0,3.6,31,0.00,,---,0.00,VWS V14.01,2013-05-13 15:27:00,
2013-05-13 10:28:00,78.8,44.8,30.36,SW,233,0.0,3.1,30,0.00,,---,0.00,VWS V14.01,2013-05-13 15:28:00,
2013-05-13 10:29:00,78.8,44.8,30.36,SSW,204,3.1,4.0,30,0.00,,---,0.00,VWS V14.01,2013-05-13 15:29:00,
2013-05-13 10:30:00,78.6,44.6,30.36,SSW,208,5.8,6.3,30,0.00,,---,0.00,VWS V14.01,2013-05-13 15:30:00,
2013-05-13 10:31:00,78.3,44.3,30.36,SSW,196,4.0,4.5,30,0.00,,---,0.00,VWS V14.01,2013-05-13 15:31:00,
2013-05-13 10:32:00,78.3,44.3,30.36,SW,222,4.0,4.5,30,0.00,,---,0.00,VWS V14.01,2013-05-13 15:32:00,
2013-05-13 10:33:00,78.4,44.5,30.36,SW,220,3.6,4.9,30,0.00,,---,0.00,VWS V14.01,2013-05-13 15:33:00,
2013-05-13 10:34:00,78.4,44.5,30.36,South,169,3.6,4.9,30,0.00,,---,0.00,VWS V14.01,2013-05-13 15:34:00,
2013-05-13 10:35:00,78.8,44.8,30.36,South,170,0.0,4.0,30,0.00,,---,0.00,VWS V14.01,2013-05-13 15:35:00,
2013-05-13 10:36:00,79.9,45.7,30.36,South,170,0.0,0.0,30,0.00,,---,0.00,VWS V14.01,2013-05-13 15:36:00,
2013-05-13 10:37:00,79.9,45.7,30.36,South,170,0.0,0.0,30,0.00,,---,0.00,VWS V14.01,2013-05-13 15:37:00,
2013-05-13 10:38:00,80.6,46.3,30.36,South,170,0.0,0.0,30,0.00,,---,0.00,VWS V14.01,2013-05-13 15:38:00,
2013-05-13 10:39:00,81.3,47.0,30.36,SW,226,0.0,3.1,30,0.00,,---,0.00,VWS V14.01,2013-05-13 15:39:00,
2013-05-13 10:40:00,81.7,47.3,30.36,SW,226,0.0,2.2,30,0.00,,---,0.00,VWS V14.01,2013-05-13 15:40:00,
2013-05-13 10:41:00,82.6,47.1,30.36,SW,226,0.0,0.0,29,0.00,,---,0.00,VWS V14.01,2013-05-13 15:41:00,
2013-05-13 10:42:00,82.6,47.1,30.36,SW,226,0.0,0.0,29,0.00,,---,0.00,VWS V14.01,2013-05-13 15:42:00,
2013-05-13 10:43:00,82.8,47.3,30.36,SW,226,0.0,0.0,29,0.00,,---,0.00,VWS V14.01,2013-05-13 15:43:00,
2013-05-13 10:44:00,83.7,48.1,30.36,West,281,0.0,0.0,29,0.00,,---,0.00,VWS V14.01,2013-05-13 15:44:00,
2013-05-13 10:45:00,83.3,47.8,30.36,South,191,0.0,0.0,29,0.00,,---,0.00,VWS V14.01,2013-05-13 15:45:00,
2013-05-13 10:46:00,84.2,48.5,30.36,South,191,0.0,0.0,29,0.00,,---,0.00,VWS V14.01,2013-05-13 15:46:00,
2013-05-13 10:47:00,84.2,48.5,30.36,South,191,0.0,0.0,29,0.00,,---,0.00,VWS V14.01,2013-05-13 15:47:00,
2013-05-13 10:48:00,84.4,48.7,30.36,South,191,0.0,0.0,29,0.00,,---,0.00,VWS V14.01,2013-05-13 15:48:00,
2013-05-13 10:49:00,83.7,47.1,30.36,SW,229,5.4,5.4,28,0.00,,---,0.00,VWS V14.01,2013-05-13 15:49:00,
2013-05-13 10:50:00,83.3,46.8,30.36,SW,234,2.7,5.4,28,0.00,,---,0.00,VWS V14.01,2013-05-13 15:50:00,
2013-05-13 10:51:00,82.9,46.5,30.36,SSW,206,2.7,5.4,28,0.00,,---,0.00,VWS V14.01,2013-05-13 15:51:00,
2013-05-13 10:52:00,82.9,46.5,30.36,South,185,5.4,5.4,28,0.00,,---,0.00,VWS V14.01,2013-05-13 15:52:00,
2013-05-13 10:53:00,82.2,44.9,30.36,SW,222,3.1,5.4,27,0.00,,---,0.00,VWS V14.01,2013-05-13 15:53:00,
2013-05-13 10:54:00,82.2,45.9,30.36,SSW,209,3.1,3.6,28,0.00,,---,0.00,VWS V14.01,2013-05-13 15:54:00,
2013-05-13 10:55:00,81.7,44.5,30.36,South,183,5.8,5.8,27,0.00,,---,0.00,VWS V14.01,2013-05-13 15:55:00,
2013-05-13 10:56:00,81.5,44.3,30.36,South,190,2.2,3.1,27,0.00,,---,0.00,VWS V14.01,2013-05-13 15:56:00,
2013-05-13 10:57:00,81.5,44.3,30.36,South,190,0.0,3.1,27,0.00,,---,0.00,VWS V14.01,2013-05-13 15:57:00,
2013-05-13 10:58:00,82.4,46.1,30.36,South,190,0.0,0.0,28,0.00,,---,0.00,VWS V14.01,2013-05-13 15:58:00,
2013-05-13 10:59:00,82.2,45.9,30.36,SSW,213,2.7,2.7,28,0.00,,---,0.00,VWS V14.01,2013-05-13 15:59:00,
2013-05-13 11:00:00,82.4,45.1,30.36,SSW,213,0.0,2.7,27,0.00,,---,0.00,VWS V14.01,2013-05-13 16:00:00,
2013-05-13 11:01:00,82.2,44.9,30.39,SSE,165,3.1,4.0,27,0.00,,---,0.00,VWS V14.01,2013-05-13 16:01:00,
2013-05-13 11:02:00,82.2,44.9,30.39,SSE,159,3.6,4.0,27,0.00,,---,0.00,VWS V14.01,2013-05-13 16:02:00,
2013-05-13 11:03:00,82.0,44.8,30.39,South,190,2.2,4.5,27,0.00,,---,0.00,VWS V14.01,2013-05-13 16:03:00,
2013-05-13 11:04:00,82.2,44.9,30.39,South,184,0.0,2.7,27,0.00,,---,0.00,VWS V14.01,2013-05-13 16:04:00,
2013-05-13 11:05:00,82.4,45.1,30.39,SSE,166,3.6,3.6,27,0.00,,---,0.00,VWS V14.01,2013-05-13 16:05:00,
2013-05-13 11:06:00,82.0,45.8,30.39,SSW,198,0.0,5.4,28,0.00,,---,0.00,VWS V14.01,2013-05-13 16:06:00,
2013-05-13 11:07:00,82.0,45.8,30.39,SSW,198,0.0,5.4,28,0.00,,---,0.00,VWS V14.01,2013-05-13 16:07:00,
2013-05-13 11:08:00,82.8,46.4,30.39,SSE,154,0.0,0.0,28,0.00,,---,0.00,VWS V14.01,2013-05-13 16:08:00,
2013-05-13 11:09:00,83.1,46.7,30.39,SSE,154,0.0,0.0,28,0.00,,---,0.00,VWS V14.01,2013-05-13 16:09:00,
2013-05-13 11:10:00,83.7,47.1,30.39,SW,215,4.9,4.9,28,0.00,,---,0.00,VWS V14.01,2013-05-13 16:10:00,
2013-05-13 11:11:00,82.4,44.1,30.39,SSW,196,8.3,8.3,26,0.00,,---,0.00,VWS V14.01,2013-05-13 16:11:00,
2013-05-13 11:12:00,82.4,44.1,30.39,SW,219,5.4,8.3,26,0.00,,---,0.00,VWS V14.01,2013-05-13 16:12:00,
2013-05-13 11:13:00,81.7,43.5,30.39,South,185,5.4,6.3,26,0.00,,---,0.00,VWS V14.01,2013-05-13 16:13:00,
2013-05-13 11:14:00,81.9,44.6,30.39,SSE,153,2.2,5.4,27,0.00,,---,0.00,VWS V14.01,2013-05-13 16:14:00,
2013-05-13 11:15:00,82.4,45.1,30.39,SSE,153,0.0,2.2,27,0.00,,---,0.00,VWS V14.01,2013-05-13 16:15:00,
2013-05-13 11:16:00,83.1,45.7,30.36,SSE,153,0.0,0.0,27,0.00,,---,0.00,VWS V14.01,2013-05-13 16:16:00,
2013-05-13 11:17:00,83.5,46.0,30.36,South,170,0.0,0.0,27,0.00,,---,0.00,VWS V14.01,2013-05-13 16:17:00,
2013-05-13 11:18:00,83.3,45.9,30.36,South,188,2.2,3.1,27,0.00,,---,0.00,VWS V14.01,2013-05-13 16:18:00,
2013-05-13 11:19:00,83.1,43.7,30.36,South,190,8.3,8.3,25,0.00,,---,0.00,VWS V14.01,2013-05-13 16:19:00,
2013-05-13 11:20:00,82.6,44.3,30.36,South,183,3.6,8.3,26,0.00,,---,0.00,VWS V14.01,2013-05-13 16:20:00,
2013-05-13 11:21:00,81.9,43.7,30.36,SSW,198,2.7,4.9,26,0.00,,---,0.00,VWS V14.01,2013-05-13 16:21:00,
2013-05-13 11:22:00,81.9,43.7,30.36,SSW,198,2.2,4.9,26,0.00,,---,0.00,VWS V14.01,2013-05-13 16:22:00,
2013-05-13 11:23:00,82.0,43.8,30.36,SSW,211,3.6,3.6,26,0.00,,---,0.00,VWS V14.01,2013-05-13 16:23:00,
2013-05-13 11:24:00,81.9,43.7,30.36,SW,229,0.0,4.0,26,0.00,,---,0.00,VWS V14.01,2013-05-13 16:24:00,
2013-05-13 11:25:00,82.2,44.0,30.36,South,177,3.1,4.9,26,0.00,,---,0.00,VWS V14.01,2013-05-13 16:25:00,
2013-05-13 11:26:00,82.0,43.8,30.36,SW,225,4.9,5.4,26,0.00,,---,0.00,VWS V14.01,2013-05-13 16:26:00,
2013-05-13 11:27:00,82.0,43.8,30.36,South,181,3.1,5.4,26,0.00,,---,0.00,VWS V14.01,2013-05-13 16:27:00,
2013-05-13 11:28:00,82.6,45.2,30.36,South,181,0.0,3.1,27,0.00,,---,0.00,VWS V14.01,2013-05-13 16:28:00,
2013-05-13 11:29:00,83.1,46.7,30.36,South,181,0.0,0.0,28,0.00,,---,0.00,VWS V14.01,2013-05-13 16:29:00,
2013-05-13 11:30:00,84.0,45.5,30.36,SSW,206,4.0,4.0,26,0.00,,---,0.00,VWS V14.01,2013-05-13 16:30:00,
2013-05-13 11:31:00,83.5,45.0,30.36,SSE,162,5.4,5.4,26,0.00,,---,0.00,VWS V14.01,2013-05-13 16:31:00,
2013-05-13 11:32:00,83.5,45.0,30.36,SSE,165,4.9,5.4,26,0.00,,---,0.00,VWS V14.01,2013-05-13 16:32:00,
2013-05-13 11:33:00,83.5,45.0,30.36,SSE,159,2.2,4.9,26,0.00,,---,0.00,VWS V14.01,2013-05-13 16:33:00,
2013-05-13 11:34:00,83.5,45.0,30.36,SW,216,3.6,3.6,26,0.00,,---,0.00,VWS V14.01,2013-05-13 16:34:00,
2013-05-13 11:35:00,83.8,45.3,30.36,SW,216,0.0,3.6,26,0.00,,---,0.00,VWS V14.01,2013-05-13 16:35:00,
2013-05-13 11:36:00,84.9,45.2,30.36,SSW,207,4.0,4.0,25,0.00,,---,0.00,VWS V14.01,2013-05-13 16:36:00,
2013-05-13 11:37:00,84.6,44.9,30.36,SW,218,2.7,4.0,25,0.00,,---,0.00,VWS V14.01,2013-05-13 16:37:00,
2013-05-13 11:38:00,84.4,44.8,30.36,South,181,2.2,4.0,25,0.00,,---,0.00,VWS V14.01,2013-05-13 16:38:00,
2013-05-13 11:39:00,83.8,44.3,30.36,SSW,211,5.4,5.4,25,0.00,,---,0.00,VWS V14.01,2013-05-13 16:39:00,
2013-05-13 11:40:00,83.5,42.9,30.36,SSE,164,3.6,6.3,24,0.00,,---,0.00,VWS V14.01,2013-05-13 16:40:00,
2013-05-13 11:41:00,83.8,44.3,30.36,South,179,0.0,0.0,25,0.00,,---,0.00,VWS V14.01,2013-05-13 16:41:00,
2013-05-13 11:42:00,83.8,44.3,30.36,South,179,0.0,0.0,25,0.00,,---,0.00,VWS V14.01,2013-05-13 16:42:00,
2013-05-13 11:43:00,84.4,43.7,30.36,SW,217,4.9,4.9,24,0.00,,---,0.00,VWS V14.01,2013-05-13 16:43:00,
2013-05-13 11:44:00,84.0,43.4,30.36,SSW,200,2.7,4.9,24,0.00,,---,0.00,VWS V14.01,2013-05-13 16:44:00,
2013-05-13 11:45:00,83.8,44.3,30.36,SW,230,3.1,3.6,25,0.00,,---,0.00,VWS V14.01,2013-05-13 16:45:00,
2013-05-13 11:46:00,84.2,43.5,30.36,SSE,164,4.0,4.0,24,0.00,,---,0.00,VWS V14.01,2013-05-13 16:46:00,
2013-05-13 11:47:00,84.2,43.5,30.36,South,185,4.0,4.0,24,0.00,,---,0.00,VWS V14.01,2013-05-13 16:47:00,
2013-05-13 11:48:00,84.0,43.4,30.36,SSW,208,2.7,4.0,24,0.00,,---,0.00,VWS V14.01,2013-05-13 16:48:00,
2013-05-13 11:49:00,84.0,43.4,30.36,SW,220,0.0,3.1,24,0.00,,---,0.00,VWS V14.01,2013-05-13 16:49:00,
2013-05-13 11:50:00,83.8,43.2,30.36,SW,220,5.8,5.8,24,0.00,,---,0.00,VWS V14.01,2013-05-13 16:50:00,
2013-05-13 11:51:00,83.8,43.2,30.36,SSW,196,4.0,5.8,24,0.00,,---,0.00,VWS V14.01,2013-05-13 16:51:00,
2013-05-13 11:52:00,83.7,43.1,30.36,South,180,3.1,4.0,24,0.00,,---,0.00,VWS V14.01,2013-05-13 16:52:00,
2013-05-13 11:53:00,83.7,43.1,30.36,South,189,3.6,4.9,24,0.00,,---,0.00,VWS V14.01,2013-05-13 16:53:00,
2013-05-13 11:54:00,83.7,44.2,30.36,South,189,2.2,3.6,25,0.00,,---,0.00,VWS V14.01,2013-05-13 16:54:00,
2013-05-13 11:55:00,83.8,44.3,30.36,West,276,0.0,2.7,25,0.00,,---,0.00,VWS V14.01,2013-05-13 16:55:00,
2013-05-13 11:56:00,83.8,43.2,30.36,South,179,3.6,3.6,24,0.00,,---,0.00,VWS V14.01,2013-05-13 16:56:00,
2013-05-13 11:57:00,83.8,43.2,30.36,South,179,3.6,3.6,24,0.00,,---,0.00,VWS V14.01,2013-05-13 16:57:00,
2013-05-13 11:58:00,83.7,43.1,30.36,SW,215,3.1,5.4,24,0.00,,---,0.00,VWS V14.01,2013-05-13 16:58:00,
2013-05-13 11:59:00,83.7,43.1,30.36,SSW,210,3.1,3.6,24,0.00,,---,0.00,VWS V14.01,2013-05-13 16:59:00,
2013-05-13 12:00:00,83.5,42.9,30.36,SSW,206,3.6,4.0,24,0.00,,---,0.00,VWS V14.01,2013-05-13 17:00:00,
2013-05-13 12:01:00,84.6,44.9,30.36,South,184,0.0,0.0,25,0.00,,---,0.00,VWS V14.01,2013-05-13 17:01:00,
2013-05-13 12:02:00,84.6,44.9,30.36,South,184,0.0,0.0,25,0.00,,---,0.00,VWS V14.01,2013-05-13 17:02:00,
2013-05-13 12:03:00,84.7,45.1,30.36,SW,216,4.0,4.0,25,0.00,,---,0.00,VWS V14.01,2013-05-13 17:03:00,
2013-05-13 12:04:00,84.2,43.5,30.36,SSE,166,3.6,5.4,24,0.00,,---,0.00,VWS V14.01,2013-05-13 17:04:00,
2013-05-13 12:05:00,84.6,44.9,30.36,SSE,166,0.0,3.6,25,0.00,,---,0.00,VWS V14.01,2013-05-13 17:05:00,
2013-05-13 12:06:00,84.9,44.1,30.36,West,268,2.7,2.7,24,0.00,,---,0.00,VWS V14.01,2013-05-13 17:06:00,
2013-05-13 12:07:00,84.9,44.1,30.36,SW,235,4.0,4.0,24,0.00,,---,0.00,VWS V14.01,2013-05-13 17:07:00,
2013-05-13 12:08:00,84.6,42.7,30.36,SSE,165,2.2,4.0,23,0.00,,---,0.00,VWS V14.01,2013-05-13 17:08:00,
2013-05-13 12:09:00,84.2,42.4,30.36,SSW,200,3.6,4.9,23,0.00,,---,0.00,VWS V14.01,2013-05-13 17:09:00,
2013-05-13 12:10:00,83.8,43.2,30.36,South,176,0.0,3.6,24,0.00,,---,0.00,VWS V14.01,2013-05-13 17:10:00,
2013-05-13 12:11:00,84.4,43.7,30.36,SSW,204,5.8,5.8,24,0.00,,---,0.00,VWS V14.01,2013-05-13 17:11:00,
2013-05-13 12:12:00,84.4,43.7,30.36,SSW,204,5.8,5.8,24,0.00,,---,0.00,VWS V14.01,2013-05-13 17:12:00,
2013-05-13 12:13:00,84.2,42.4,30.36,SSW,213,5.4,5.8,23,0.00,,---,0.00,VWS V14.01,2013-05-13 17:13:00,
2013-05-13 12:14:00,83.8,42.1,30.36,South,169,3.1,5.4,23,0.00,,---,0.00,VWS V14.01,2013-05-13 17:14:00,
2013-05-13 12:15:00,83.7,42.0,30.36,South,173,3.6,3.6,23,0.00,,---,0.00,VWS V14.01,2013-05-13 17:15:00,
2013-05-13 12:16:00,83.7,43.1,30.36,South,190,0.0,3.6,24,0.00,,---,0.00,VWS V14.01,2013-05-13 17:16:00,
2013-05-13 12:17:00,83.7,43.1,30.36,South,190,0.0,3.6,24,0.00,,---,0.00,VWS V14.01,2013-05-13 17:17:00,
2013-05-13 12:18:00,83.8,43.2,30.36,South,185,0.0,0.0,24,0.00,,---,0.00,VWS V14.01,2013-05-13 17:18:00,
2013-05-13 12:19:00,84.7,44.0,30.36,South,191,0.0,0.0,24,0.00,,---,0.00,VWS V14.01,2013-05-13 17:19:00,
2013-05-13 12:20:00,84.7,44.0,30.36,SW,227,2.7,2.7,24,0.00,,---,0.00,VWS V14.01,2013-05-13 17:20:00,
2013-05-13 12:21:00,85.6,44.7,30.36,South,191,0.0,0.0,24,0.00,,---,0.00,VWS V14.01,2013-05-13 17:21:00,
2013-05-13 12:22:00,85.6,44.7,30.36,South,191,0.0,0.0,24,0.00,,---,0.00,VWS V14.01,2013-05-13 17:22:00,
2013-05-13 12:23:00,85.8,44.9,30.36,South,191,0.0,0.0,24,0.00,,---,0.00,VWS V14.01,2013-05-13 17:23:00,
2013-05-13 12:24:00,86.2,44.1,30.36,SSW,194,2.7,2.7,23,0.00,,---,0.00,VWS V14.01,2013-05-13 17:24:00,
2013-05-13 12:25:00,85.8,43.8,30.36,West,266,2.7,4.0,23,0.00,,---,0.00,VWS V14.01,2013-05-13 17:25:00,
2013-05-13 12:26:00,84.9,43.0,30.36,SW,227,4.0,5.8,23,0.00,,---,0.00,VWS V14.01,2013-05-13 17:26:00,
2013-05-13 12:27:00,84.9,43.0,30.36,SW,227,4.0,5.8,23,0.00,,---,0.00,VWS V14.01,2013-05-13 17:27:00,
2013-05-13 12:28:00,84.4,42.6,30.36,SW,219,3.6,5.4,23,0.00,,---,0.00,VWS V14.01,2013-05-13 17:28:00,
2013-05-13 12:29:00,84.0,42.3,30.36,SSW,194,5.4,5.4,23,0.00,,---,0.00,VWS V14.01,2013-05-13 17:29:00,
2013-05-13 12:30:00,83.7,42.0,30.36,SSW,193,3.1,6.3,23,0.00,,---,0.00,VWS V14.01,2013-05-13 17:30:00,
2013-05-13 12:43:00,84.2,42.4,30.36,SW,218,2.2,2.2,23,0.00,,---,0.00,VWS V14.01,2013-05-13 17:43:00,
2013-05-13 12:44:00,84.2,42.4,30.36,SW,218,2.2,2.2,23,0.00,,---,0.00,VWS V14.01,2013-05-13 17:44:00,
2013-05-13 12:45:00,84.2,42.4,30.36,SSW,211,3.6,5.8,23,0.00,,---,0.00,VWS V14.01,2013-05-13 17:45:00,
2013-05-13 12:46:00,84.6,42.7,30.36,SSE,156,5.4,5.4,23,0.00,,---,0.00,VWS V14.01,2013-05-13 17:46:00,
2013-05-13 12:47:00,84.6,41.6,30.33,SW,233,3.1,5.4,22,0.00,,---,0.00,VWS V14.01,2013-05-13 17:47:00,
2013-05-13 12:48:00,84.7,42.9,30.33,SW,215,4.0,4.0,23,0.00,,---,0.00,VWS V14.01,2013-05-13 17:48:00,
2013-05-13 12:49:00,84.7,42.9,30.33,SW,215,4.0,4.0,23,0.00,,---,0.00,VWS V14.01,2013-05-13 17:49:00,
2013-05-13 12:50:00,84.7,41.7,30.33,SW,233,3.1,4.0,22,0.00,,---,0.00,VWS V14.01,2013-05-13 17:50:00,
2013-05-13 12:51:00,84.9,43.0,30.33,South,177,2.7,3.6,23,0.00,,---,0.00,VWS V14.01,2013-05-13 17:51:00,
2013-05-13 12:52:00,84.7,42.9,30.33,South,190,4.0,4.9,23,0.00,,---,0.00,VWS V14.01,2013-05-13 17:52:00,
2013-05-13 12:53:00,84.6,41.6,30.33,South,176,5.8,5.8,22,0.00,,---,0.00,VWS V14.01,2013-05-13 17:53:00,
2013-05-13 12:54:00,84.6,41.6,30.33,South,176,5.8,5.8,22,0.00,,---,0.00,VWS V14.01,2013-05-13 17:54:00,
2013-05-13 12:55:00,84.0,39.9,30.33,South,182,5.4,5.8,21,0.00,,---,0.00,VWS V14.01,2013-05-13 17:55:00,
2013-05-13 12:56:00,83.8,41.0,30.33,South,186,2.2,5.4,22,0.00,,---,0.00,VWS V14.01,2013-05-13 17:56:00,
2013-05-13 12:57:00,84.4,41.4,30.33,SSE,157,0.0,2.2,22,0.00,,---,0.00,VWS V14.01,2013-05-13 17:57:00,
2013-05-13 12:58:00,84.6,41.6,30.33,SSW,196,3.1,3.1,22,0.00,,---,0.00,VWS V14.01,2013-05-13 17:58:00,
2013-05-13 12:59:00,84.4,40.2,30.33,SSE,157,3.1,4.0,21,0.00,,---,0.00,VWS V14.01,2013-05-13 17:59:00,
2013-05-13 13:00:00,84.2,41.3,30.33,SSW,195,2.2,3.6,22,0.00,,---,0.00,VWS V14.01,2013-05-13 18:00:00,
2013-05-13 13:01:00,84.7,41.7,30.33,SSW,195,0.0,2.2,22,0.00,,---,0.00,VWS V14.01,2013-05-13 18:01:00,
2013-05-13 13:02:00,84.9,41.9,30.33,SSW,204,3.6,3.6,22,0.00,,---,0.00,VWS V14.01,2013-05-13 18:02:00,
2013-05-13 13:03:00,84.6,41.6,30.33,SSW,209,0.0,3.1,22,0.00,,---,0.00,VWS V14.01,2013-05-13 18:03:00,
2013-05-13 13:04:00,84.6,41.6,30.33,SSW,209,0.0,3.1,22,0.00,,---,0.00,VWS V14.01,2013-05-13 18:04:00,
2013-05-13 13:05:00,85.1,42.0,30.33,SE,143,5.4,5.4,22,0.00,,---,0.00,VWS V14.01,2013-05-13 18:05:00,
2013-05-13 13:06:00,84.6,41.6,30.33,SSE,148,4.9,5.4,22,0.00,,---,0.00,VWS V14.01,2013-05-13 18:06:00,
2013-05-13 13:07:00,84.2,41.3,30.33,South,181,3.6,4.9,22,0.00,,---,0.00,VWS V14.01,2013-05-13 18:07:00,
2013-05-13 13:08:00,83.8,41.0,30.33,SSW,206,3.1,4.9,22,0.00,,---,0.00,VWS V14.01,2013-05-13 18:08:00,
2013-05-13 13:09:00,83.8,41.0,30.33,SSW,206,3.1,4.9,22,0.00,,---,0.00,VWS V14.01,2013-05-13 18:09:00,
2013-05-13 13:10:00,84.2,41.3,30.33,SSE,168,0.0,3.1,22,0.00,,---,0.00,VWS V14.01,2013-05-13 18:10:00,
2013-05-13 13:11:00,84.4,41.4,30.33,SSW,194,0.0,3.1,22,0.00,,---,0.00,VWS V14.01,2013-05-13 18:11:00,
2013-05-13 13:12:00,84.6,42.7,30.33,SSE,167,4.0,4.0,23,0.00,,---,0.00,VWS V14.01,2013-05-13 18:12:00,
2013-05-13 13:13:00,84.9,43.0,30.33,SSW,205,0.0,2.2,23,0.00,,---,0.00,VWS V14.01,2013-05-13 18:13:00,
2013-05-13 13:14:00,84.9,43.0,30.33,SSW,205,0.0,2.2,23,0.00,,---,0.00,VWS V14.01,2013-05-13 18:14:00,
2013-05-13 13:15:00,85.3,43.3,30.33,SSW,205,0.0,0.0,23,0.00,,---,0.00,VWS V14.01,2013-05-13 18:15:00,
2013-05-13 13:16:00,86.4,44.2,30.33,SSW,205,0.0,0.0,23,0.00,,---,0.00,VWS V14.01,2013-05-13 18:16:00,
2013-05-13 13:17:00,86.7,43.4,30.33,SSW,205,0.0,0.0,22,0.00,,---,0.00,VWS V14.01,2013-05-13 18:17:00,
2013-05-13 13:18:00,87.6,44.1,30.33,SSW,206,0.0,0.0,22,0.00,,---,0.00,VWS V14.01,2013-05-13 18:18:00,
2013-05-13 13:19:00,87.6,44.1,30.33,SSW,206,0.0,0.0,22,0.00,,---,0.00,VWS V14.01,2013-05-13 18:19:00,
2013-05-13 13:20:00,88.3,44.7,30.33,SSW,205,0.0,0.0,22,0.00,,---,0.00,VWS V14.01,2013-05-13 18:20:00,
2013-05-13 13:21:00,88.7,45.0,30.33,SSW,206,0.0,0.0,22,0.00,,---,0.00,VWS V14.01,2013-05-13 18:21:00,
2013-05-13 13:22:00,88.7,45.0,30.33,SSW,206,0.0,0.0,22,0.00,,---,0.00,VWS V14.01,2013-05-13 18:22:00,
2013-05-13 13:23:00,88.5,43.6,30.33,ESE,103,3.1,3.1,21,0.00,,---,0.00,VWS V14.01,2013-05-13 18:23:00,
2013-05-13 13:24:00,88.5,43.6,30.33,ESE,103,3.1,3.1,21,0.00,,---,0.00,VWS V14.01,2013-05-13 18:24:00,
2013-05-13 13:25:00,88.2,43.3,30.33,South,179,3.1,3.1,21,0.00,,---,0.00,VWS V14.01,2013-05-13 18:25:00,
2013-05-13 13:26:00,87.3,42.6,30.33,South,172,2.7,5.4,21,0.00,,---,0.00,VWS V14.01,2013-05-13 18:26:00,
2013-05-13 13:27:00,87.1,43.7,30.33,South,172,0.0,2.7,22,0.00,,---,0.00,VWS V14.01,2013-05-13 18:27:00,
2013-05-13 13:28:00,87.1,43.7,30.33,South,183,2.7,2.7,22,0.00,,---,0.00,VWS V14.01,2013-05-13 18:28:00,
2013-05-13 13:29:00,85.8,41.4,30.33,South,175,5.8,6.3,21,0.00,,---,0.00,VWS V14.01,2013-05-13 18:29:00,
2013-05-13 13:30:00,85.3,41.0,30.33,South,190,2.7,5.8,21,0.00,,---,0.00,VWS V14.01,2013-05-13 18:30:00,
2013-05-13 13:31:00,85.3,41.0,30.33,South,171,3.1,4.0,21,0.00,,---,0.00,VWS V14.01,2013-05-13 18:31:00,
2013-05-13 13:32:00,85.1,40.8,30.33,SSW,202,5.8,5.8,21,0.00,,---,0.00,VWS V14.01,2013-05-13 18:32:00,
2013-05-13 13:33:00,85.1,40.8,30.33,SSW,199,0.0,5.8,21,0.00,,---,0.00,VWS V14.01,2013-05-13 18:33:00,
2013-05-13 13:34:00,85.1,40.8,30.33,South,180,0.0,0.0,21,0.00,,---,0.00,VWS V14.01,2013-05-13 18:34:00,
2013-05-13 13:35:00,85.3,41.0,30.33,West,267,2.7,3.1,21,0.00,,---,0.00,VWS V14.01,2013-05-13 18:35:00,
2013-05-13 13:36:00,84.9,40.7,30.33,SSE,160,6.3,6.3,21,0.00,,---,0.00,VWS V14.01,2013-05-13 18:36:00,
2013-05-13 13:37:00,84.6,40.4,30.33,South,179,3.1,6.3,21,0.00,,---,0.00,VWS V14.01,2013-05-13 18:37:00,
2013-05-13 13:38:00,84.0,39.9,30.33,South,189,3.1,3.1,21,0.00,,---,0.00,VWS V14.01,2013-05-13 18:38:00,
2013-05-13 13:39:00,83.1,39.2,30.33,SSW,196,4.0,5.8,21,0.00,,---,0.00,VWS V14.01,2013-05-13 18:39:00,
2013-05-13 13:40:00,83.1,39.2,30.33,SSW,196,4.0,5.8,21,0.00,,---,0.00,VWS V14.01,2013-05-13 18:40:00,
2013-05-13 13:41:00,83.1,39.2,30.33,SSW,200,0.0,4.0,21,0.00,,---,0.00,VWS V14.01,2013-05-13 18:41:00,
2013-05-13 13:42:00,82.8,38.9,30.33,SE,138,2.7,3.6,21,0.00,,---,0.00,VWS V14.01,2013-05-13 18:42:00,
2013-05-13 13:43:00,82.8,38.9,30.33,SE,138,0.0,2.7,21,0.00,,---,0.00,VWS V14.01,2013-05-13 18:43:00,
2013-05-13 13:44:00,83.3,40.5,30.33,SSW,205,0.0,0.0,22,0.00,,---,0.00,VWS V14.01,2013-05-13 18:44:00,
2013-05-13 13:45:00,83.3,40.5,30.33,SSW,205,0.0,0.0,22,0.00,,---,0.00,VWS V14.01,2013-05-13 18:45:00,
2013-05-13 13:46:00,82.9,39.0,30.33,SSW,202,4.0,4.0,21,0.00,,---,0.00,VWS V14.01,2013-05-13 18:46:00,
2013-05-13 13:47:00,82.6,38.7,30.33,South,186,3.1,5.8,21,0.00,,---,0.00,VWS V14.01,2013-05-13 18:47:00,
2013-05-13 13:48:00,82.6,38.7,30.33,SSW,210,4.0,4.0,21,0.00,,---,0.00,VWS V14.01,2013-05-13 18:48:00,
2013-05-13 13:49:00,82.6,38.7,30.33,SSE,153,3.1,4.9,21,0.00,,---,0.00,VWS V14.01,2013-05-13 18:49:00,
2013-05-13 13:50:00,82.6,38.7,30.33,SSE,153,3.1,4.9,21,0.00,,---,0.00,VWS V14.01,2013-05-13 18:50:00,
2013-05-13 13:51:00,82.8,38.9,30.33,SSE,152,0.0,3.1,21,0.00,,---,0.00,VWS V14.01,2013-05-13 18:51:00,
2013-05-13 13:52:00,82.9,39.0,30.33,SE,136,0.0,0.0,21,0.00,,---,0.00,VWS V14.01,2013-05-13 18:52:00,
2013-05-13 13:53:00,83.3,39.3,30.33,South,170,4.0,4.0,21,0.00,,---,0.00,VWS V14.01,2013-05-13 18:53:00,
2013-05-13 13:54:00,82.2,39.6,30.33,SW,226,3.6,4.9,22,0.00,,---,0.00,VWS V14.01,2013-05-13 18:54:00,
2013-05-13 13:55:00,82.2,39.6,30.33,SW,226,3.6,4.9,22,0.00,,---,0.00,VWS V14.01,2013-05-13 18:55:00,
2013-05-13 13:56:00,82.0,39.5,30.33,SSW,200,2.7,3.6,22,0.00,,---,0.00,VWS V14.01,2013-05-13 18:56:00,
2013-05-13 13:57:00,82.0,39.5,30.33,South,185,4.0,4.0,22,0.00,,---,0.00,VWS V14.01,2013-05-13 18:57:00,
2013-05-13 13:58:00,81.9,39.3,30.33,SW,220,2.2,5.4,22,0.00,,---,0.00,VWS V14.01,2013-05-13 18:58:00,
2013-05-13 13:59:00,82.2,39.6,30.33,SSE,157,2.2,5.8,22,0.00,,---,0.00,VWS V14.01,2013-05-13 18:59:00,
2013-05-13 14:00:00,82.2,39.6,30.33,SSE,157,2.2,5.8,22,0.00,,---,0.00,VWS V14.01,2013-05-13 19:00:00,
2013-05-13 14:01:00,82.2,39.6,30.30,SSE,157,0.0,2.2,22,0.00,,---,0.00,VWS V14.01,2013-05-13 19:01:00,
2013-05-13 14:02:00,82.4,39.8,30.30,South,189,0.0,0.0,22,0.00,,---,0.00,VWS V14.01,2013-05-13 19:02:00,
2013-05-13 14:03:00,82.4,39.8,30.30,SW,222,2.7,2.7,22,0.00,,---,0.00,VWS V14.01,2013-05-13 19:03:00,
2013-05-13 14:04:00,82.4,39.8,30.30,SSW,208,3.1,3.6,22,0.00,,---,0.00,VWS V14.01,2013-05-13 19:04:00,
2013-05-13 14:05:00,82.4,39.8,30.30,SSW,208,3.1,3.6,22,0.00,,---,0.00,VWS V14.01,2013-05-13 19:05:00,
2013-05-13 14:06:00,81.9,39.3,30.30,South,172,5.4,5.4,22,0.00,,---,0.00,VWS V14.01,2013-05-13 19:06:00,
2013-05-13 14:07:00,81.7,39.2,30.30,SSW,209,2.7,5.4,22,0.00,,---,0.00,VWS V14.01,2013-05-13 19:07:00,
2013-05-13 14:08:00,81.5,39.0,30.30,SSW,209,0.0,2.7,22,0.00,,---,0.00,VWS V14.01,2013-05-13 19:08:00,
2013-05-13 14:09:00,81.9,39.3,30.30,SE,141,0.0,0.0,22,0.00,,---,0.00,VWS V14.01,2013-05-13 19:09:00,
2013-05-13 14:10:00,81.9,39.3,30.30,SE,141,0.0,0.0,22,0.00,,---,0.00,VWS V14.01,2013-05-13 19:10:00,
2013-05-13 14:11:00,81.9,39.3,30.30,ENE,78,0.0,0.0,22,0.00,,---,0.00,VWS V14.01,2013-05-13 19:11:00,
2013-05-13 14:12:00,81.9,38.1,30.30,SSE,164,3.6,4.0,21,0.00,,---,0.00,VWS V14.01,2013-05-13 19:12:00,
2013-05-13 14:13:00,81.5,39.0,30.30,South,172,0.0,3.6,22,0.00,,---,0.00,VWS V14.01,2013-05-13 19:13:00,
2013-05-13 14:14:00,81.7,39.2,30.30,SSE,153,0.0,0.0,22,0.00,,---,0.00,VWS V14.01,2013-05-13 19:14:00,
2013-05-13 14:15:00,81.7,39.2,30.30,SSE,153,0.0,0.0,22,0.00,,---,0.00,VWS V14.01,2013-05-13 19:15:00,
2013-05-13 14:16:00,81.7,39.2,30.30,South,173,3.1,3.6,22,0.00,,---,0.00,VWS V14.01,2013-05-13 19:16:00,
2013-05-13 14:17:00,81.7,39.2,30.33,South,173,0.0,3.1,22,0.00,,---,0.00,VWS V14.01,2013-05-13 19:17:00,
2013-05-13 14:18:00,81.7,39.2,30.33,SSW,203,0.0,0.0,22,0.00,,---,0.00,VWS V14.01,2013-05-13 19:18:00,
2013-05-13 14:19:00,82.4,38.6,30.33,SSW,203,0.0,0.0,21,0.00,,---,0.00,VWS V14.01,2013-05-13 19:19:00,
2013-05-13 14:20:00,82.4,38.6,30.33,SSW,203,0.0,0.0,21,0.00,,---,0.00,VWS V14.01,2013-05-13 19:20:00,
2013-05-13 14:21:00,82.6,38.7,30.33,SSE,168,4.9,4.9,21,0.00,,---,0.00,VWS V14.01,2013-05-13 19:21:00,
2013-05-13 14:22:00,82.4,38.6,30.33,SSW,213,0.0,4.9,21,0.00,,---,0.00,VWS V14.01,2013-05-13 19:22:00,
2013-05-13 14:23:00,82.4,38.6,30.33,SW,217,3.6,6.3,21,0.00,,---,0.00,VWS V14.01,2013-05-13 19:23:00,
2013-05-13 14:24:00,82.2,39.6,30.33,East,96,0.0,0.0,22,0.00,,---,0.00,VWS V14.01,2013-05-13 19:24:00,
2013-05-13 14:25:00,82.2,39.6,30.33,East,96,0.0,0.0,22,0.00,,---,0.00,VWS V14.01,2013-05-13 19:25:00,
2013-05-13 14:26:00,82.6,39.9,30.33,SE,146,3.1,3.1,22,0.00,,---,0.00,VWS V14.01,2013-05-13 19:26:00,
2013-05-13 14:27:00,82.6,39.9,30.33,SE,146,2.2,3.1,22,0.00,,---,0.00,VWS V14.01,2013-05-13 19:27:00,
2013-05-13 14:28:00,82.9,40.2,30.33,SE,146,0.0,2.2,22,0.00,,---,0.00,VWS V14.01,2013-05-13 19:28:00,
2013-05-13 14:29:00,83.3,40.5,30.33,NNW,345,0.0,0.0,22,0.00,,---,0.00,VWS V14.01,2013-05-13 19:29:00,
2013-05-13 14:30:00,83.3,40.5,30.33,NNW,345,0.0,0.0,22,0.00,,---,0.00,VWS V14.01,2013-05-13 19:30:00,
2013-05-13 14:31:00,83.3,40.5,30.33,NNW,345,0.0,0.0,22,0.00,,---,0.00,VWS V14.01,2013-05-13 19:31:00,
2013-05-13 14:32:00,82.9,39.0,30.33,South,170,4.0,4.0,21,0.00,,---,0.00,VWS V14.01,2013-05-13 19:32:00,
2013-05-13 14:33:00,82.6,38.7,30.33,South,191,3.6,4.0,21,0.00,,---,0.00,VWS V14.01,2013-05-13 19:33:00,
2013-05-13 14:34:00,82.2,39.6,30.33,SSE,167,3.1,3.6,22,0.00,,---,0.00,VWS V14.01,2013-05-13 19:34:00,
2013-05-13 14:35:00,82.2,39.6,30.33,SSE,167,3.1,3.6,22,0.00,,---,0.00,VWS V14.01,2013-05-13 19:35:00,
2013-05-13 14:36:00,81.9,39.3,30.33,SSE,160,2.7,4.0,22,0.00,,---,0.00,VWS V14.01,2013-05-13 19:36:00,
2013-05-13 14:37:00,81.5,37.8,30.33,SSW,197,2.7,4.0,21,0.00,,---,0.00,VWS V14.01,2013-05-13 19:37:00,
2013-05-13 14:38:00,81.1,38.7,30.33,SSW,195,6.3,6.3,22,0.00,,---,0.00,VWS V14.01,2013-05-13 19:38:00,
2013-05-13 14:39:00,80.6,37.1,30.33,South,188,2.7,5.8,21,0.00,,---,0.00,VWS V14.01,2013-05-13 19:39:00,
2013-05-13 14:40:00,80.6,37.1,30.33,South,188,2.7,5.8,21,0.00,,---,0.00,VWS V14.01,2013-05-13 19:40:00,
2013-05-13 14:41:00,80.2,36.8,30.33,South,173,4.5,7.6,21,0.00,,---,0.00,VWS V14.01,2013-05-13 19:41:00,
2013-05-13 14:42:00,80.2,38.0,30.33,SSW,193,3.6,4.5,22,0.00,,---,0.00,VWS V14.01,2013-05-13 19:42:00,
2013-05-13 14:43:00,80.2,38.0,30.33,SSE,157,3.1,4.0,22,0.00,,---,0.00,VWS V14.01,2013-05-13 19:43:00,
2013-05-13 14:44:00,80.2,38.0,30.33,SW,220,4.0,4.9,22,0.00,,---,0.00,VWS V14.01,2013-05-13 19:44:00,
2013-05-13 14:45:00,80.2,38.0,30.33,SSW,206,2.7,4.9,22,0.00,,---,0.00,VWS V14.01,2013-05-13 19:45:00,
2013-05-13 14:46:00,80.2,38.0,30.30,WSW,237,0.0,4.5,22,0.00,,---,0.00,VWS V14.01,2013-05-13 19:46:00,
2013-05-13 14:47:00,80.4,38.1,30.30,WSW,237,0.0,0.0,22,0.00,,---,0.00,VWS V14.01,2013-05-13 19:47:00,
2013-05-13 14:48:00,80.6,38.3,30.30,WSW,237,0.0,0.0,22,0.00,,---,0.00,VWS V14.01,2013-05-13 19:48:00,
2013-05-13 14:49:00,81.0,38.6,30.30,WSW,237,0.0,0.0,22,0.00,,---,0.00,VWS V14.01,2013-05-13 19:49:00,
2013-05-13 14:50:00,81.0,38.6,30.30,WSW,237,0.0,0.0,22,0.00,,---,0.00,VWS V14.01,2013-05-13 19:50:00,
2013-05-13 14:51:00,81.1,38.7,30.30,South,177,2.7,4.5,22,0.00,,---,0.00,VWS V14.01,2013-05-13 19:51:00,
2013-05-13 14:52:00,81.0,38.6,30.30,SSE,165,2.7,2.7,22,0.00,,---,0.00,VWS V14.01,2013-05-13 19:52:00,
2013-05-13 14:53:00,81.0,38.6,30.30,SSE,168,0.0,4.0,22,0.00,,---,0.00,VWS V14.01,2013-05-13 19:53:00,
2013-05-13 14:54:00,80.4,38.1,30.30,SSW,205,3.6,5.4,22,0.00,,---,0.00,VWS V14.01,2013-05-13 19:54:00,
2013-05-13 14:55:00,80.4,38.1,30.30,SSW,205,2.2,5.4,22,0.00,,---,0.00,VWS V14.01,2013-05-13 19:55:00,
2013-05-13 14:56:00,80.8,38.4,30.30,South,188,3.6,3.6,22,0.00,,---,0.00,VWS V14.01,2013-05-13 19:56:00,
2013-05-13 14:57:00,80.6,37.1,30.30,SSW,194,5.4,6.3,21,0.00,,---,0.00,VWS V14.01,2013-05-13 19:57:00,
2013-05-13 14:58:00,80.2,38.0,30.30,SSE,152,5.4,5.4,22,0.00,,---,0.00,VWS V14.01,2013-05-13 19:58:00,
2013-05-13 14:59:00,80.4,38.1,30.30,South,180,2.2,5.4,22,0.00,,---,0.00,VWS V14.01,2013-05-13 19:59:00,
2013-05-13 15:00:00,80.4,38.1,30.30,South,180,2.2,5.4,22,0.00,,---,0.00,VWS V14.01,2013-05-13 20:00:00,
2013-05-13 15:01:00,80.4,38.1,30.30,SSE,165,0.0,2.2,22,0.00,,---,0.00,VWS V14.01,2013-05-13 20:01:00,
2013-05-13 15:02:00,80.6,38.3,30.30,WSW,248,0.0,2.2,22,0.00,,---,0.00,VWS V14.01,2013-05-13 20:02:00,
2013-05-13 15:03:00,80.8,38.4,30.30,SSW,211,4.0,5.8,22,0.00,,---,0.00,VWS V14.01,2013-05-13 20:03:00,
2013-05-13 15:04:00,81.0,38.6,30.30,SSW,201,0.0,2.7,22,0.00,,---,0.00,VWS V14.01,2013-05-13 20:04:00,
2013-05-13 15:05:00,81.0,38.6,30.30,SSW,201,0.0,2.7,22,0.00,,---,0.00,VWS V14.01,2013-05-13 20:05:00,
2013-05-13 15:06:00,81.0,38.6,30.30,South,191,3.1,3.1,22,0.00,,---,0.00,VWS V14.01,2013-05-13 20:06:00,
2013-05-13 15:07:00,80.6,38.3,30.30,South,175,3.1,4.9,22,0.00,,---,0.00,VWS V14.01,2013-05-13 20:07:00,
2013-05-13 15:08:00,80.4,38.1,30.30,SSW,211,3.6,4.0,22,0.00,,---,0.00,VWS V14.01,2013-05-13 20:08:00,
2013-05-13 15:09:00,80.2,38.0,30.30,SW,216,0.0,0.0,22,0.00,,---,0.00,VWS V14.01,2013-05-13 20:09:00,
2013-05-13 15:10:00,80.2,38.0,30.30,SW,216,0.0,0.0,22,0.00,,---,0.00,VWS V14.01,2013-05-13 20:10:00,
2013-05-13 15:11:00,80.4,38.1,30.30,South,175,2.7,2.7,22,0.00,,---,0.00,VWS V14.01,2013-05-13 20:11:00,
2013-05-13 15:12:00,80.4,38.1,30.30,SSE,155,0.0,2.7,22,0.00,,---,0.00,VWS V14.01,2013-05-13 20:12:00,
2013-05-13 15:13:00,80.4,39.3,30.30,NE,50,2.2,4.9,23,0.00,,---,0.00,VWS V14.01,2013-05-13 20:13:00,
2013-05-13 15:14:00,80.6,38.3,30.30,SSW,197,0.0,0.0,22,0.00,,---,0.00,VWS V14.01,2013-05-13 20:14:00,
2013-05-13 15:15:00,80.6,38.3,30.30,SSW,197,0.0,0.0,22,0.00,,---,0.00,VWS V14.01,2013-05-13 20:15:00,
2013-05-13 15:16:00,80.6,38.3,30.30,SSW,202,0.0,4.0,22,0.00,,---,0.00,VWS V14.01,2013-05-13 20:16:00,
2013-05-13 15:17:00,80.4,38.1,30.30,South,188,3.6,3.6,22,0.00,,---,0.00,VWS V14.01,2013-05-13 20:17:00,
2013-05-13 15:18:00,80.4,39.3,30.30,WSW,247,0.0,3.6,23,0.00,,---,0.00,VWS V14.01,2013-05-13 20:18:00,
2013-05-13 15:19:00,80.4,39.3,30.30,SSW,210,2.7,3.6,23,0.00,,---,0.00,VWS V14.01,2013-05-13 20:19:00,
2013-05-13 15:20:00,80.4,39.3,30.30,SSW,210,2.7,3.6,23,0.00,,---,0.00,VWS V14.01,2013-05-13 20:20:00,
2013-05-13 15:21:00,80.2,38.0,30.30,SSW,208,3.1,3.1,22,0.00,,---,0.00,VWS V14.01,2013-05-13 20:21:00,
2013-05-13 15:22:00,80.1,39.0,30.30,SSW,208,0.0,3.1,23,0.00,,---,0.00,VWS V14.01,2013-05-13 20:22:00,
2013-05-13 15:23:00,80.1,39.0,30.30,SW,216,3.1,3.1,23,0.00,,---,0.00,VWS V14.01,2013-05-13 20:23:00,
2013-05-13 15:24:00,80.1,39.0,30.30,South,184,3.1,4.0,23,0.00,,---,0.00,VWS V14.01,2013-05-13 20:24:00,
2013-05-13 15:25:00,80.1,39.0,30.30,South,186,3.1,4.0,23,0.00,,---,0.00,VWS V14.01,2013-05-13 20:25:00,
2013-05-13 15:26:00,79.9,37.7,30.30,South,185,2.7,3.1,22,0.00,,---,0.00,VWS V14.01,2013-05-13 20:26:00,
2013-05-13 15:27:00,79.7,37.5,30.30,SSE,165,2.7,3.6,22,0.00,,---,0.00,VWS V14.01,2013-05-13 20:27:00,
2013-05-13 15:28:00,79.5,37.4,30.30,WSW,237,3.6,4.9,22,0.00,,---,0.00,VWS V14.01,2013-05-13 20:28:00,
2013-05-13 15:29:00,79.5,38.5,30.30,SSE,159,4.0,4.0,23,0.00,,---,0.00,VWS V14.01,2013-05-13 20:29:00,
2013-05-13 15:30:00,79.5,38.5,30.30,SSE,164,2.7,4.0,23,0.00,,---,0.00,VWS V14.01,2013-05-13 20:30:00,
2013-05-13 15:31:00,79.5,38.5,30.30,SSE,156,4.9,6.3,23,0.00,,---,0.00,VWS V14.01,2013-05-13 20:31:00,
2013-05-13 15:32:00,79.5,38.5,30.30,SSW,211,2.7,4.9,23,0.00,,---,0.00,VWS V14.01,2013-05-13 20:32:00,
2013-05-13 15:33:00,79.5,38.5,30.30,SW,221,3.6,6.3,23,0.00,,---,0.00,VWS V14.01,2013-05-13 20:33:00,
2013-05-13 15:34:00,79.9,38.8,30.30,South,177,2.2,2.7,23,0.00,,---,0.00,VWS V14.01,2013-05-13 20:34:00,
2013-05-13 15:35:00,79.9,38.8,30.30,SSE,162,3.1,3.1,23,0.00,,---,0.00,VWS V14.01,2013-05-13 20:35:00,
2013-05-13 15:36:00,79.7,38.7,30.30,SSW,194,3.1,5.4,23,0.00,,---,0.00,VWS V14.01,2013-05-13 20:36:00,
2013-05-13 15:37:00,79.5,38.5,30.30,SSW,211,5.4,5.4,23,0.00,,---,0.00,VWS V14.01,2013-05-13 20:37:00,
2013-05-13 15:38:00,79.5,38.5,30.30,West,268,3.1,5.8,23,0.00,,---,0.00,VWS V14.01,2013-05-13 20:38:00,
2013-05-13 15:39:00,79.5,38.5,30.30,South,181,2.7,4.0,23,0.00,,---,0.00,VWS V14.01,2013-05-13 20:39:00,
2013-05-13 15:40:00,79.5,38.5,30.30,West,269,3.1,4.0,23,0.00,,---,0.00,VWS V14.01,2013-05-13 20:40:00,
2013-05-13 15:41:00,79.5,38.5,30.30,West,259,0.0,4.0,23,0.00,,---,0.00,VWS V14.01,2013-05-13 20:41:00,
2013-05-13 15:42:00,79.7,38.7,30.30,WSW,252,2.7,3.1,23,0.00,,---,0.00,VWS V14.01,2013-05-13 20:42:00,
2013-05-13 15:43:00,79.9,38.8,30.30,SW,226,3.6,4.0,23,0.00,,---,0.00,VWS V14.01,2013-05-13 20:43:00,
2013-05-13 15:44:00,79.9,38.8,30.30,SW,223,3.6,3.6,23,0.00,,---,0.00,VWS V14.01,2013-05-13 20:44:00,
2013-05-13 15:45:00,79.9,38.8,30.30,SW,229,3.6,3.6,23,0.00,,---,0.00,VWS V14.01,2013-05-13 20:45:00,
2013-05-13 15:46:00,79.9,38.8,30.30,South,189,3.6,4.0,23,0.00,,---,0.00,VWS V14.01,2013-05-13 20:46:00,
2013-05-13 15:47:00,80.1,39.0,30.30,SW,219,3.6,3.6,23,0.00,,---,0.00,VWS V14.01,2013-05-13 20:47:00,
2013-05-13 15:48:00,80.2,39.1,30.30,SSW,195,2.2,3.6,23,0.00,,---,0.00,VWS V14.01,2013-05-13 20:48:00,
2013-05-13 15:49:00,80.2,39.1,30.30,South,175,2.7,4.0,23,0.00,,---,0.00,VWS V14.01,2013-05-13 20:49:00,
2013-05-13 15:50:00,80.2,39.1,30.30,South,175,3.1,4.0,23,0.00,,---,0.00,VWS V14.01,2013-05-13 20:50:00,
2013-05-13 15:51:00,80.2,39.1,30.30,SW,227,0.0,5.8,23,0.00,,---,0.00,VWS V14.01,2013-05-13 20:51:00,
2013-05-13 15:52:00,80.2,39.1,30.30,SSW,203,2.2,2.2,23,0.00,,---,0.00,VWS V14.01,2013-05-13 20:52:00,
2013-05-13 15:53:00,80.4,39.3,30.30,SSW,203,0.0,2.2,23,0.00,,---,0.00,VWS V14.01,2013-05-13 20:53:00,
2013-05-13 15:54:00,80.4,39.3,30.30,South,172,3.1,4.0,23,0.00,,---,0.00,VWS V14.01,2013-05-13 20:54:00,
2013-05-13 15:55:00,80.4,39.3,30.30,South,172,3.6,4.0,23,0.00,,---,0.00,VWS V14.01,2013-05-13 20:55:00,
2013-05-13 15:56:00,80.2,39.1,30.30,WSW,257,4.0,4.0,23,0.00,,---,0.00,VWS V14.01,2013-05-13 20:56:00,
2013-05-13 15:57:00,80.2,39.1,30.30,WSW,238,3.1,4.0,23,0.00,,---,0.00,VWS V14.01,2013-05-13 20:57:00,
2013-05-13 15:58:00,80.1,39.0,30.30,SSW,203,4.0,4.0,23,0.00,,---,0.00,VWS V14.01,2013-05-13 20:58:00,
2013-05-13 15:59:00,80.1,39.0,30.30,West,265,2.2,3.1,23,0.00,,---,0.00,VWS V14.01,2013-05-13 20:59:00,
2013-05-13 16:00:00,80.1,39.0,30.30,West,266,2.7,3.1,23,0.00,,---,0.00,VWS V14.01,2013-05-13 21:00:00,
2013-05-13 16:01:00,80.1,39.0,30.30,South,184,4.0,4.0,23,0.00,,---,0.00,VWS V14.01,2013-05-13 21:01:00,
2013-05-13 16:02:00,80.1,39.0,30.30,SSW,203,3.1,4.0,23,0.00,,---,0.00,VWS V14.01,2013-05-13 21:02:00,
2013-05-13 16:03:00,79.9,38.8,30.30,SSW,193,5.4,5.8,23,0.00,,---,0.00,VWS V14.01,2013-05-13 21:03:00,
2013-05-13 16:04:00,79.9,38.8,30.30,SSE,157,0.0,4.0,23,0.00,,---,0.00,VWS V14.01,2013-05-13 21:04:00,
2013-05-13 16:05:00,79.7,38.7,30.30,SSE,163,0.0,4.0,23,0.00,,---,0.00,VWS V14.01,2013-05-13 21:05:00,
2013-05-13 16:06:00,79.7,38.7,30.30,SW,229,2.2,3.1,23,0.00,,---,0.00,VWS V14.01,2013-05-13 21:06:00,
2013-05-13 16:07:00,79.9,38.8,30.30,WSW,247,2.2,2.7,23,0.00,,---,0.00,VWS V14.01,2013-05-13 21:07:00,
2013-05-13 16:08:00,79.9,38.8,30.30,SW,229,0.0,4.0,23,0.00,,---,0.00,VWS V14.01,2013-05-13 21:08:00,
2013-05-13 16:09:00,79.9,38.8,30.30,WSW,238,0.0,3.6,23,0.00,,---,0.00,VWS V14.01,2013-05-13 21:09:00,
2013-05-13 16:10:00,79.9,38.8,30.30,South,187,3.6,3.6,23,0.00,,---,0.00,VWS V14.01,2013-05-13 21:10:00,
2013-05-13 16:11:00,79.9,38.8,30.30,WSW,248,0.0,3.6,23,0.00,,---,0.00,VWS V14.01,2013-05-13 21:11:00,
2013-05-13 16:12:00,79.9,38.8,30.30,SSW,202,5.4,5.4,23,0.00,,---,0.00,VWS V14.01,2013-05-13 21:12:00,
2013-05-13 16:13:00,79.9,38.8,30.30,South,175,4.0,5.8,23,0.00,,---,0.00,VWS V14.01,2013-05-13 21:13:00,
2013-05-13 16:14:00,79.5,38.5,30.30,SSW,208,4.0,4.9,23,0.00,,---,0.00,VWS V14.01,2013-05-13 21:14:00,
2013-05-13 16:15:00,79.5,38.5,30.30,SW,215,5.8,5.8,23,0.00,,---,0.00,VWS V14.01,2013-05-13 21:15:00,
2013-05-13 16:16:00,79.3,38.4,30.27,SW,225,2.2,5.8,23,0.00,,---,0.00,VWS V14.01,2013-05-13 21:16:00,
2013-05-13 16:17:00,79.3,38.4,30.27,SSW,205,0.0,2.7,23,0.00,,---,0.00,VWS V14.01,2013-05-13 21:17:00,
2013-05-13 16:18:00,79.5,38.5,30.27,SSW,205,0.0,0.0,23,0.00,,---,0.00,VWS V14.01,2013-05-13 21:18:00,
2013-05-13 16:19:00,79.7,38.7,30.27,SW,223,4.0,4.0,23,0.00,,---,0.00,VWS V14.01,2013-05-13 21:19:00,
2013-05-13 16:20:00,79.7,38.7,30.27,SSW,208,3.6,4.0,23,0.00,,---,0.00,VWS V14.01,2013-05-13 21:20:00,
2013-05-13 16:21:00,79.5,38.5,30.27,West,281,3.1,3.6,23,0.00,,---,0.00,VWS V14.01,2013-05-13 21:21:00,
2013-05-13 16:22:00,79.5,38.5,30.27,WSW,240,5.4,5.8,23,0.00,,---,0.00,VWS V14.01,2013-05-13 21:22:00,
2013-05-13 16:23:00,79.7,38.7,30.27,SW,232,0.0,5.4,23,0.00,,---,0.00,VWS V14.01,2013-05-13 21:23:00,
2013-05-13 16:24:00,79.7,38.7,30.27,SW,225,3.1,4.0,23,0.00,,---,0.00,VWS V14.01,2013-05-13 21:24:00,
2013-05-13 16:25:00,79.7,38.7,30.27,SW,225,2.7,4.0,23,0.00,,---,0.00,VWS V14.01,2013-05-13 21:25:00,
2013-05-13 16:26:00,79.7,38.7,30.27,SW,215,3.6,3.6,23,0.00,,---,0.00,VWS V14.01,2013-05-13 21:26:00,
2013-05-13 16:27:00,79.5,38.5,30.27,SSW,210,3.1,5.8,23,0.00,,---,0.00,VWS V14.01,2013-05-13 21:27:00,
2013-05-13 16:28:00,79.3,38.4,30.27,South,181,3.6,6.3,23,0.00,,---,0.00,VWS V14.01,2013-05-13 21:28:00,
2013-05-13 16:29:00,79.5,38.5,30.27,WSW,252,3.1,4.9,23,0.00,,---,0.00,VWS V14.01,2013-05-13 21:29:00,
2013-05-13 16:30:00,79.5,38.5,30.27,West,274,2.7,4.9,23,0.00,,---,0.00,VWS V14.01,2013-05-13 21:30:00,
2013-05-13 16:31:00,79.3,38.4,30.27,West,266,2.7,4.0,23,0.00,,---,0.00,VWS V14.01,2013-05-13 21:31:00,
2013-05-13 16:32:00,79.3,37.2,30.27,SSE,157,3.6,3.6,22,0.00,,---,0.00,VWS V14.01,2013-05-13 21:32:00,
2013-05-13 16:33:00,79.2,37.1,30.27,South,191,0.0,4.0,22,0.00,,---,0.00,VWS V14.01,2013-05-13 21:33:00,
2013-05-13 16:34:00,79.5,38.5,30.27,SW,220,4.0,4.0,23,0.00,,---,0.00,VWS V14.01,2013-05-13 21:34:00,
2013-05-13 16:35:00,79.5,38.5,30.27,SSE,165,4.5,4.5,23,0.00,,---,0.00,VWS V14.01,2013-05-13 21:35:00,
2013-05-13 16:36:00,79.5,38.5,30.27,SSW,210,2.7,4.5,23,0.00,,---,0.00,VWS V14.01,2013-05-13 21:36:00,
2013-05-13 16:37:00,79.5,38.5,30.27,WSW,250,2.7,2.7,23,0.00,,---,0.00,VWS V14.01,2013-05-13 21:37:00,
2013-05-13 16:38:00,79.3,37.2,30.27,West,268,3.6,5.4,22,0.00,,---,0.00,VWS V14.01,2013-05-13 21:38:00,
2013-05-13 16:39:00,79.3,37.2,30.27,SSW,202,4.0,4.9,22,0.00,,---,0.00,VWS V14.01,2013-05-13 21:39:00,
2013-05-13 16:40:00,79.3,37.2,30.27,South,171,3.1,4.9,22,0.00,,---,0.00,VWS V14.01,2013-05-13 21:40:00,
2013-05-13 16:41:00,79.2,37.1,30.27,SW,220,3.1,3.6,22,0.00,,---,0.00,VWS V14.01,2013-05-13 21:41:00,
2013-05-13 16:42:00,79.2,37.1,30.27,SW,231,5.4,5.4,22,0.00,,---,0.00,VWS V14.01,2013-05-13 21:42:00,
2013-05-13 16:43:00,79.2,37.1,30.27,SSE,164,3.1,5.4,22,0.00,,---,0.00,VWS V14.01,2013-05-13 21:43:00,
2013-05-13 16:44:00,79.0,36.9,30.27,SW,222,2.7,4.0,22,0.00,,---,0.00,VWS V14.01,2013-05-13 21:44:00,
2013-05-13 16:45:00,79.0,36.9,30.27,South,177,5.4,5.4,22,0.00,,---,0.00,VWS V14.01,2013-05-13 21:45:00,
2013-05-13 16:46:00,78.8,36.8,30.27,South,187,5.4,5.8,22,0.00,,---,0.00,VWS V14.01,2013-05-13 21:46:00,
2013-05-13 16:47:00,78.6,36.6,30.27,SSW,202,3.6,5.4,22,0.00,,---,0.00,VWS V14.01,2013-05-13 21:47:00,
2013-05-13 16:48:00,78.6,37.8,30.27,SSW,212,0.0,3.6,23,0.00,,---,0.00,VWS V14.01,2013-05-13 21:48:00,
2013-05-13 16:49:00,78.8,36.8,30.27,South,183,3.6,3.6,22,0.00,,---,0.00,VWS V14.01,2013-05-13 21:49:00,
2013-05-13 16:50:00,78.8,36.8,30.27,South,179,3.1,3.6,22,0.00,,---,0.00,VWS V14.01,2013-05-13 21:50:00,
2013-05-13 16:51:00,78.8,36.8,30.27,SSW,210,3.1,3.6,22,0.00,,---,0.00,VWS V14.01,2013-05-13 21:51:00,
2013-05-13 16:52:00,79.0,36.9,30.27,South,189,4.0,5.4,22,0.00,,---,0.00,VWS V14.01,2013-05-13 21:52:00,
2013-05-13 16:53:00,79.0,36.9,30.27,SW,234,3.6,5.4,22,0.00,,---,0.00,VWS V14.01,2013-05-13 21:53:00,
2013-05-13 16:54:00,79.0,36.9,30.27,SW,231,3.6,4.0,22,0.00,,---,0.00,VWS V14.01,2013-05-13 21:54:00,
2013-05-13 16:55:00,79.2,38.2,30.27,WSW,239,3.6,4.0,23,0.00,,---,0.00,VWS V14.01,2013-05-13 21:55:00,
2013-05-13 16:56:00,79.2,38.2,30.27,WSW,255,3.6,3.6,23,0.00,,---,0.00,VWS V14.01,2013-05-13 21:56:00,
2013-05-13 16:57:00,79.3,38.4,30.27,SSE,160,3.1,3.6,23,0.00,,---,0.00,VWS V14.01,2013-05-13 21:57:00,
2013-05-13 16:58:00,79.5,38.5,30.27,SSW,206,4.0,4.0,23,0.00,,---,0.00,VWS V14.01,2013-05-13 21:58:00,
2013-05-13 16:59:00,79.5,38.5,30.27,SW,225,0.0,3.1,23,0.00,,---,0.00,VWS V14.01,2013-05-13 21:59:00,
2013-05-13 17:00:00,79.3,38.4,30.27,West,276,4.0,4.0,23,0.00,,---,0.00,VWS V14.01,2013-05-13 22:00:00,
2013-05-13 17:01:00,79.3,37.2,30.27,South,189,2.2,4.0,22,0.00,,---,0.00,VWS V14.01,2013-05-13 22:01:00,
2013-05-13 17:02:00,79.2,37.1,30.27,WSW,241,4.0,4.0,22,0.00,,---,0.00,VWS V14.01,2013-05-13 22:02:00,
2013-05-13 17:03:00,79.2,38.2,30.27,West,261,2.2,4.0,23,0.00,,---,0.00,VWS V14.01,2013-05-13 22:03:00,
2013-05-13 17:04:00,79.2,37.1,30.27,WSW,247,2.2,3.1,22,0.00,,---,0.00,VWS V14.01,2013-05-13 22:04:00,
2013-05-13 17:05:00,79.2,37.1,30.27,WSW,249,2.7,3.1,22,0.00,,---,0.00,VWS V14.01,2013-05-13 22:05:00,
2013-05-13 17:06:00,79.2,37.1,30.27,West,272,0.0,2.7,22,0.00,,---,0.00,VWS V14.01,2013-05-13 22:06:00,
2013-05-13 17:07:00,79.2,37.1,30.27,West,271,2.7,2.7,22,0.00,,---,0.00,VWS V14.01,2013-05-13 22:07:00,
2013-05-13 17:08:00,79.2,38.2,30.27,South,178,3.6,4.0,23,0.00,,---,0.00,VWS V14.01,2013-05-13 22:08:00,
2013-05-13 17:09:00,79.2,38.2,30.27,WSW,253,2.2,3.1,23,0.00,,---,0.00,VWS V14.01,2013-05-13 22:09:00,
2013-05-13 17:10:00,79.2,37.1,30.27,WSW,247,2.7,3.1,22,0.00,,---,0.00,VWS V14.01,2013-05-13 22:10:00,
2013-05-13 17:11:00,79.0,36.9,30.27,SW,222,0.0,3.1,22,0.00,,---,0.00,VWS V14.01,2013-05-13 22:11:00,
2013-05-13 17:12:00,79.0,38.1,30.27,South,189,2.7,2.7,23,0.00,,---,0.00,VWS V14.01,2013-05-13 22:12:00,
2013-05-13 17:13:00,79.0,36.9,30.27,South,180,5.8,5.8,22,0.00,,---,0.00,VWS V14.01,2013-05-13 22:13:00,
2013-05-13 17:14:00,78.6,37.8,30.27,SSE,160,2.7,3.6,23,0.00,,---,0.00,VWS V14.01,2013-05-13 22:14:00,
2013-05-13 17:15:00,78.6,37.8,30.27,SSE,165,3.6,3.6,23,0.00,,---,0.00,VWS V14.01,2013-05-13 22:15:00,
2013-05-13 17:16:00,78.6,37.8,30.27,WSW,252,0.0,3.6,23,0.00,,---,0.00,VWS V14.01,2013-05-13 22:16:00,
2013-05-13 17:17:00,78.6,36.6,30.27,WSW,253,3.1,3.1,22,0.00,,---,0.00,VWS V14.01,2013-05-13 22:17:00,
2013-05-13 17:18:00,78.6,36.6,30.27,SW,223,2.7,3.1,22,0.00,,---,0.00,VWS V14.01,2013-05-13 22:18:00,
2013-05-13 17:19:00,78.6,36.6,30.27,SSW,196,4.0,4.9,22,0.00,,---,0.00,VWS V14.01,2013-05-13 22:19:00,
2013-05-13 17:20:00,78.6,36.6,30.27,South,181,4.0,4.9,22,0.00,,---,0.00,VWS V14.01,2013-05-13 22:20:00,
2013-05-13 17:21:00,78.4,36.5,30.27,SW,220,2.7,4.0,22,0.00,,---,0.00,VWS V14.01,2013-05-13 22:21:00,
2013-05-13 17:22:00,78.3,36.3,30.27,WSW,256,0.0,2.7,22,0.00,,---,0.00,VWS V14.01,2013-05-13 22:22:00,
2013-05-13 17:23:00,78.3,36.3,30.27,WSW,256,0.0,0.0,22,0.00,,---,0.00,VWS V14.01,2013-05-13 22:23:00,
2013-05-13 17:24:00,78.3,36.3,30.27,WSW,256,0.0,0.0,22,0.00,,---,0.00,VWS V14.01,2013-05-13 22:24:00,
2013-05-13 17:25:00,78.3,36.3,30.27,WSW,256,0.0,0.0,22,0.00,,---,0.00,VWS V14.01,2013-05-13 22:25:00,
2013-05-13 17:26:00,78.3,36.3,30.27,SW,223,2.2,2.2,22,0.00,,---,0.00,VWS V14.01,2013-05-13 22:26:00,
2013-05-13 17:27:00,78.4,36.5,30.27,SW,231,0.0,2.2,22,0.00,,---,0.00,VWS V14.01,2013-05-13 22:27:00,
2013-05-13 17:57:00,78.1,37.3,30.27,SSE,168,0.0,0.0,23,0.00,,---,0.00,VWS V14.01,2013-05-13 22:57:00,
2013-05-13 17:58:00,78.3,37.5,30.27,SSE,168,0.0,0.0,23,0.00,,---,0.00,VWS V14.01,2013-05-13 22:58:00,
2013-05-13 17:59:00,78.4,37.6,30.27,South,186,3.6,3.6,23,0.00,,---,0.00,VWS V14.01,2013-05-13 22:59:00,
2013-05-13 18:00:00,78.1,37.3,30.27,SSW,195,0.0,4.9,23,0.00,,---,0.00,VWS V14.01,2013-05-13 23:00:00,
2013-05-13 18:01:00,78.1,37.3,30.27,South,187,4.0,4.0,23,0.00,,---,0.00,VWS V14.01,2013-05-13 23:01:00,
2013-05-13 18:02:00,77.7,37.0,30.27,SSW,208,0.0,0.0,23,0.00,,---,0.00,VWS V14.01,2013-05-13 23:02:00,
2013-05-13 18:03:00,77.7,37.0,30.27,South,176,2.2,2.2,23,0.00,,---,0.00,VWS V14.01,2013-05-13 23:03:00,
2013-05-13 18:04:00,77.5,37.9,30.27,South,183,2.7,3.6,24,0.00,,---,0.00,VWS V14.01,2013-05-13 23:04:00,
2013-05-13 18:05:00,77.4,37.8,30.27,South,169,4.0,4.0,24,0.00,,---,0.00,VWS V14.01,2013-05-13 23:05:00,
2013-05-13 18:06:00,77.2,36.5,30.27,SW,217,3.1,4.0,23,0.00,,---,0.00,VWS V14.01,2013-05-13 23:06:00,
2013-05-13 18:07:00,77.2,37.6,30.27,SSW,210,3.6,4.5,24,0.00,,---,0.00,VWS V14.01,2013-05-13 23:07:00,
2013-05-13 18:08:00,77.2,37.6,30.27,South,182,3.1,4.5,24,0.00,,---,0.00,VWS V14.01,2013-05-13 23:08:00,
2013-05-13 18:09:00,77.0,37.5,30.27,South,173,2.7,3.6,24,0.00,,---,0.00,VWS V14.01,2013-05-13 23:09:00,
2013-05-13 18:10:00,77.0,37.5,30.27,South,178,0.0,4.9,24,0.00,,---,0.00,VWS V14.01,2013-05-13 23:10:00,
2013-05-13 18:11:00,76.8,37.3,30.27,South,178,0.0,0.0,24,0.00,,---,0.00,VWS V14.01,2013-05-13 23:11:00,
2013-05-13 18:12:00,76.6,38.2,30.27,South,178,0.0,0.0,25,0.00,,---,0.00,VWS V14.01,2013-05-13 23:12:00,
2013-05-13 18:13:00,76.8,38.4,30.27,South,178,0.0,0.0,25,0.00,,---,0.00,VWS V14.01,2013-05-13 23:13:00,
2013-05-13 18:14:00,76.6,38.2,30.27,SSW,193,0.0,0.0,25,0.00,,---,0.00,VWS V14.01,2013-05-13 23:14:00,
2013-05-13 18:15:00,76.6,38.2,30.27,SW,233,2.2,2.7,25,0.00,,---,0.00,VWS V14.01,2013-05-13 23:15:00,
2013-05-13 18:16:00,76.5,38.1,30.27,South,179,4.0,4.0,25,0.00,,---,0.00,VWS V14.01,2013-05-13 23:16:00,
2013-05-13 18:17:00,76.8,38.4,30.27,SSE,166,3.6,5.4,25,0.00,,---,0.00,VWS V14.01,2013-05-13 23:17:00,
2013-05-13 18:18:00,76.8,38.4,30.27,South,174,2.7,5.4,25,0.00,,---,0.00,VWS V14.01,2013-05-13 23:18:00,
2013-05-13 18:19:00,76.6,38.2,30.27,South,187,3.6,3.6,25,0.00,,---,0.00,VWS V14.01,2013-05-13 23:19:00,
2013-05-13 18:20:00,76.5,38.1,30.27,SSE,157,2.7,4.0,25,0.00,,---,0.00,VWS V14.01,2013-05-13 23:20:00,
2013-05-13 18:21:00,76.5,38.1,30.27,South,175,2.7,3.6,25,0.00,,---,0.00,VWS V14.01,2013-05-13 23:21:00,
2013-05-13 18:22:00,76.6,38.2,30.27,South,176,2.7,3.1,25,0.00,,---,0.00,VWS V14.01,2013-05-13 23:22:00,
2013-05-13 18:23:00,76.6,38.2,30.27,South,176,2.2,3.1,25,0.00,,---,0.00,VWS V14.01,2013-05-13 23:23:00,
2013-05-13 18:24:00,76.5,38.1,30.27,South,176,2.2,2.2,25,0.00,,---,0.00,VWS V14.01,2013-05-13 23:24:00,
2013-05-13 18:25:00,76.3,37.9,30.27,South,176,2.2,2.7,25,0.00,,---,0.00,VWS V14.01,2013-05-13 23:25:00,
2013-05-13 18:26:00,76.1,37.8,30.27,SW,219,0.0,2.2,25,0.00,,---,0.00,VWS V14.01,2013-05-13 23:26:00,
2013-05-13 18:27:00,75.9,37.6,30.27,SW,219,0.0,0.0,25,0.00,,---,0.00,VWS V14.01,2013-05-13 23:27:00,
2013-05-13 18:28:00,75.9,37.6,30.27,SW,219,0.0,0.0,25,0.00,,---,0.00,VWS V14.01,2013-05-13 23:28:00,
2013-05-13 18:29:00,75.7,38.5,30.27,SW,219,0.0,0.0,26,0.00,,---,0.00,VWS V14.01,2013-05-13 23:29:00,
2013-05-13 18:30:00,75.7,37.5,30.27,SW,219,0.0,0.0,25,0.00,,---,0.00,VWS V14.01,2013-05-13 23:30:00,
2013-05-13 18:31:00,75.6,37.3,30.27,SSW,210,0.0,0.0,25,0.00,,---,0.00,VWS V14.01,2013-05-13 23:31:00,
2013-05-13 18:32:00,75.6,37.3,30.27,SSW,210,0.0,0.0,25,0.00,,---,0.00,VWS V14.01,2013-05-13 23:32:00,
2013-05-13 18:33:00,75.6,37.3,30.27,SSW,205,4.0,4.0,25,0.00,,---,0.00,VWS V14.01,2013-05-13 23:33:00,
2013-05-13 18:34:00,75.6,37.3,30.27,South,181,2.2,4.0,25,0.00,,---,0.00,VWS V14.01,2013-05-13 23:34:00,
2013-05-13 18:35:00,75.7,37.5,30.27,South,184,2.7,4.0,25,0.00,,---,0.00,VWS V14.01,2013-05-13 23:35:00,
2013-05-13 18:36:00,75.7,37.5,30.27,South,184,0.0,2.7,25,0.00,,---,0.00,VWS V14.01,2013-05-13 23:36:00,
2013-05-13 18:37:00,75.6,37.3,30.27,South,184,0.0,0.0,25,0.00,,---,0.00,VWS V14.01,2013-05-13 23:37:00,
2013-05-13 18:38:00,75.6,37.3,30.27,South,184,0.0,0.0,25,0.00,,---,0.00,VWS V14.01,2013-05-13 23:38:00,
2013-05-13 18:39:00,75.4,38.2,30.27,SW,231,0.0,0.0,26,0.00,,---,0.00,VWS V14.01,2013-05-13 23:39:00,
2013-05-13 18:40:00,75.2,38.0,30.27,SW,231,0.0,0.0,26,0.00,,---,0.00,VWS V14.01,2013-05-13 23:40:00,
2013-05-13 18:41:00,75.2,38.0,30.27,SW,231,0.0,0.0,26,0.00,,---,0.00,VWS V14.01,2013-05-13 23:41:00,
2013-05-13 18:42:00,75.0,38.8,30.27,South,186,0.0,0.0,27,0.00,,---,0.00,VWS V14.01,2013-05-13 23:42:00,
2013-05-13 18:43:00,75.0,38.8,30.27,South,180,2.7,2.7,27,0.00,,---,0.00,VWS V14.01,2013-05-13 23:43:00,
2013-05-13 18:44:00,75.0,39.7,30.27,SSW,210,3.6,3.6,28,0.00,,---,0.00,VWS V14.01,2013-05-13 23:44:00,
2013-05-13 18:45:00,75.0,39.7,30.27,WSW,246,0.0,3.6,28,0.00,,---,0.00,VWS V14.01,2013-05-13 23:45:00,
2013-05-13 18:46:00,75.4,40.0,30.27,South,186,2.7,2.7,28,0.00,,---,0.00,VWS V14.01,2013-05-13 23:46:00,
2013-05-13 18:47:00,75.4,40.0,30.27,South,184,0.0,0.0,28,0.00,,---,0.00,VWS V14.01,2013-05-13 23:47:00,
2013-05-13 18:48:00,75.2,39.9,30.27,South,184,0.0,0.0,28,0.00,,---,0.00,VWS V14.01,2013-05-13 23:48:00,
2013-05-13 18:49:00,75.2,40.8,30.27,South,184,0.0,0.0,29,0.00,,---,0.00,VWS V14.01,2013-05-13 23:49:00,
2013-05-13 18:50:00,75.0,41.5,30.27,SSW,209,0.0,0.0,30,0.00,,---,0.00,VWS V14.01,2013-05-13 23:50:00,
2013-05-13 18:51:00,74.8,41.4,30.27,SSW,209,0.0,0.0,30,0.00,,---,0.00,VWS V14.01,2013-05-13 23:51:00,
2013-05-13 18:52:00,74.5,41.9,30.27,SSW,209,0.0,0.0,31,0.00,,---,0.00,VWS V14.01,2013-05-13 23:52:00,
2013-05-13 18:53:00,74.5,41.9,30.27,SSW,209,0.0,0.0,31,0.00,,---,0.00,VWS V14.01,2013-05-13 23:53:00,
2013-05-13 18:54:00,74.3,41.7,30.27,SSW,192,0.0,0.0,31,0.00,,---,0.00,VWS V14.01,2013-05-13 23:54:00,
2013-05-13 18:55:00,74.3,42.6,30.27,SSE,166,0.0,0.0,32,0.00,,---,0.00,VWS V14.01,2013-05-13 23:55:00,
2013-05-13 18:56:00,74.3,42.6,30.27,SSE,166,0.0,0.0,32,0.00,,---,0.00,VWS V14.01,2013-05-13 23:56:00,
2013-05-13 18:57:00,74.3,43.4,30.27,South,175,3.6,4.0,33,0.00,,---,0.00,VWS V14.01,2013-05-13 23:57:00,
2013-05-13 18:58:00,74.3,43.4,30.27,South,178,2.2,4.0,33,0.00,,---,0.00,VWS V14.01,2013-05-13 23:58:00,
2013-05-13 18:59:00,74.5,43.5,30.27,SSE,156,2.7,3.1,33,0.00,,---,0.00,VWS V14.01,2013-05-13 23:59:00,
2013-05-13 19:00:00,74.5,43.5,30.27,SW,217,2.2,2.7,33,0.00,,---,0.00,VWS V14.01,2013-05-14 00:00:00,
2013-05-13 19:01:00,74.3,43.4,30.27,South,174,2.7,2.7,33,0.00,,---,0.00,VWS V14.01,2013-05-14 00:01:00,
2013-05-13 19:02:00,74.3,43.4,30.27,SSE,155,3.6,3.6,33,0.00,,---,0.00,VWS V14.01,2013-05-14 00:02:00,
2013-05-13 19:03:00,74.3,43.4,30.27,SSE,160,5.4,5.4,33,0.00,,---,0.00,VWS V14.01,2013-05-14 00:03:00,
2013-05-13 19:04:00,74.3,43.4,30.27,South,189,3.6,5.4,33,0.00,,---,0.00,VWS V14.01,2013-05-14 00:04:00,
2013-05-13 19:05:00,74.3,43.4,30.27,SSW,199,3.6,3.6,33,0.00,,---,0.00,VWS V14.01,2013-05-14 00:05:00,
2013-05-13 19:06:00,74.1,43.2,30.27,SSW,199,2.7,3.6,33,0.00,,---,0.00,VWS V14.01,2013-05-14 00:06:00,
2013-05-13 19:07:00,73.9,43.8,30.27,SW,227,0.0,0.0,34,0.00,,---,0.00,VWS V14.01,2013-05-14 00:07:00,
2013-05-13 19:08:00,73.9,43.8,30.27,SW,219,0.0,0.0,34,0.00,,---,0.00,VWS V14.01,2013-05-14 00:08:00,
2013-05-13 19:09:00,74.1,44.0,30.27,SSW,209,0.0,0.0,34,0.00,,---,0.00,VWS V14.01,2013-05-14 00:09:00,
2013-05-13 19:10:00,74.1,44.0,30.27,SSW,209,0.0,0.0,34,0.00,,---,0.00,VWS V14.01,2013-05-14 00:10:00,
2013-05-13 19:11:00,74.1,44.0,30.27,SSW,209,0.0,0.0,34,0.00,,---,0.00,VWS V14.01,2013-05-14 00:11:00,
2013-05-13 19:12:00,73.6,44.3,30.27,SSW,209,0.0,0.0,35,0.00,,---,0.00,VWS V14.01,2013-05-14 00:12:00,
2013-05-13 19:13:00,73.6,44.3,30.27,SSW,209,0.0,0.0,35,0.00,,---,0.00,VWS V14.01,2013-05-14 00:13:00,
2013-05-13 19:14:00,73.4,43.3,30.27,SSW,209,0.0,0.0,34,0.00,,---,0.00,VWS V14.01,2013-05-14 00:14:00,
2013-05-13 19:15:00,73.4,44.1,30.27,SSW,209,0.0,0.0,35,0.00,,---,0.00,VWS V14.01,2013-05-14 00:15:00,
2013-05-13 19:16:00,73.2,44.0,30.27,SSW,209,0.0,0.0,35,0.00,,---,0.00,VWS V14.01,2013-05-14 00:16:00,
2013-05-13 19:17:00,73.0,44.5,30.27,SSW,209,0.0,0.0,36,0.00,,---,0.00,VWS V14.01,2013-05-14 00:17:00,
2013-05-13 19:18:00,72.9,44.4,30.27,SSW,209,0.0,0.0,36,0.00,,---,0.00,VWS V14.01,2013-05-14 00:18:00,
2013-05-13 19:19:00,72.9,44.4,30.27,SSW,209,0.0,0.0,36,0.00,,---,0.00,VWS V14.01,2013-05-14 00:19:00,
2013-05-13 19:20:00,72.7,44.2,30.27,SSW,209,0.0,0.0,36,0.00,,---,0.00,VWS V14.01,2013-05-14 00:20:00,
2013-05-13 19:21:00,72.7,44.9,30.27,SSW,209,0.0,0.0,37,0.00,,---,0.00,VWS V14.01,2013-05-14 00:21:00,
2013-05-13 19:22:00,72.5,44.8,30.27,SSW,209,0.0,0.0,37,0.00,,---,0.00,VWS V14.01,2013-05-14 00:22:00,
2013-05-13 19:23:00,72.5,44.8,30.27,SSW,209,0.0,0.0,37,0.00,,---,0.00,VWS V14.01,2013-05-14 00:23:00,
2013-05-13 19:24:00,72.5,44.8,30.27,SSW,209,0.0,0.0,37,0.00,,---,0.00,VWS V14.01,2013-05-14 00:24:00,
2013-05-13 19:25:00,72.7,45.6,30.27,SSW,209,0.0,0.0,38,0.00,,---,0.00,VWS V14.01,2013-05-14 00:25:00,
2013-05-13 19:26:00,72.5,45.5,30.27,SSW,209,0.0,0.0,38,0.00,,---,0.00,VWS V14.01,2013-05-14 00:26:00,
2013-05-13 19:27:00,72.1,45.2,30.27,SSW,209,0.0,0.0,38,0.00,,---,0.00,VWS V14.01,2013-05-14 00:27:00,
2013-05-13 19:28:00,72.1,45.2,30.27,SSW,209,0.0,0.0,38,0.00,,---,0.00,VWS V14.01,2013-05-14 00:28:00,
2013-05-13 19:29:00,71.8,45.5,30.27,SSW,209,0.0,0.0,39,0.00,,---,0.00,VWS V14.01,2013-05-14 00:29:00,
2013-05-13 19:30:00,71.8,45.5,30.27,SSW,209,0.0,0.0,39,0.00,,---,0.00,VWS V14.01,2013-05-14 00:30:00,
2013-05-13 19:31:00,71.6,46.0,30.27,SSW,198,0.0,0.0,40,0.00,,---,0.00,VWS V14.01,2013-05-14 00:31:00,
2013-05-13 19:32:00,71.8,46.2,30.27,SW,221,0.0,0.0,40,0.00,,---,0.00,VWS V14.01,2013-05-14 00:32:00,
2013-05-13 19:33:00,71.8,46.2,30.27,SW,221,0.0,0.0,40,0.00,,---,0.00,VWS V14.01,2013-05-14 00:33:00,
2013-05-13 19:34:00,71.8,46.2,30.27,SW,221,0.0,0.0,40,0.00,,---,0.00,VWS V14.01,2013-05-14 00:34:00,
2013-05-13 19:35:00,71.8,46.2,30.27,SW,221,0.0,0.0,40,0.00,,---,0.00,VWS V14.01,2013-05-14 00:35:00,
2013-05-13 19:36:00,71.6,46.7,30.27,SW,221,0.0,0.0,41,0.00,,---,0.00,VWS V14.01,2013-05-14 00:36:00,
2013-05-13 19:37:00,71.4,47.2,30.27,SSW,194,0.0,0.0,42,0.00,,---,0.00,VWS V14.01,2013-05-14 00:37:00,
2013-05-13 19:38:00,71.4,47.2,30.27,SSW,194,0.0,0.0,42,0.00,,---,0.00,VWS V14.01,2013-05-14 00:38:00,
2013-05-13 19:39:00,71.4,47.2,30.27,SSW,194,0.0,0.0,42,0.00,,---,0.00,VWS V14.01,2013-05-14 00:39:00,
2013-05-13 19:40:00,71.1,46.8,30.27,SSW,194,0.0,0.0,42,0.00,,---,0.00,VWS V14.01,2013-05-14 00:40:00,
2013-05-13 19:41:00,71.1,46.8,30.27,SSW,194,0.0,0.0,42,0.00,,---,0.00,VWS V14.01,2013-05-14 00:41:00,
2013-05-13 19:42:00,70.9,47.3,30.27,SSE,155,0.0,0.0,43,0.00,,---,0.00,VWS V14.01,2013-05-14 00:42:00,
2013-05-13 19:43:00,70.9,47.3,30.27,South,178,3.1,3.1,43,0.00,,---,0.00,VWS V14.01,2013-05-14 00:43:00,
2013-05-13 19:44:00,71.1,47.5,30.27,South,171,2.2,3.1,43,0.00,,---,0.00,VWS V14.01,2013-05-14 00:44:00,
2013-05-13 19:45:00,70.9,47.3,30.27,SSE,155,2.7,3.1,43,0.00,,---,0.00,VWS V14.01,2013-05-14 00:45:00,
2013-05-13 19:46:00,70.9,47.9,30.27,SSE,151,2.2,3.1,44,0.00,,---,0.00,VWS V14.01,2013-05-14 00:46:00,
2013-05-13 19:47:00,71.1,48.1,30.27,SSE,151,0.0,0.0,44,0.00,,---,0.00,VWS V14.01,2013-05-14 00:47:00,
2013-05-13 19:48:00,71.1,48.1,30.27,SSE,151,0.0,0.0,44,0.00,,---,0.00,VWS V14.01,2013-05-14 00:48:00,
2013-05-13 19:49:00,71.1,48.1,30.27,SSE,151,0.0,0.0,44,0.00,,---,0.00,VWS V14.01,2013-05-14 00:49:00,
2013-05-13 19:50:00,70.9,47.9,30.27,SSW,193,0.0,0.0,44,0.00,,---,0.00,VWS V14.01,2013-05-14 00:50:00,
2013-05-13 19:51:00,70.7,47.7,30.27,SSW,193,0.0,0.0,44,0.00,,---,0.00,VWS V14.01,2013-05-14 00:51:00,
2013-05-13 19:52:00,70.5,47.6,30.27,SW,226,0.0,0.0,44,0.00,,---,0.00,VWS V14.01,2013-05-14 00:52:00,
2013-05-13 19:53:00,70.5,47.6,30.27,SW,226,0.0,0.0,44,0.00,,---,0.00,VWS V14.01,2013-05-14 00:53:00,
2013-05-13 19:54:00,70.5,47.6,30.27,SW,216,0.0,0.0,44,0.00,,---,0.00,VWS V14.01,2013-05-14 00:54:00,
2013-05-13 19:55:00,70.3,48.0,30.27,SW,216,0.0,0.0,45,0.00,,---,0.00,VWS V14.01,2013-05-14 00:55:00,
2013-05-13 19:56:00,70.3,48.0,30.27,SW,216,0.0,0.0,45,0.00,,---,0.00,VWS V14.01,2013-05-14 00:56:00,
2013-05-13 19:57:00,70.0,47.7,30.27,SW,216,0.0,0.0,45,0.00,,---,0.00,VWS V14.01,2013-05-14 00:57:00,
2013-05-13 19:58:00,69.8,47.5,30.27,SW,216,0.0,0.0,45,0.00,,---,0.00,VWS V14.01,2013-05-14 00:58:00,
2013-05-13 19:59:00,69.8,48.1,30.27,SW,216,0.0,0.0,46,0.00,,---,0.00,VWS V14.01,2013-05-14 00:59:00,
2013-05-13 20:00:00,69.6,47.9,30.27,SW,216,0.0,0.0,46,0.00,,---,0.00,VWS V14.01,2013-05-14 01:00:00,
2013-05-13 20:01:00,69.4,47.8,30.27,SW,216,0.0,0.0,46,0.00,,---,0.00,VWS V14.01,2013-05-14 01:01:00,
2013-05-13 20:02:00,69.3,48.2,30.27,SW,216,0.0,0.0,47,0.00,,---,0.00,VWS V14.01,2013-05-14 01:02:00,
2013-05-13 20:03:00,69.3,48.2,30.27,SW,216,0.0,0.0,47,0.00,,---,0.00,VWS V14.01,2013-05-14 01:03:00,
2013-05-13 20:04:00,69.1,48.0,30.27,SW,216,0.0,0.0,47,0.00,,---,0.00,VWS V14.01,2013-05-14 01:04:00,
2013-05-13 20:05:00,69.1,48.0,30.27,SW,216,0.0,0.0,47,0.00,,---,0.00,VWS V14.01,2013-05-14 01:05:00,
2013-05-13 20:06:00,69.1,48.0,30.27,SW,216,0.0,0.0,47,0.00,,---,0.00,VWS V14.01,2013-05-14 01:06:00,
2013-05-13 20:07:00,68.9,48.4,30.27,SW,216,0.0,0.0,48,0.00,,---,0.00,VWS V14.01,2013-05-14 01:07:00,
2013-05-13 20:08:00,68.9,48.4,30.27,SW,216,0.0,0.0,48,0.00,,---,0.00,VWS V14.01,2013-05-14 01:08:00,
2013-05-13 20:09:00,68.9,48.4,30.27,SW,216,0.0,0.0,48,0.00,,---,0.00,VWS V14.01,2013-05-14 01:09:00,
2013-05-13 20:10:00,68.9,48.4,30.27,SW,216,0.0,0.0,48,0.00,,---,0.00,VWS V14.01,2013-05-14 01:10:00,
2013-05-13 20:11:00,69.1,48.6,30.27,SW,216,0.0,0.0,48,0.00,,---,0.00,VWS V14.01,2013-05-14 01:11:00,
2013-05-13 20:12:00,68.9,48.4,30.27,SW,216,0.0,0.0,48,0.00,,---,0.00,VWS V14.01,2013-05-14 01:12:00,
2013-05-13 20:13:00,68.9,49.0,30.27,SW,216,0.0,0.0,49,0.00,,---,0.00,VWS V14.01,2013-05-14 01:13:00,
2013-05-13 20:14:00,68.9,49.0,30.27,SW,216,0.0,0.0,49,0.00,,---,0.00,VWS V14.01,2013-05-14 01:14:00,
2013-05-13 20:15:00,68.7,48.8,30.27,SW,216,0.0,0.0,49,0.00,,---,0.00,VWS V14.01,2013-05-14 01:15:00,
2013-05-13 20:16:00,68.7,48.8,30.27,SW,216,0.0,0.0,49,0.00,,---,0.00,VWS V14.01,2013-05-14 01:16:00,
2013-05-13 20:17:00,68.5,48.6,30.27,SW,216,0.0,0.0,49,0.00,,---,0.00,VWS V14.01,2013-05-14 01:17:00,
2013-05-13 20:18:00,68.5,48.6,30.27,SW,216,0.0,0.0,49,0.00,,---,0.00,VWS V14.01,2013-05-14 01:18:00,
2013-05-13 20:19:00,68.5,49.2,30.27,SW,216,0.0,0.0,50,0.00,,---,0.00,VWS V14.01,2013-05-14 01:19:00,
2013-05-13 20:20:00,68.5,49.2,30.27,SW,216,0.0,0.0,50,0.00,,---,0.00,VWS V14.01,2013-05-14 01:20:00,
2013-05-13 20:21:00,68.5,49.2,30.27,SW,216,0.0,0.0,50,0.00,,---,0.00,VWS V14.01,2013-05-14 01:21:00,
2013-05-13 20:22:00,68.4,49.0,30.27,SW,216,0.0,0.0,50,0.00,,---,0.00,VWS V14.01,2013-05-14 01:22:00,
2013-05-13 20:23:00,68.4,49.0,30.27,SW,216,0.0,0.0,50,0.00,,---,0.00,VWS V14.01,2013-05-14 01:23:00,
2013-05-13 20:24:00,68.4,49.5,30.27,SSW,194,0.0,0.0,51,0.00,,---,0.00,VWS V14.01,2013-05-14 01:24:00,
2013-05-13 20:25:00,68.4,49.5,30.27,SSW,194,0.0,0.0,51,0.00,,---,0.00,VWS V14.01,2013-05-14 01:25:00,
2013-05-13 20:26:00,68.5,49.7,30.27,South,175,0.0,0.0,51,0.00,,---,0.00,VWS V14.01,2013-05-14 01:26:00,
2013-05-13 20:27:00,68.7,50.4,30.27,SW,218,2.2,3.6,52,0.00,,---,0.00,VWS V14.01,2013-05-14 01:27:00,
2013-05-13 20:28:00,68.7,50.4,30.27,SSW,209,2.2,3.6,52,0.00,,---,0.00,VWS V14.01,2013-05-14 01:28:00,
2013-05-13 20:29:00,68.5,50.2,30.27,SSW,202,0.0,2.2,52,0.00,,---,0.00,VWS V14.01,2013-05-14 01:29:00,
2013-05-13 20:30:00,68.5,50.2,30.27,SSW,193,0.0,0.0,52,0.00,,---,0.00,VWS V14.01,2013-05-14 01:30:00,
2013-05-13 20:31:00,68.5,50.2,30.27,SE,143,4.0,4.0,52,0.00,,---,0.00,VWS V14.01,2013-05-14 01:31:00,
2013-05-13 20:32:00,68.5,50.8,30.27,South,178,2.7,3.1,53,0.00,,---,0.00,VWS V14.01,2013-05-14 01:32:00,
2013-05-13 20:33:00,68.5,50.8,30.27,South,178,2.2,3.1,53,0.00,,---,0.00,VWS V14.01,2013-05-14 01:33:00,
2013-05-13 20:34:00,68.5,50.8,30.27,SSW,202,3.1,3.6,53,0.00,,---,0.00,VWS V14.01,2013-05-14 01:34:00,
2013-05-13 20:35:00,68.4,50.6,30.27,SW,230,2.7,3.1,53,0.00,,---,0.00,VWS V14.01,2013-05-14 01:35:00,
2013-05-13 20:36:00,68.4,51.1,30.27,South,171,2.7,3.6,54,0.00,,---,0.00,VWS V14.01,2013-05-14 01:36:00,
2013-05-13 20:37:00,68.4,50.6,30.27,SSE,157,3.1,4.0,53,0.00,,---,0.00,VWS V14.01,2013-05-14 01:37:00,
2013-05-13 20:38:00,68.4,51.1,30.27,South,185,3.1,4.0,54,0.00,,---,0.00,VWS V14.01,2013-05-14 01:38:00,
2013-05-13 20:39:00,68.5,51.3,30.27,South,185,0.0,3.1,54,0.00,,---,0.00,VWS V14.01,2013-05-14 01:39:00,
2013-05-13 20:40:00,68.5,51.3,30.27,SSE,162,0.0,4.0,54,0.00,,---,0.00,VWS V14.01,2013-05-14 01:40:00,
2013-05-13 20:41:00,68.5,51.3,30.27,SSE,162,0.0,0.0,54,0.00,,---,0.00,VWS V14.01,2013-05-14 01:41:00,
2013-05-13 20:42:00,68.4,51.1,30.27,SSE,162,0.0,0.0,54,0.00,,---,0.00,VWS V14.01,2013-05-14 01:42:00,
2013-05-13 20:43:00,68.2,50.9,30.27,SSE,162,0.0,0.0,54,0.00,,---,0.00,VWS V14.01,2013-05-14 01:43:00,
2013-05-13 20:44:00,68.2,50.9,30.27,South,179,2.7,2.7,54,0.00,,---,0.00,VWS V14.01,2013-05-14 01:44:00,
2013-05-13 20:45:00,68.2,50.9,30.27,SW,219,2.2,3.1,54,0.00,,---,0.00,VWS V14.01,2013-05-14 01:45:00,
2013-05-13 20:46:00,68.0,50.8,30.27,SW,219,2.2,2.2,54,0.00,,---,0.00,VWS V14.01,2013-05-14 01:46:00,
2013-05-13 20:47:00,68.0,51.2,30.27,SSW,208,0.0,2.2,55,0.00,,---,0.00,VWS V14.01,2013-05-14 01:47:00,
2013-05-13 20:48:00,68.0,51.2,30.27,WSW,247,2.2,2.2,55,0.00,,---,0.00,VWS V14.01,2013-05-14 01:48:00,
2013-05-13 20:49:00,68.0,51.2,30.27,SW,220,0.0,2.7,55,0.00,,---,0.00,VWS V14.01,2013-05-14 01:49:00,
2013-05-13 20:50:00,68.0,51.2,30.27,SW,220,0.0,0.0,55,0.00,,---,0.00,VWS V14.01,2013-05-14 01:50:00,
2013-05-13 20:51:00,68.0,51.2,30.27,SW,220,0.0,0.0,55,0.00,,---,0.00,VWS V14.01,2013-05-14 01:51:00,
2013-05-13 20:52:00,68.0,51.2,30.27,South,189,2.2,3.1,55,0.00,,---,0.00,VWS V14.01,2013-05-14 01:52:00,
2013-05-13 20:53:00,67.8,51.6,30.27,WSW,250,0.0,3.1,56,0.00,,---,0.00,VWS V14.01,2013-05-14 01:53:00,
2013-05-13 20:54:00,67.8,51.6,30.27,WSW,250,0.0,0.0,56,0.00,,---,0.00,VWS V14.01,2013-05-14 01:54:00,
2013-05-13 20:55:00,67.6,51.4,30.27,SW,223,0.0,0.0,56,0.00,,---,0.00,VWS V14.01,2013-05-14 01:55:00,
2013-05-13 20:56:00,67.6,51.9,30.27,SW,214,0.0,0.0,57,0.00,,---,0.00,VWS V14.01,2013-05-14 01:56:00,
2013-05-13 20:57:00,67.6,51.9,30.27,SW,214,0.0,0.0,57,0.00,,---,0.00,VWS V14.01,2013-05-14 01:57:00,
2013-05-13 20:58:00,67.6,51.9,30.27,South,189,0.0,0.0,57,0.00,,---,0.00,VWS V14.01,2013-05-14 01:58:00,
2013-05-13 20:59:00,67.6,52.3,30.27,South,185,0.0,2.7,58,0.00,,---,0.00,VWS V14.01,2013-05-14 01:59:00,
2013-05-13 21:00:00,67.6,52.3,30.27,South,172,2.7,2.7,58,0.00,,---,0.00,VWS V14.01,2013-05-14 02:00:00,
2013-05-13 21:01:00,67.6,52.3,30.27,SW,221,2.2,3.1,58,0.00,,---,0.00,VWS V14.01,2013-05-14 02:01:00,
2013-05-13 21:02:00,67.6,52.3,30.27,SSW,212,0.0,2.2,58,0.00,,---,0.00,VWS V14.01,2013-05-14 02:02:00,
2013-05-13 21:03:00,67.8,53.0,30.27,SSE,167,2.7,2.7,59,0.00,,---,0.00,VWS V14.01,2013-05-14 02:03:00,
2013-05-13 21:04:00,67.6,52.8,30.27,SSE,163,3.1,3.1,59,0.00,,---,0.00,VWS V14.01,2013-05-14 02:04:00,
2013-05-13 21:05:00,67.6,52.8,30.27,WSW,243,0.0,3.1,59,0.00,,---,0.00,VWS V14.01,2013-05-14 02:05:00,
2013-05-13 21:06:00,67.5,52.2,30.27,WSW,243,0.0,0.0,58,0.00,,---,0.00,VWS V14.01,2013-05-14 02:06:00,
2013-05-13 21:07:00,67.3,52.0,30.27,South,175,0.0,0.0,58,0.00,,---,0.00,VWS V14.01,2013-05-14 02:07:00,
2013-05-13 21:08:00,67.3,52.0,30.27,South,188,0.0,0.0,58,0.00,,---,0.00,VWS V14.01,2013-05-14 02:08:00,
2013-05-13 21:09:00,67.3,52.5,30.27,South,184,0.0,0.0,59,0.00,,---,0.00,VWS V14.01,2013-05-14 02:09:00,
2013-05-13 21:10:00,67.3,52.5,30.27,SW,236,0.0,0.0,59,0.00,,---,0.00,VWS V14.01,2013-05-14 02:10:00,
2013-05-13 21:11:00,67.1,52.3,30.27,SW,236,0.0,0.0,59,0.00,,---,0.00,VWS V14.01,2013-05-14 02:11:00,
2013-05-13 21:12:00,66.9,52.1,30.27,SSW,213,0.0,2.7,59,0.00,,---,0.00,VWS V14.01,2013-05-14 02:12:00,
2013-05-13 21:13:00,66.9,52.1,30.27,SSW,211,0.0,2.7,59,0.00,,---,0.00,VWS V14.01,2013-05-14 02:13:00,
2013-05-13 21:14:00,66.9,52.1,30.27,SW,215,0.0,0.0,59,0.00,,---,0.00,VWS V14.01,2013-05-14 02:14:00,
2013-05-13 21:15:00,66.9,52.1,30.27,SW,215,0.0,0.0,59,0.00,,---,0.00,VWS V14.01,2013-05-14 02:15:00,
2013-05-13 21:16:00,66.9,52.1,30.27,SSW,204,0.0,0.0,59,0.00,,---,0.00,VWS V14.01,2013-05-14 02:16:00,
2013-05-13 21:17:00,66.7,52.0,30.27,SSW,209,0.0,0.0,59,0.00,,---,0.00,VWS V14.01,2013-05-14 02:17:00,
2013-05-13 21:18:00,66.7,52.0,30.27,SSW,209,0.0,0.0,59,0.00,,---,0.00,VWS V14.01,2013-05-14 02:18:00,
2013-05-13 21:19:00,66.7,52.4,30.27,SSW,209,0.0,0.0,60,0.00,,---,0.00,VWS V14.01,2013-05-14 02:19:00,
2013-05-13 21:20:00,66.7,52.4,30.27,SW,232,0.0,0.0,60,0.00,,---,0.00,VWS V14.01,2013-05-14 02:20:00,
2013-05-13 21:21:00,66.7,52.4,30.27,SW,232,0.0,0.0,60,0.00,,---,0.00,VWS V14.01,2013-05-14 02:21:00,
2013-05-13 21:22:00,66.6,52.3,30.27,SW,232,0.0,0.0,60,0.00,,---,0.00,VWS V14.01,2013-05-14 02:22:00,
2013-05-13 21:23:00,66.6,52.3,30.27,SW,232,0.0,0.0,60,0.00,,---,0.00,VWS V14.01,2013-05-14 02:23:00,
2013-05-13 21:24:00,66.6,52.7,30.27,SW,230,0.0,0.0,61,0.00,,---,0.00,VWS V14.01,2013-05-14 02:24:00,
2013-05-13 21:25:00,66.6,52.7,30.27,WSW,252,0.0,0.0,61,0.00,,---,0.00,VWS V14.01,2013-05-14 02:25:00,
2013-05-13 21:26:00,66.6,52.7,30.27,WSW,252,0.0,0.0,61,0.00,,---,0.00,VWS V14.01,2013-05-14 02:26:00,
2013-05-13 21:27:00,66.4,52.5,30.27,WSW,252,0.0,0.0,61,0.00,,---,0.00,VWS V14.01,2013-05-14 02:27:00,
2013-05-13 21:28:00,66.4,52.5,30.27,WSW,252,0.0,0.0,61,0.00,,---,0.00,VWS V14.01,2013-05-14 02:28:00,
2013-05-13 21:29:00,66.4,52.5,30.27,South,190,2.7,2.7,61,0.00,,---,0.00,VWS V14.01,2013-05-14 02:29:00,
2013-05-13 21:30:00,66.4,53.0,30.27,SSE,160,2.2,3.6,62,0.00,,---,0.00,VWS V14.01,2013-05-14 02:30:00,
2013-05-13 21:31:00,66.4,53.0,30.27,SSE,160,0.0,2.2,62,0.00,,---,0.00,VWS V14.01,2013-05-14 02:31:00,
2013-05-13 21:32:00,66.2,52.8,30.30,South,171,0.0,0.0,62,0.00,,---,0.00,VWS V14.01,2013-05-14 02:32:00,
2013-05-13 21:33:00,66.4,53.0,30.30,SSW,213,0.0,0.0,62,0.00,,---,0.00,VWS V14.01,2013-05-14 02:33:00,
2013-05-13 21:34:00,66.2,52.8,30.30,SSW,213,0.0,0.0,62,0.00,,---,0.00,VWS V14.01,2013-05-14 02:34:00,
2013-05-13 21:35:00,66.4,53.4,30.30,SW,223,0.0,0.0,63,0.00,,---,0.00,VWS V14.01,2013-05-14 02:35:00,
2013-05-13 21:36:00,66.4,53.4,30.30,SW,218,0.0,0.0,63,0.00,,---,0.00,VWS V14.01,2013-05-14 02:36:00,
2013-05-13 21:37:00,66.4,53.4,30.30,South,184,0.0,2.7,63,0.00,,---,0.00,VWS V14.01,2013-05-14 02:37:00,
2013-05-13 21:38:00,66.4,53.4,30.30,South,184,0.0,2.7,63,0.00,,---,0.00,VWS V14.01,2013-05-14 02:38:00,
2013-05-13 21:39:00,66.4,53.4,30.30,South,184,0.0,0.0,63,0.00,,---,0.00,VWS V14.01,2013-05-14 02:39:00,
2013-05-13 21:40:00,66.2,53.2,30.30,South,185,0.0,0.0,63,0.00,,---,0.00,VWS V14.01,2013-05-14 02:40:00,
2013-05-13 21:41:00,66.2,53.2,30.30,South,185,0.0,0.0,63,0.00,,---,0.00,VWS V14.01,2013-05-14 02:41:00,
2013-05-13 21:42:00,66.2,53.2,30.30,South,185,0.0,0.0,63,0.00,,---,0.00,VWS V14.01,2013-05-14 02:42:00,
2013-05-13 21:43:00,66.2,53.2,30.30,South,185,0.0,0.0,63,0.00,,---,0.00,VWS V14.01,2013-05-14 02:43:00,
2013-05-13 21:44:00,66.0,53.5,30.30,SSW,200,0.0,0.0,64,0.00,,---,0.00,VWS V14.01,2013-05-14 02:44:00,
2013-05-13 21:45:00,66.0,53.5,30.30,SSW,200,0.0,0.0,64,0.00,,---,0.00,VWS V14.01,2013-05-14 02:45:00,
2013-05-13 21:46:00,66.0,53.5,30.30,SSW,200,0.0,0.0,64,0.00,,---,0.00,VWS V14.01,2013-05-14 02:46:00,
2013-05-13 21:47:00,66.0,53.5,30.30,SSW,200,0.0,0.0,64,0.00,,---,0.00,VWS V14.01,2013-05-14 02:47:00,
2013-05-13 21:48:00,66.0,53.5,30.30,SSW,200,0.0,0.0,64,0.00,,---,0.00,VWS V14.01,2013-05-14 02:48:00,
2013-05-13 21:49:00,66.0,53.5,30.30,SSW,200,0.0,0.0,64,0.00,,---,0.00,VWS V14.01,2013-05-14 02:49:00,
2013-05-13 21:50:00,65.8,53.3,30.30,SSW,200,0.0,0.0,64,0.00,,---,0.00,VWS V14.01,2013-05-14 02:50:00,
2013-05-13 21:51:00,65.8,53.8,30.30,SSW,200,0.0,0.0,65,0.00,,---,0.00,VWS V14.01,2013-05-14 02:51:00,
2013-05-13 21:52:00,65.8,53.8,30.30,SSW,200,0.0,0.0,65,0.00,,---,0.00,VWS V14.01,2013-05-14 02:52:00,
2013-05-13 21:53:00,65.8,53.8,30.30,SSW,200,0.0,0.0,65,0.00,,---,0.00,VWS V14.01,2013-05-14 02:53:00,
2013-05-13 21:54:00,65.8,53.8,30.30,SSW,200,0.0,0.0,65,0.00,,---,0.00,VWS V14.01,2013-05-14 02:54:00,
2013-05-13 21:55:00,65.8,53.8,30.30,SSW,200,0.0,0.0,65,0.00,,---,0.00,VWS V14.01,2013-05-14 02:55:00,
2013-05-13 21:56:00,65.8,54.2,30.30,SSW,200,0.0,0.0,66,0.00,,---,0.00,VWS V14.01,2013-05-14 02:56:00,
2013-05-13 21:57:00,65.8,54.2,30.30,SSW,200,0.0,0.0,66,0.00,,---,0.00,VWS V14.01,2013-05-14 02:57:00,
2013-05-13 21:58:00,65.7,54.0,30.30,SSW,200,0.0,0.0,66,0.00,,---,0.00,VWS V14.01,2013-05-14 02:58:00,
2013-05-13 21:59:00,65.8,54.2,30.30,SSW,200,0.0,0.0,66,0.00,,---,0.00,VWS V14.01,2013-05-14 02:59:00,
2013-05-13 22:00:00,65.8,54.6,30.30,SSW,200,0.0,0.0,67,0.00,,---,0.00,VWS V14.01,2013-05-14 03:00:00,
2013-05-13 22:01:00,65.8,54.6,30.30,SSW,200,0.0,0.0,67,0.00,,---,0.00,VWS V14.01,2013-05-14 03:01:00,
2013-05-13 22:02:00,65.8,54.6,30.30,SSW,200,0.0,0.0,67,0.00,,---,0.00,VWS V14.01,2013-05-14 03:02:00,
2013-05-13 22:03:00,65.8,54.6,30.30,SSW,200,0.0,0.0,67,0.00,,---,0.00,VWS V14.01,2013-05-14 03:03:00,
2013-05-13 22:04:00,65.7,54.4,30.30,SSW,200,0.0,0.0,67,0.00,,---,0.00,VWS V14.01,2013-05-14 03:04:00,
2013-05-13 22:05:00,65.7,54.4,30.30,SSW,200,0.0,0.0,67,0.00,,---,0.00,VWS V14.01,2013-05-14 03:05:00,
2013-05-13 22:06:00,65.7,54.4,30.30,SSW,200,0.0,0.0,67,0.00,,---,0.00,VWS V14.01,2013-05-14 03:06:00,
2013-05-13 22:07:00,65.7,54.4,30.30,SSW,200,0.0,0.0,67,0.00,,---,0.00,VWS V14.01,2013-05-14 03:07:00,
2013-05-13 22:08:00,65.7,54.4,30.30,SSW,200,0.0,0.0,67,0.00,,---,0.00,VWS V14.01,2013-05-14 03:08:00,
2013-05-13 22:09:00,65.5,54.2,30.30,SSW,200,0.0,0.0,67,0.00,,---,0.00,VWS V14.01,2013-05-14 03:09:00,
2013-05-13 22:10:00,65.5,54.2,30.30,SSW,200,0.0,0.0,67,0.00,,---,0.00,VWS V14.01,2013-05-14 03:10:00,
2013-05-13 22:11:00,65.5,54.2,30.30,SSW,200,0.0,0.0,67,0.00,,---,0.00,VWS V14.01,2013-05-14 03:11:00,
2013-05-13 22:12:00,65.5,54.2,30.30,SSW,200,0.0,0.0,67,0.00,,---,0.00,VWS V14.01,2013-05-14 03:12:00,
2013-05-13 22:13:00,65.5,54.2,30.30,SSW,200,0.0,0.0,67,0.00,,---,0.00,VWS V14.01,2013-05-14 03:13:00,
2013-05-13 22:14:00,65.5,54.7,30.30,SSW,200,0.0,0.0,68,0.00,,---,0.00,VWS V14.01,2013-05-14 03:14:00,
2013-05-13 22:15:00,65.5,54.7,30.30,SSW,200,0.0,0.0,68,0.00,,---,0.00,VWS V14.01,2013-05-14 03:15:00,
2013-05-13 22:16:00,65.5,54.7,30.30,SSW,200,0.0,0.0,68,0.00,,---,0.00,VWS V14.01,2013-05-14 03:16:00,
2013-05-13 22:17:00,65.3,54.5,30.30,SSW,200,0.0,0.0,68,0.00,,---,0.00,VWS V14.01,2013-05-14 03:17:00,
2013-05-13 22:18:00,65.3,54.5,30.30,SSW,200,0.0,0.0,68,0.00,,---,0.00,VWS V14.01,2013-05-14 03:18:00,
2013-05-13 22:19:00,65.3,54.5,30.30,SSW,200,0.0,0.0,68,0.00,,---,0.00,VWS V14.01,2013-05-14 03:19:00,
2013-05-13 22:20:00,65.3,54.5,30.30,SSW,200,0.0,0.0,68,0.00,,---,0.00,VWS V14.01,2013-05-14 03:20:00,
2013-05-13 22:21:00,65.1,54.3,30.30,SSW,200,0.0,0.0,68,0.00,,---,0.00,VWS V14.01,2013-05-14 03:21:00,
2013-05-13 22:22:00,65.1,54.3,30.30,SSW,200,0.0,0.0,68,0.00,,---,0.00,VWS V14.01,2013-05-14 03:22:00,
2013-05-13 22:23:00,65.1,54.7,30.30,SSW,200,0.0,0.0,69,0.00,,---,0.00,VWS V14.01,2013-05-14 03:23:00,
2013-05-13 22:24:00,65.1,54.7,30.30,SSW,200,0.0,0.0,69,0.00,,---,0.00,VWS V14.01,2013-05-14 03:24:00,
2013-05-13 22:25:00,64.9,54.5,30.30,SSW,200,0.0,0.0,69,0.00,,---,0.00,VWS V14.01,2013-05-14 03:25:00,
2013-05-13 22:26:00,64.9,54.5,30.30,SSW,200,0.0,0.0,69,0.00,,---,0.00,VWS V14.01,2013-05-14 03:26:00,
2013-05-13 22:27:00,64.8,54.4,30.30,SSW,200,0.0,0.0,69,0.00,,---,0.00,VWS V14.01,2013-05-14 03:27:00,
2013-05-13 22:28:00,64.8,54.4,30.30,SSW,200,0.0,0.0,69,0.00,,---,0.00,VWS V14.01,2013-05-14 03:28:00,
2013-05-13 22:29:00,64.6,54.2,30.30,SSW,200,0.0,0.0,69,0.00,,---,0.00,VWS V14.01,2013-05-14 03:29:00,
2013-05-13 22:30:00,64.6,54.2,30.30,SSW,200,0.0,0.0,69,0.00,,---,0.00,VWS V14.01,2013-05-14 03:30:00,
2013-05-13 22:31:00,64.2,54.2,30.30,SSW,200,0.0,0.0,70,0.00,,---,0.00,VWS V14.01,2013-05-14 03:31:00,
2013-05-13 22:32:00,64.2,54.2,30.30,SSW,200,0.0,0.0,70,0.00,,---,0.00,VWS V14.01,2013-05-14 03:32:00,
2013-05-13 22:33:00,64.0,54.1,30.30,SSW,200,0.0,0.0,70,0.00,,---,0.00,VWS V14.01,2013-05-14 03:33:00,
2013-05-13 22:34:00,63.9,54.3,30.30,SSW,200,0.0,0.0,71,0.00,,---,0.00,VWS V14.01,2013-05-14 03:34:00,
2013-05-13 22:35:00,63.9,54.3,30.30,SSW,200,0.0,0.0,71,0.00,,---,0.00,VWS V14.01,2013-05-14 03:35:00,
2013-05-13 22:36:00,63.9,54.3,30.30,SSW,200,0.0,0.0,71,0.00,,---,0.00,VWS V14.01,2013-05-14 03:36:00,
2013-05-13 22:37:00,63.5,53.9,30.30,SSW,200,0.0,0.0,71,0.00,,---,0.00,VWS V14.01,2013-05-14 03:37:00,
2013-05-13 22:38:00,63.3,53.8,30.30,SSW,200,0.0,0.0,71,0.00,,---,0.00,VWS V14.01,2013-05-14 03:38:00,
2013-05-13 22:39:00,63.1,54.0,30.30,SSW,200,0.0,0.0,72,0.00,,---,0.00,VWS V14.01,2013-05-14 03:39:00,
2013-05-13 22:40:00,63.1,54.0,30.30,SSW,200,0.0,0.0,72,0.00,,---,0.00,VWS V14.01,2013-05-14 03:40:00,
2013-05-13 22:41:00,63.0,53.8,30.30,SSW,200,0.0,0.0,72,0.00,,---,0.00,VWS V14.01,2013-05-14 03:41:00,
2013-05-13 22:42:00,62.8,53.6,30.30,SSW,200,0.0,0.0,72,0.00,,---,0.00,VWS V14.01,2013-05-14 03:42:00,
2013-05-13 22:43:00,62.8,53.6,30.30,SSW,200,0.0,0.0,72,0.00,,---,0.00,VWS V14.01,2013-05-14 03:43:00,
2013-05-13 22:44:00,62.6,53.8,30.30,SSW,200,0.0,0.0,73,0.00,,---,0.00,VWS V14.01,2013-05-14 03:44:00,
2013-05-13 22:45:00,62.6,53.8,30.30,SSW,200,0.0,0.0,73,0.00,,---,0.00,VWS V14.01,2013-05-14 03:45:00,
2013-05-13 22:46:00,62.6,54.2,30.30,SSW,200,0.0,0.0,74,0.00,,---,0.00,VWS V14.01,2013-05-14 03:46:00,
2013-05-13 22:47:00,62.6,54.2,30.30,SSW,200,0.0,0.0,74,0.00,,---,0.00,VWS V14.01,2013-05-14 03:47:00,
2013-05-13 22:48:00,62.6,54.2,30.30,SSW,200,0.0,0.0,74,0.00,,---,0.00,VWS V14.01,2013-05-14 03:48:00,
2013-05-13 22:49:00,62.6,54.6,30.30,SSW,200,0.0,0.0,75,0.00,,---,0.00,VWS V14.01,2013-05-14 03:49:00,
2013-05-13 22:50:00,62.6,54.6,30.30,SSW,200,0.0,0.0,75,0.00,,---,0.00,VWS V14.01,2013-05-14 03:50:00,
2013-05-13 22:51:00,62.6,54.9,30.30,SSW,200,0.0,0.0,76,0.00,,---,0.00,VWS V14.01,2013-05-14 03:51:00,
2013-05-13 22:52:00,62.6,54.9,30.30,SSW,200,0.0,0.0,76,0.00,,---,0.00,VWS V14.01,2013-05-14 03:52:00,
2013-05-13 22:53:00,62.6,54.9,30.30,SSW,200,0.0,0.0,76,0.00,,---,0.00,VWS V14.01,2013-05-14 03:53:00,
2013-05-13 22:54:00,62.6,54.9,30.30,SSW,200,0.0,0.0,76,0.00,,---,0.00,VWS V14.01,2013-05-14 03:54:00,
2013-05-13 22:55:00,62.4,55.1,30.30,SSW,200,0.0,0.0,77,0.00,,---,0.00,VWS V14.01,2013-05-14 03:55:00,
2013-05-13 22:56:00,62.4,55.1,30.30,SSW,200,0.0,0.0,77,0.00,,---,0.00,VWS V14.01,2013-05-14 03:56:00,
2013-05-13 22:57:00,62.2,55.0,30.30,SSW,200,0.0,0.0,77,0.00,,---,0.00,VWS V14.01,2013-05-14 03:57:00,
2013-05-13 22:58:00,62.2,55.0,30.30,SSW,200,0.0,0.0,77,0.00,,---,0.00,VWS V14.01,2013-05-14 03:58:00,
2013-05-13 22:59:00,62.2,55.3,30.30,SSW,200,0.0,0.0,78,0.00,,---,0.00,VWS V14.01,2013-05-14 03:59:00,
2013-05-13 23:00:00,62.2,55.3,30.30,SSW,200,0.0,0.0,78,0.00,,---,0.00,VWS V14.01,2013-05-14 04:00:00,
2013-05-13 23:01:00,62.2,55.3,30.30,SSW,200,0.0,0.0,78,0.00,,---,0.00,VWS V14.01,2013-05-14 04:01:00,
2013-05-13 23:02:00,62.2,55.3,30.30,SSW,200,0.0,0.0,78,0.00,,---,0.00,VWS V14.01,2013-05-14 04:02:00,
2013-05-13 23:03:00,62.2,55.3,30.30,SSW,200,0.0,0.0,78,0.00,,---,0.00,VWS V14.01,2013-05-14 04:03:00,
2013-05-13 23:04:00,62.1,55.1,30.30,SSW,200,0.0,0.0,78,0.00,,---,0.00,VWS V14.01,2013-05-14 04:04:00,
2013-05-13 23:05:00,62.1,55.1,30.30,SSW,200,0.0,0.0,78,0.00,,---,0.00,VWS V14.01,2013-05-14 04:05:00,
2013-05-13 23:06:00,62.1,55.5,30.30,SSW,200,0.0,0.0,79,0.00,,---,0.00,VWS V14.01,2013-05-14 04:06:00,
2013-05-13 23:07:00,62.1,55.5,30.30,SSW,200,0.0,0.0,79,0.00,,---,0.00,VWS V14.01,2013-05-14 04:07:00,
2013-05-13 23:08:00,61.9,55.3,30.30,SSW,200,0.0,0.0,79,0.00,,---,0.00,VWS V14.01,2013-05-14 04:08:00,
2013-05-13 23:09:00,61.9,55.3,30.30,SSW,200,0.0,0.0,79,0.00,,---,0.00,VWS V14.01,2013-05-14 04:09:00,
2013-05-13 23:10:00,61.9,55.3,30.30,SSW,200,0.0,0.0,79,0.00,,---,0.00,VWS V14.01,2013-05-14 04:10:00,
2013-05-13 23:11:00,61.9,55.3,30.30,SSW,200,0.0,0.0,79,0.00,,---,0.00,VWS V14.01,2013-05-14 04:11:00,
2013-05-13 23:12:00,61.9,55.3,30.30,SSW,200,0.0,0.0,79,0.00,,---,0.00,VWS V14.01,2013-05-14 04:12:00,
2013-05-13 23:13:00,61.9,55.7,30.30,SSW,200,0.0,0.0,80,0.00,,---,0.00,VWS V14.01,2013-05-14 04:13:00,
2013-05-13 23:14:00,61.9,55.7,30.30,SSW,200,0.0,0.0,80,0.00,,---,0.00,VWS V14.01,2013-05-14 04:14:00,
2013-05-13 23:15:00,61.9,55.7,30.30,SSW,200,0.0,0.0,80,0.00,,---,0.00,VWS V14.01,2013-05-14 04:15:00,
2013-05-13 23:16:00,62.1,55.8,30.30,SSW,200,0.0,0.0,80,0.00,,---,0.00,VWS V14.01,2013-05-14 04:16:00,
2013-05-13 23:17:00,61.9,55.7,30.30,SSW,200,0.0,0.0,80,0.00,,---,0.00,VWS V14.01,2013-05-14 04:17:00,
2013-05-13 23:18:00,61.7,55.5,30.30,SSW,200,0.0,0.0,80,0.00,,---,0.00,VWS V14.01,2013-05-14 04:18:00,
2013-05-13 23:19:00,61.7,55.5,30.30,SSW,200,0.0,0.0,80,0.00,,---,0.00,VWS V14.01,2013-05-14 04:19:00,
2013-05-13 23:20:00,61.5,55.3,30.30,SSW,200,0.0,0.0,80,0.00,,---,0.00,VWS V14.01,2013-05-14 04:20:00,
2013-05-13 23:21:00,61.3,55.1,30.30,SSW,200,0.0,0.0,80,0.00,,---,0.00,VWS V14.01,2013-05-14 04:21:00,
2013-05-13 23:22:00,61.3,55.1,30.30,SSW,200,0.0,0.0,80,0.00,,---,0.00,VWS V14.01,2013-05-14 04:22:00,
2013-05-13 23:23:00,61.2,55.0,30.30,SSW,200,0.0,0.0,80,0.00,,---,0.00,VWS V14.01,2013-05-14 04:23:00,
2013-05-13 23:24:00,61.2,55.3,30.30,SSW,200,0.0,0.0,81,0.00,,---,0.00,VWS V14.01,2013-05-14 04:24:00,
2013-05-13 23:25:00,61.0,55.1,30.30,SSW,200,0.0,0.0,81,0.00,,---,0.00,VWS V14.01,2013-05-14 04:25:00,
2013-05-13 23:26:00,61.0,55.1,30.30,SSW,200,0.0,0.0,81,0.00,,---,0.00,VWS V14.01,2013-05-14 04:26:00,
2013-05-13 23:27:00,61.0,55.1,30.30,SSW,200,0.0,0.0,81,0.00,,---,0.00,VWS V14.01,2013-05-14 04:27:00,
2013-05-13 23:28:00,60.8,54.9,30.30,SSW,200,0.0,0.0,81,0.00,,---,0.00,VWS V14.01,2013-05-14 04:28:00,
2013-05-13 23:29:00,60.8,54.9,30.30,SSW,200,0.0,0.0,81,0.00,,---,0.00,VWS V14.01,2013-05-14 04:29:00,
2013-05-13 23:30:00,60.8,55.3,30.30,SSW,200,0.0,0.0,82,0.00,,---,0.00,VWS V14.01,2013-05-14 04:30:00,
2013-05-13 23:31:00,60.6,55.1,30.30,SSW,200,0.0,0.0,82,0.00,,---,0.00,VWS V14.01,2013-05-14 04:31:00,
2013-05-13 23:32:00,60.6,55.1,30.30,SSW,200,0.0,0.0,82,0.00,,---,0.00,VWS V14.01,2013-05-14 04:32:00,
2013-05-13 23:33:00,60.6,55.1,30.30,SSW,200,0.0,0.0,82,0.00,,---,0.00,VWS V14.01,2013-05-14 04:33:00,
2013-05-13 23:34:00,60.6,55.1,30.30,SSW,200,0.0,0.0,82,0.00,,---,0.00,VWS V14.01,2013-05-14 04:34:00,
2013-05-13 23:35:00,60.6,55.1,30.30,SSW,200,0.0,0.0,82,0.00,,---,0.00,VWS V14.01,2013-05-14 04:35:00,
2013-05-13 23:36:00,60.6,55.4,30.30,SSW,200,0.0,0.0,83,0.00,,---,0.00,VWS V14.01,2013-05-14 04:36:00,
2013-05-13 23:37:00,60.6,55.4,30.30,SSW,200,0.0,0.0,83,0.00,,---,0.00,VWS V14.01,2013-05-14 04:37:00,
2013-05-13 23:38:00,60.6,55.4,30.30,SSW,200,0.0,0.0,83,0.00,,---,0.00,VWS V14.01,2013-05-14 04:38:00,
2013-05-13 23:39:00,60.6,55.4,30.30,SSW,200,0.0,0.0,83,0.00,,---,0.00,VWS V14.01,2013-05-14 04:39:00,
2013-05-13 23:40:00,60.8,55.6,30.30,SSW,200,0.0,0.0,83,0.00,,---,0.00,VWS V14.01,2013-05-14 04:40:00,
2013-05-13 23:41:00,60.8,55.6,30.30,SSW,200,0.0,0.0,83,0.00,,---,0.00,VWS V14.01,2013-05-14 04:41:00,
2013-05-13 23:42:00,60.6,55.8,30.30,SSW,200,0.0,0.0,84,0.00,,---,0.00,VWS V14.01,2013-05-14 04:42:00,
2013-05-13 23:43:00,60.6,55.8,30.30,SSW,200,0.0,0.0,84,0.00,,---,0.00,VWS V14.01,2013-05-14 04:43:00,
2013-05-13 23:44:00,60.6,55.8,30.30,SSW,200,0.0,0.0,84,0.00,,---,0.00,VWS V14.01,2013-05-14 04:44:00,
2013-05-13 23:45:00,60.4,55.6,30.30,SSW,200,0.0,0.0,84,0.00,,---,0.00,VWS V14.01,2013-05-14 04:45:00,
2013-05-13 23:46:00,60.3,55.4,30.30,SSW,200,0.0,0.0,84,0.00,,---,0.00,VWS V14.01,2013-05-14 04:46:00,
2013-05-13 23:47:00,60.3,55.4,30.30,SSW,200,0.0,0.0,84,0.00,,---,0.00,VWS V14.01,2013-05-14 04:47:00,
2013-05-13 23:48:00,60.1,55.2,30.30,SSW,200,0.0,0.0,84,0.00,,---,0.00,VWS V14.01,2013-05-14 04:48:00,
2013-05-13 23:49:00,60.1,55.2,30.30,SSW,200,0.0,0.0,84,0.00,,---,0.00,VWS V14.01,2013-05-14 04:49:00,
2013-05-13 23:50:00,60.1,55.6,30.30,SSW,200,0.0,0.0,85,0.00,,---,0.00,VWS V14.01,2013-05-14 04:50:00,
2013-05-13 23:51:00,60.3,55.7,30.30,SSW,200,0.0,0.0,85,0.00,,---,0.00,VWS V14.01,2013-05-14 04:51:00,
2013-05-13 23:52:00,60.3,55.7,30.30,SSW,200,0.0,0.0,85,0.00,,---,0.00,VWS V14.01,2013-05-14 04:52:00,
2013-05-13 23:53:00,60.3,55.7,30.30,SSW,200,0.0,0.0,85,0.00,,---,0.00,VWS V14.01,2013-05-14 04:53:00,
2013-05-13 23:54:00,60.3,56.1,30.30,SSW,200,0.0,0.0,86,0.00,,---,0.00,VWS V14.01,2013-05-14 04:54:00,
2013-05-13 23:55:00,60.1,55.9,30.30,SSW,200,0.0,0.0,86,0.00,,---,0.00,VWS V14.01,2013-05-14 04:55:00,
2013-05-13 23:56:00,60.1,55.9,30.30,SSW,200,0.0,0.0,86,0.00,,---,0.00,VWS V14.01,2013-05-14 04:56:00,
2013-05-13 23:57:00,59.9,55.7,30.30,SSW,200,0.0,0.0,86,0.00,,---,0.00,VWS V14.01,2013-05-14 04:57:00,
2013-05-13 23:58:00,59.9,55.7,30.30,SSW,200,0.0,0.0,86,0.00,,---,0.00,VWS V14.01,2013-05-14 04:58:00,
2013-05-13 23:59:00,59.9,55.7,30.30,SSW,200,0.0,0.0,86,0.00,,---,0.00,VWS V14.01,2013-05-14 04:59:00,